﻿<?xml version="1.0" encoding="UTF-8" standalone="no" ?>
<gpx xmlns="http://www.topografix.com/GPX/1/1" creator="CompeGPS" version="1.1" xmlns:xsi="http://www.w3.org/2001/XMLSchema-instance" xsi:schemaLocation="http://www.topografix.com/GPX/1/1 http://www.topografix.com/GPX/1/1/gpx.xsd">
  <metadata>
    <link href="http://www.compegps.com">
      <text>CompeGPS TEAM, SL</text>
    </link>
    <time>2019-01-13T21:46:20Z</time>
    <bounds maxlat="41.993994" maxlon="3.227309" minlat="41.722290" minlon="2.859213"/>
  </metadata>
  <trk>
    <name>ROAD03_158 CON WAYPOINTS</name>
    <trkseg>
      <trkpt lat="41.881406" lon="3.109434">
        <ele>95.0</ele>
        <time>2019-01-13T21:46:08Z</time>
      </trkpt>
      <trkpt lat="41.881345" lon="3.109484">
        <ele>96.0</ele>
        <time>2019-01-13T21:46:09Z</time>
      </trkpt>
      <trkpt lat="41.881224" lon="3.109584">
        <ele>96.0</ele>
        <time>2019-01-13T21:46:11Z</time>
      </trkpt>
      <trkpt lat="41.881080" lon="3.109590">
        <ele>95.0</ele>
        <time>2019-01-13T21:46:13Z</time>
      </trkpt>
      <trkpt lat="41.880959" lon="3.109621">
        <ele>95.0</ele>
        <time>2019-01-13T21:46:15Z</time>
      </trkpt>
      <trkpt lat="41.880824" lon="3.109609">
        <ele>95.0</ele>
        <time>2019-01-13T21:46:17Z</time>
      </trkpt>
      <trkpt lat="41.880694" lon="3.109584">
        <ele>95.0</ele>
        <time>2019-01-13T21:46:19Z</time>
      </trkpt>
      <trkpt lat="41.880582" lon="3.109540">
        <ele>94.0</ele>
        <time>2019-01-13T21:46:21Z</time>
      </trkpt>
      <trkpt lat="41.880475" lon="3.109478">
        <ele>94.0</ele>
        <time>2019-01-13T21:46:23Z</time>
      </trkpt>
      <trkpt lat="41.880349" lon="3.109503">
        <ele>94.0</ele>
        <time>2019-01-13T21:46:25Z</time>
      </trkpt>
      <trkpt lat="41.880252" lon="3.109571">
        <ele>93.0</ele>
        <time>2019-01-13T21:46:27Z</time>
      </trkpt>
      <trkpt lat="41.880135" lon="3.109609">
        <ele>92.0</ele>
        <time>2019-01-13T21:46:29Z</time>
      </trkpt>
      <trkpt lat="41.880005" lon="3.109628">
        <ele>92.0</ele>
        <time>2019-01-13T21:46:31Z</time>
      </trkpt>
      <trkpt lat="41.879870" lon="3.109615">
        <ele>91.0</ele>
        <time>2019-01-13T21:46:33Z</time>
      </trkpt>
      <trkpt lat="41.879744" lon="3.109640">
        <ele>90.0</ele>
        <time>2019-01-13T21:46:35Z</time>
      </trkpt>
      <trkpt lat="41.879693" lon="3.109765">
        <ele>90.0</ele>
        <time>2019-01-13T21:46:37Z</time>
      </trkpt>
      <trkpt lat="41.879651" lon="3.109903">
        <ele>89.0</ele>
        <time>2019-01-13T21:46:39Z</time>
      </trkpt>
      <trkpt lat="41.879581" lon="3.110003">
        <ele>88.0</ele>
        <time>2019-01-13T21:46:40Z</time>
      </trkpt>
      <trkpt lat="41.879516" lon="3.110115">
        <ele>87.0</ele>
        <time>2019-01-13T21:46:42Z</time>
      </trkpt>
      <trkpt lat="41.879484" lon="3.110265">
        <ele>85.0</ele>
        <time>2019-01-13T21:46:44Z</time>
      </trkpt>
      <trkpt lat="41.879423" lon="3.110390">
        <ele>84.0</ele>
        <time>2019-01-13T21:46:46Z</time>
      </trkpt>
      <trkpt lat="41.879400" lon="3.110559">
        <ele>82.0</ele>
        <time>2019-01-13T21:46:48Z</time>
      </trkpt>
      <trkpt lat="41.879414" lon="3.110734">
        <ele>80.0</ele>
        <time>2019-01-13T21:46:50Z</time>
      </trkpt>
      <trkpt lat="41.879460" lon="3.110878">
        <ele>79.0</ele>
        <time>2019-01-13T21:46:52Z</time>
      </trkpt>
      <trkpt lat="41.879535" lon="3.110978">
        <ele>77.0</ele>
        <time>2019-01-13T21:46:53Z</time>
      </trkpt>
      <trkpt lat="41.879581" lon="3.111109">
        <ele>76.0</ele>
        <time>2019-01-13T21:46:55Z</time>
      </trkpt>
      <trkpt lat="41.879605" lon="3.111284">
        <ele>75.0</ele>
        <time>2019-01-13T21:46:57Z</time>
      </trkpt>
      <trkpt lat="41.879595" lon="3.111466">
        <ele>74.0</ele>
        <time>2019-01-13T21:46:59Z</time>
      </trkpt>
      <trkpt lat="41.879587" lon="3.111643">
        <ele>72.0</ele>
        <time>2019-01-13T21:47:02Z</time>
      </trkpt>
      <trkpt lat="41.879573" lon="3.111927">
        <ele>71.0</ele>
        <time>2019-01-13T21:47:05Z</time>
      </trkpt>
      <trkpt lat="41.879580" lon="3.112221">
        <ele>69.0</ele>
        <time>2019-01-13T21:47:08Z</time>
      </trkpt>
      <trkpt lat="41.879536" lon="3.112467">
        <ele>68.0</ele>
        <time>2019-01-13T21:47:11Z</time>
      </trkpt>
      <trkpt lat="41.879346" lon="3.112515">
        <ele>68.0</ele>
        <time>2019-01-13T21:47:15Z</time>
      </trkpt>
      <trkpt lat="41.879186" lon="3.112427">
        <ele>68.0</ele>
        <time>2019-01-13T21:47:17Z</time>
      </trkpt>
      <trkpt lat="41.878974" lon="3.112408">
        <ele>68.0</ele>
        <time>2019-01-13T21:47:21Z</time>
      </trkpt>
      <trkpt lat="41.878770" lon="3.112437">
        <ele>68.0</ele>
        <time>2019-01-13T21:47:24Z</time>
      </trkpt>
      <trkpt lat="41.878638" lon="3.112565">
        <ele>69.0</ele>
        <time>2019-01-13T21:47:27Z</time>
      </trkpt>
      <trkpt lat="41.878551" lon="3.112751">
        <ele>69.0</ele>
        <time>2019-01-13T21:47:29Z</time>
      </trkpt>
      <trkpt lat="41.878478" lon="3.112957">
        <ele>69.0</ele>
        <time>2019-01-13T21:47:32Z</time>
      </trkpt>
      <trkpt lat="41.878376" lon="3.113123">
        <ele>69.0</ele>
        <time>2019-01-13T21:47:34Z</time>
      </trkpt>
      <trkpt lat="41.878244" lon="3.113260">
        <ele>69.0</ele>
        <time>2019-01-13T21:47:37Z</time>
      </trkpt>
      <trkpt lat="41.878106" lon="3.113378">
        <ele>69.0</ele>
        <time>2019-01-13T21:47:40Z</time>
      </trkpt>
      <trkpt lat="41.878011" lon="3.113554">
        <ele>69.0</ele>
        <time>2019-01-13T21:47:42Z</time>
      </trkpt>
      <trkpt lat="41.877931" lon="3.113760">
        <ele>69.0</ele>
        <time>2019-01-13T21:47:45Z</time>
      </trkpt>
      <trkpt lat="41.877872" lon="3.113986">
        <ele>69.0</ele>
        <time>2019-01-13T21:47:48Z</time>
      </trkpt>
      <trkpt lat="41.877850" lon="3.114260">
        <ele>69.0</ele>
        <time>2019-01-13T21:47:51Z</time>
      </trkpt>
      <trkpt lat="41.877821" lon="3.114525">
        <ele>69.0</ele>
        <time>2019-01-13T21:47:54Z</time>
      </trkpt>
      <trkpt lat="41.877712" lon="3.114691">
        <ele>69.0</ele>
        <time>2019-01-13T21:47:57Z</time>
      </trkpt>
      <trkpt lat="41.877609" lon="3.114868">
        <ele>69.0</ele>
        <time>2019-01-13T21:48:00Z</time>
      </trkpt>
      <trkpt lat="41.877500" lon="3.115034">
        <ele>69.0</ele>
        <time>2019-01-13T21:48:02Z</time>
      </trkpt>
      <trkpt lat="41.877434" lon="3.115260">
        <ele>69.0</ele>
        <time>2019-01-13T21:48:05Z</time>
      </trkpt>
      <trkpt lat="41.877347" lon="3.115446">
        <ele>69.0</ele>
        <time>2019-01-13T21:48:08Z</time>
      </trkpt>
      <trkpt lat="41.877179" lon="3.115534">
        <ele>67.0</ele>
        <time>2019-01-13T21:48:11Z</time>
      </trkpt>
      <trkpt lat="41.876982" lon="3.115583">
        <ele>65.0</ele>
        <time>2019-01-13T21:48:14Z</time>
      </trkpt>
      <trkpt lat="41.876777" lon="3.115622">
        <ele>63.0</ele>
        <time>2019-01-13T21:48:17Z</time>
      </trkpt>
      <trkpt lat="41.876741" lon="3.115877">
        <ele>62.0</ele>
        <time>2019-01-13T21:48:20Z</time>
      </trkpt>
      <trkpt lat="41.876880" lon="3.115995">
        <ele>64.0</ele>
        <time>2019-01-13T21:48:23Z</time>
      </trkpt>
      <trkpt lat="41.876923" lon="3.116240">
        <ele>65.0</ele>
        <time>2019-01-13T21:48:26Z</time>
      </trkpt>
      <trkpt lat="41.876960" lon="3.116495">
        <ele>65.0</ele>
        <time>2019-01-13T21:48:29Z</time>
      </trkpt>
      <trkpt lat="41.877018" lon="3.116720">
        <ele>65.0</ele>
        <time>2019-01-13T21:48:32Z</time>
      </trkpt>
      <trkpt lat="41.877019" lon="3.116992">
        <ele>64.0</ele>
        <time>2019-01-13T21:48:35Z</time>
      </trkpt>
      <trkpt lat="41.876996" lon="3.117162">
        <ele>62.0</ele>
        <time>2019-01-13T21:48:37Z</time>
      </trkpt>
      <trkpt lat="41.876982" lon="3.117344">
        <ele>62.0</ele>
        <time>2019-01-13T21:48:39Z</time>
      </trkpt>
      <trkpt lat="41.876982" lon="3.117540">
        <ele>61.0</ele>
        <time>2019-01-13T21:48:42Z</time>
      </trkpt>
      <trkpt lat="41.876963" lon="3.117710">
        <ele>61.0</ele>
        <time>2019-01-13T21:48:44Z</time>
      </trkpt>
      <trkpt lat="41.876958" lon="3.117905">
        <ele>61.0</ele>
        <time>2019-01-13T21:48:46Z</time>
      </trkpt>
      <trkpt lat="41.876944" lon="3.118101">
        <ele>62.0</ele>
        <time>2019-01-13T21:48:49Z</time>
      </trkpt>
      <trkpt lat="41.876944" lon="3.118302">
        <ele>62.0</ele>
        <time>2019-01-13T21:48:51Z</time>
      </trkpt>
      <trkpt lat="41.876954" lon="3.118497">
        <ele>62.0</ele>
        <time>2019-01-13T21:48:53Z</time>
      </trkpt>
      <trkpt lat="41.876968" lon="3.118686">
        <ele>61.0</ele>
        <time>2019-01-13T21:48:56Z</time>
      </trkpt>
      <trkpt lat="41.876982" lon="3.118875">
        <ele>61.0</ele>
        <time>2019-01-13T21:48:58Z</time>
      </trkpt>
      <trkpt lat="41.876986" lon="3.119077">
        <ele>61.0</ele>
        <time>2019-01-13T21:49:00Z</time>
      </trkpt>
      <trkpt lat="41.877005" lon="3.119247">
        <ele>61.0</ele>
        <time>2019-01-13T21:49:02Z</time>
      </trkpt>
      <trkpt lat="41.877038" lon="3.119398">
        <ele>60.0</ele>
        <time>2019-01-13T21:49:04Z</time>
      </trkpt>
      <trkpt lat="41.877085" lon="3.119537">
        <ele>60.0</ele>
        <time>2019-01-13T21:49:06Z</time>
      </trkpt>
      <trkpt lat="41.877136" lon="3.119669">
        <ele>59.0</ele>
        <time>2019-01-13T21:49:08Z</time>
      </trkpt>
      <trkpt lat="41.877174" lon="3.119814">
        <ele>59.0</ele>
        <time>2019-01-13T21:49:10Z</time>
      </trkpt>
      <trkpt lat="41.877226" lon="3.119953">
        <ele>58.0</ele>
        <time>2019-01-13T21:49:11Z</time>
      </trkpt>
      <trkpt lat="41.877287" lon="3.120079">
        <ele>58.0</ele>
        <time>2019-01-13T21:49:13Z</time>
      </trkpt>
      <trkpt lat="41.877282" lon="3.120274">
        <ele>57.0</ele>
        <time>2019-01-13T21:49:16Z</time>
      </trkpt>
      <trkpt lat="41.877277" lon="3.120469">
        <ele>56.0</ele>
        <time>2019-01-13T21:49:18Z</time>
      </trkpt>
      <trkpt lat="41.877301" lon="3.120640">
        <ele>55.0</ele>
        <time>2019-01-13T21:49:20Z</time>
      </trkpt>
      <trkpt lat="41.877316" lon="3.120798">
        <ele>54.0</ele>
        <time>2019-01-13T21:49:22Z</time>
      </trkpt>
      <trkpt lat="41.877858" lon="3.120897">
        <ele>54.0</ele>
        <time>2019-01-13T21:49:31Z</time>
      </trkpt>
      <trkpt lat="41.878491" lon="3.121128">
        <ele>54.0</ele>
        <time>2019-01-13T21:49:41Z</time>
      </trkpt>
      <trkpt lat="41.879056" lon="3.121218">
        <ele>55.0</ele>
        <time>2019-01-13T21:49:50Z</time>
      </trkpt>
      <trkpt lat="41.879630" lon="3.121514">
        <ele>55.0</ele>
        <time>2019-01-13T21:50:00Z</time>
      </trkpt>
      <trkpt lat="41.880061" lon="3.121861">
        <ele>55.0</ele>
        <time>2019-01-13T21:50:08Z</time>
      </trkpt>
      <trkpt lat="41.880339" lon="3.122106">
        <ele>55.0</ele>
        <time>2019-01-13T21:50:13Z</time>
      </trkpt>
      <trkpt lat="41.880684" lon="3.122299">
        <ele>55.0</ele>
        <time>2019-01-13T21:50:19Z</time>
      </trkpt>
      <trkpt lat="41.880971" lon="3.122453">
        <ele>56.0</ele>
        <time>2019-01-13T21:50:24Z</time>
      </trkpt>
      <trkpt lat="41.881153" lon="3.122453">
        <ele>55.0</ele>
        <time>2019-01-13T21:50:27Z</time>
      </trkpt>
      <trkpt lat="41.881287" lon="3.122865">
        <ele>55.0</ele>
        <time>2019-01-13T21:50:33Z</time>
      </trkpt>
      <trkpt lat="41.881536" lon="3.123058">
        <ele>55.0</ele>
        <time>2019-01-13T21:50:37Z</time>
      </trkpt>
      <trkpt lat="41.881900" lon="3.123482">
        <ele>55.0</ele>
        <time>2019-01-13T21:50:45Z</time>
      </trkpt>
      <trkpt lat="41.882360" lon="3.123932">
        <ele>54.0</ele>
        <time>2019-01-13T21:50:54Z</time>
      </trkpt>
      <trkpt lat="41.882561" lon="3.124215">
        <ele>52.0</ele>
        <time>2019-01-13T21:50:59Z</time>
      </trkpt>
      <trkpt lat="41.882274" lon="3.124396">
        <ele>54.0</ele>
        <time>2019-01-13T21:51:04Z</time>
      </trkpt>
      <trkpt lat="41.881833" lon="3.124704">
        <ele>52.0</ele>
        <time>2019-01-13T21:51:12Z</time>
      </trkpt>
      <trkpt lat="41.881402" lon="3.125077">
        <ele>50.0</ele>
        <time>2019-01-13T21:51:20Z</time>
      </trkpt>
      <trkpt lat="41.880962" lon="3.125386">
        <ele>49.0</ele>
        <time>2019-01-13T21:51:28Z</time>
      </trkpt>
      <trkpt lat="41.880646" lon="3.125656">
        <ele>49.0</ele>
        <time>2019-01-13T21:51:34Z</time>
      </trkpt>
      <trkpt lat="41.880157" lon="3.126081">
        <ele>47.0</ele>
        <time>2019-01-13T21:51:43Z</time>
      </trkpt>
      <trkpt lat="41.879640" lon="3.126557">
        <ele>43.0</ele>
        <time>2019-01-13T21:51:53Z</time>
      </trkpt>
      <trkpt lat="41.879161" lon="3.127084">
        <ele>41.0</ele>
        <time>2019-01-13T21:52:03Z</time>
      </trkpt>
      <trkpt lat="41.878720" lon="3.127805">
        <ele>40.0</ele>
        <time>2019-01-13T21:52:14Z</time>
      </trkpt>
      <trkpt lat="41.878309" lon="3.128383">
        <ele>38.0</ele>
        <time>2019-01-13T21:52:24Z</time>
      </trkpt>
      <trkpt lat="41.877830" lon="3.129014">
        <ele>36.0</ele>
        <time>2019-01-13T21:52:35Z</time>
      </trkpt>
      <trkpt lat="41.877427" lon="3.129554">
        <ele>34.0</ele>
        <time>2019-01-13T21:52:44Z</time>
      </trkpt>
      <trkpt lat="41.877083" lon="3.129991">
        <ele>33.0</ele>
        <time>2019-01-13T21:52:51Z</time>
      </trkpt>
      <trkpt lat="41.876321" lon="3.130771">
        <ele>31.0</ele>
        <time>2019-01-13T21:53:07Z</time>
      </trkpt>
      <trkpt lat="41.875588" lon="3.131393">
        <ele>29.0</ele>
        <time>2019-01-13T21:53:20Z</time>
      </trkpt>
      <trkpt lat="41.875050" lon="3.131795">
        <ele>27.0</ele>
        <time>2019-01-13T21:53:30Z</time>
      </trkpt>
      <trkpt lat="41.874662" lon="3.132878">
        <ele>29.0</ele>
        <time>2019-01-13T21:53:45Z</time>
      </trkpt>
      <trkpt lat="41.874288" lon="3.133802">
        <ele>28.0</ele>
        <time>2019-01-13T21:53:57Z</time>
      </trkpt>
      <trkpt lat="41.873974" lon="3.134785">
        <ele>23.0</ele>
        <time>2019-01-13T21:54:10Z</time>
      </trkpt>
      <trkpt lat="41.873895" lon="3.134902">
        <ele>22.0</ele>
        <time>2019-01-13T21:54:12Z</time>
      </trkpt>
      <trkpt lat="41.873835" lon="3.135055">
        <ele>21.0</ele>
        <time>2019-01-13T21:54:14Z</time>
      </trkpt>
      <trkpt lat="41.873770" lon="3.135200">
        <ele>20.0</ele>
        <time>2019-01-13T21:54:16Z</time>
      </trkpt>
      <trkpt lat="41.873716" lon="3.135353">
        <ele>19.0</ele>
        <time>2019-01-13T21:54:18Z</time>
      </trkpt>
      <trkpt lat="41.873689" lon="3.135542">
        <ele>18.0</ele>
        <time>2019-01-13T21:54:20Z</time>
      </trkpt>
      <trkpt lat="41.873629" lon="3.135687">
        <ele>17.0</ele>
        <time>2019-01-13T21:54:22Z</time>
      </trkpt>
      <trkpt lat="41.873510" lon="3.135767">
        <ele>17.0</ele>
        <time>2019-01-13T21:54:24Z</time>
      </trkpt>
      <trkpt lat="41.873478" lon="3.135949">
        <ele>17.0</ele>
        <time>2019-01-13T21:54:27Z</time>
      </trkpt>
      <trkpt lat="41.873554" lon="3.136073">
        <ele>17.0</ele>
        <time>2019-01-13T21:54:28Z</time>
      </trkpt>
      <trkpt lat="41.873705" lon="3.136044">
        <ele>17.0</ele>
        <time>2019-01-13T21:54:31Z</time>
      </trkpt>
      <trkpt lat="41.873792" lon="3.135935">
        <ele>17.0</ele>
        <time>2019-01-13T21:54:33Z</time>
      </trkpt>
      <trkpt lat="41.873933" lon="3.135978">
        <ele>17.0</ele>
        <time>2019-01-13T21:54:35Z</time>
      </trkpt>
      <trkpt lat="41.874073" lon="3.136014">
        <ele>17.0</ele>
        <time>2019-01-13T21:54:37Z</time>
      </trkpt>
      <trkpt lat="41.874193" lon="3.136094">
        <ele>17.0</ele>
        <time>2019-01-13T21:54:40Z</time>
      </trkpt>
      <trkpt lat="41.874295" lon="3.136182">
        <ele>17.0</ele>
        <time>2019-01-13T21:54:42Z</time>
      </trkpt>
      <trkpt lat="41.874414" lon="3.136262">
        <ele>17.0</ele>
        <time>2019-01-13T21:54:44Z</time>
      </trkpt>
      <trkpt lat="41.874528" lon="3.136349">
        <ele>17.0</ele>
        <time>2019-01-13T21:54:46Z</time>
      </trkpt>
      <trkpt lat="41.874626" lon="3.136451">
        <ele>17.0</ele>
        <time>2019-01-13T21:54:48Z</time>
      </trkpt>
      <trkpt lat="41.874798" lon="3.136624">
        <ele>17.0</ele>
        <time>2019-01-13T21:54:51Z</time>
      </trkpt>
      <trkpt lat="41.874830" lon="3.136658">
        <ele>17.0</ele>
        <time>2019-01-13T21:54:52Z</time>
      </trkpt>
      <trkpt lat="41.874898" lon="3.136716">
        <ele>17.0</ele>
        <time>2019-01-13T21:54:53Z</time>
      </trkpt>
      <trkpt lat="41.874974" lon="3.136769">
        <ele>17.0</ele>
        <time>2019-01-13T21:54:54Z</time>
      </trkpt>
      <trkpt lat="41.875056" lon="3.136813">
        <ele>17.0</ele>
        <time>2019-01-13T21:54:56Z</time>
      </trkpt>
      <trkpt lat="41.875132" lon="3.136871">
        <ele>17.0</ele>
        <time>2019-01-13T21:54:57Z</time>
      </trkpt>
      <trkpt lat="41.875193" lon="3.136948">
        <ele>17.0</ele>
        <time>2019-01-13T21:54:59Z</time>
      </trkpt>
      <trkpt lat="41.875247" lon="3.137030">
        <ele>18.0</ele>
        <time>2019-01-13T21:55:00Z</time>
      </trkpt>
      <trkpt lat="41.875293" lon="3.137117">
        <ele>18.0</ele>
        <time>2019-01-13T21:55:01Z</time>
      </trkpt>
      <trkpt lat="41.875290" lon="3.137117">
        <ele>18.0</ele>
        <time>2019-01-13T21:55:01Z</time>
      </trkpt>
      <trkpt lat="41.875340" lon="3.137199">
        <ele>18.0</ele>
        <time>2019-01-13T21:55:03Z</time>
      </trkpt>
      <trkpt lat="41.875398" lon="3.137271">
        <ele>18.0</ele>
        <time>2019-01-13T21:55:04Z</time>
      </trkpt>
      <trkpt lat="41.875462" lon="3.137334">
        <ele>18.0</ele>
        <time>2019-01-13T21:55:05Z</time>
      </trkpt>
      <trkpt lat="41.875538" lon="3.137382">
        <ele>18.0</ele>
        <time>2019-01-13T21:55:06Z</time>
      </trkpt>
      <trkpt lat="41.875610" lon="3.137435">
        <ele>18.0</ele>
        <time>2019-01-13T21:55:08Z</time>
      </trkpt>
      <trkpt lat="41.875682" lon="3.137493">
        <ele>18.0</ele>
        <time>2019-01-13T21:55:09Z</time>
      </trkpt>
      <trkpt lat="41.875743" lon="3.137561">
        <ele>18.0</ele>
        <time>2019-01-13T21:55:10Z</time>
      </trkpt>
      <trkpt lat="41.875807" lon="3.137643">
        <ele>18.0</ele>
        <time>2019-01-13T21:55:12Z</time>
      </trkpt>
      <trkpt lat="41.875872" lon="3.137711">
        <ele>18.0</ele>
        <time>2019-01-13T21:55:13Z</time>
      </trkpt>
      <trkpt lat="41.875940" lon="3.137783">
        <ele>19.0</ele>
        <time>2019-01-13T21:55:14Z</time>
      </trkpt>
      <trkpt lat="41.875994" lon="3.137860">
        <ele>19.0</ele>
        <time>2019-01-13T21:55:16Z</time>
      </trkpt>
      <trkpt lat="41.876055" lon="3.137928">
        <ele>19.0</ele>
        <time>2019-01-13T21:55:17Z</time>
      </trkpt>
      <trkpt lat="41.876138" lon="3.137971">
        <ele>19.0</ele>
        <time>2019-01-13T21:55:18Z</time>
      </trkpt>
      <trkpt lat="41.876217" lon="3.138024">
        <ele>19.0</ele>
        <time>2019-01-13T21:55:20Z</time>
      </trkpt>
      <trkpt lat="41.876307" lon="3.138058">
        <ele>19.0</ele>
        <time>2019-01-13T21:55:21Z</time>
      </trkpt>
      <trkpt lat="41.876386" lon="3.138102">
        <ele>20.0</ele>
        <time>2019-01-13T21:55:23Z</time>
      </trkpt>
      <trkpt lat="41.876411" lon="3.138217">
        <ele>20.0</ele>
        <time>2019-01-13T21:55:24Z</time>
      </trkpt>
      <trkpt lat="41.876426" lon="3.138348">
        <ele>20.0</ele>
        <time>2019-01-13T21:55:26Z</time>
      </trkpt>
      <trkpt lat="41.876476" lon="3.138430">
        <ele>20.0</ele>
        <time>2019-01-13T21:55:27Z</time>
      </trkpt>
      <trkpt lat="41.876559" lon="3.138468">
        <ele>20.0</ele>
        <time>2019-01-13T21:55:28Z</time>
      </trkpt>
      <trkpt lat="41.876548" lon="3.138603">
        <ele>19.0</ele>
        <time>2019-01-13T21:55:30Z</time>
      </trkpt>
      <trkpt lat="41.876530" lon="3.138729">
        <ele>18.0</ele>
        <time>2019-01-13T21:55:32Z</time>
      </trkpt>
      <trkpt lat="41.876530" lon="3.138724">
        <ele>18.0</ele>
        <time>2019-01-13T21:55:32Z</time>
      </trkpt>
      <trkpt lat="41.876281" lon="3.141296">
        <ele>20.0</ele>
        <time>2019-01-13T21:56:02Z</time>
      </trkpt>
      <trkpt lat="41.876253" lon="3.142524">
        <ele>20.0</ele>
        <time>2019-01-13T21:56:17Z</time>
      </trkpt>
      <trkpt lat="41.876168" lon="3.143544">
        <ele>18.0</ele>
        <time>2019-01-13T21:56:29Z</time>
      </trkpt>
      <trkpt lat="41.875434" lon="3.144391">
        <ele>18.0</ele>
        <time>2019-01-13T21:56:45Z</time>
      </trkpt>
      <trkpt lat="41.875010" lon="3.145577">
        <ele>19.0</ele>
        <time>2019-01-13T21:57:01Z</time>
      </trkpt>
      <trkpt lat="41.874479" lon="3.146446">
        <ele>19.0</ele>
        <time>2019-01-13T21:57:14Z</time>
      </trkpt>
      <trkpt lat="41.874807" lon="3.147358">
        <ele>20.0</ele>
        <time>2019-01-13T21:57:26Z</time>
      </trkpt>
      <trkpt lat="41.875808" lon="3.147122">
        <ele>21.0</ele>
        <time>2019-01-13T21:57:42Z</time>
      </trkpt>
      <trkpt lat="41.878013" lon="3.147186">
        <ele>22.0</ele>
        <time>2019-01-13T21:58:18Z</time>
      </trkpt>
      <trkpt lat="41.880226" lon="3.147122">
        <ele>23.0</ele>
        <time>2019-01-13T21:58:53Z</time>
      </trkpt>
      <trkpt lat="41.882007" lon="3.147583">
        <ele>25.0</ele>
        <time>2019-01-13T21:59:22Z</time>
      </trkpt>
      <trkpt lat="41.883940" lon="3.147197">
        <ele>27.0</ele>
        <time>2019-01-13T21:59:53Z</time>
      </trkpt>
      <trkpt lat="41.885330" lon="3.147197">
        <ele>28.0</ele>
        <time>2019-01-13T22:00:16Z</time>
      </trkpt>
      <trkpt lat="41.886145" lon="3.148119">
        <ele>29.0</ele>
        <time>2019-01-13T22:00:33Z</time>
      </trkpt>
      <trkpt lat="41.888038" lon="3.146564">
        <ele>31.0</ele>
        <time>2019-01-13T22:01:08Z</time>
      </trkpt>
      <trkpt lat="41.888948" lon="3.145469">
        <ele>31.0</ele>
        <time>2019-01-13T22:01:28Z</time>
      </trkpt>
      <trkpt lat="41.891073" lon="3.144557">
        <ele>38.0</ele>
        <time>2019-01-13T22:02:04Z</time>
      </trkpt>
      <trkpt lat="41.892335" lon="3.143828">
        <ele>40.0</ele>
        <time>2019-01-13T22:02:26Z</time>
      </trkpt>
      <trkpt lat="41.892977" lon="3.143981">
        <ele>42.0</ele>
        <time>2019-01-13T22:02:36Z</time>
      </trkpt>
      <trkpt lat="41.895154" lon="3.144407">
        <ele>47.0</ele>
        <time>2019-01-13T22:03:11Z</time>
      </trkpt>
      <trkpt lat="41.897334" lon="3.144869">
        <ele>45.0</ele>
        <time>2019-01-13T22:03:47Z</time>
      </trkpt>
      <trkpt lat="41.897462" lon="3.145212">
        <ele>45.0</ele>
        <time>2019-01-13T22:03:51Z</time>
      </trkpt>
      <trkpt lat="41.896947" lon="3.146510">
        <ele>46.0</ele>
        <time>2019-01-13T22:04:09Z</time>
      </trkpt>
      <trkpt lat="41.897274" lon="3.147792">
        <ele>44.0</ele>
        <time>2019-01-13T22:04:25Z</time>
      </trkpt>
      <trkpt lat="41.898127" lon="3.147792">
        <ele>42.0</ele>
        <time>2019-01-13T22:04:38Z</time>
      </trkpt>
      <trkpt lat="41.899474" lon="3.150147">
        <ele>38.0</ele>
        <time>2019-01-13T22:05:14Z</time>
      </trkpt>
      <trkpt lat="41.899893" lon="3.150877">
        <ele>38.0</ele>
        <time>2019-01-13T22:05:25Z</time>
      </trkpt>
      <trkpt lat="41.900221" lon="3.150689">
        <ele>38.0</ele>
        <time>2019-01-13T22:05:31Z</time>
      </trkpt>
      <trkpt lat="41.900424" lon="3.150973">
        <ele>39.0</ele>
        <time>2019-01-13T22:05:35Z</time>
      </trkpt>
      <trkpt lat="41.902493" lon="3.151939">
        <ele>40.0</ele>
        <time>2019-01-13T22:06:10Z</time>
      </trkpt>
      <trkpt lat="41.904385" lon="3.152422">
        <ele>41.0</ele>
        <time>2019-01-13T22:06:41Z</time>
      </trkpt>
      <trkpt lat="41.904377" lon="3.153076">
        <ele>41.0</ele>
        <time>2019-01-13T22:06:49Z</time>
      </trkpt>
      <trkpt lat="41.905056" lon="3.153988">
        <ele>41.0</ele>
        <time>2019-01-13T22:07:04Z</time>
      </trkpt>
      <trkpt lat="41.905810" lon="3.154036">
        <ele>41.0</ele>
        <time>2019-01-13T22:07:16Z</time>
      </trkpt>
      <trkpt lat="41.906852" lon="3.154664">
        <ele>40.0</ele>
        <time>2019-01-13T22:07:35Z</time>
      </trkpt>
      <trkpt lat="41.907316" lon="3.155233">
        <ele>40.0</ele>
        <time>2019-01-13T22:07:45Z</time>
      </trkpt>
      <trkpt lat="41.908721" lon="3.155447">
        <ele>42.0</ele>
        <time>2019-01-13T22:08:07Z</time>
      </trkpt>
      <trkpt lat="41.909934" lon="3.155243">
        <ele>45.0</ele>
        <time>2019-01-13T22:08:27Z</time>
      </trkpt>
      <trkpt lat="41.910589" lon="3.155876">
        <ele>45.0</ele>
        <time>2019-01-13T22:08:40Z</time>
      </trkpt>
      <trkpt lat="41.910278" lon="3.158752">
        <ele>40.0</ele>
        <time>2019-01-13T22:09:14Z</time>
      </trkpt>
      <trkpt lat="41.909903" lon="3.161595">
        <ele>39.0</ele>
        <time>2019-01-13T22:09:49Z</time>
      </trkpt>
      <trkpt lat="41.909336" lon="3.164406">
        <ele>38.0</ele>
        <time>2019-01-13T22:10:24Z</time>
      </trkpt>
      <trkpt lat="41.909408" lon="3.165393">
        <ele>39.0</ele>
        <time>2019-01-13T22:10:35Z</time>
      </trkpt>
      <trkpt lat="41.910773" lon="3.167700">
        <ele>43.0</ele>
        <time>2019-01-13T22:11:11Z</time>
      </trkpt>
      <trkpt lat="41.912090" lon="3.169727">
        <ele>44.0</ele>
        <time>2019-01-13T22:11:43Z</time>
      </trkpt>
      <trkpt lat="41.912749" lon="3.170596">
        <ele>49.0</ele>
        <time>2019-01-13T22:11:57Z</time>
      </trkpt>
      <trkpt lat="41.914398" lon="3.171229">
        <ele>56.0</ele>
        <time>2019-01-13T22:12:25Z</time>
      </trkpt>
      <trkpt lat="41.915451" lon="3.171476">
        <ele>58.0</ele>
        <time>2019-01-13T22:12:42Z</time>
      </trkpt>
      <trkpt lat="41.914525" lon="3.174126">
        <ele>57.0</ele>
        <time>2019-01-13T22:13:17Z</time>
      </trkpt>
      <trkpt lat="41.913328" lon="3.176605">
        <ele>59.0</ele>
        <time>2019-01-13T22:13:52Z</time>
      </trkpt>
      <trkpt lat="41.912426" lon="3.179265">
        <ele>58.0</ele>
        <time>2019-01-13T22:14:27Z</time>
      </trkpt>
      <trkpt lat="41.911523" lon="3.181776">
        <ele>60.0</ele>
        <time>2019-01-13T22:15:00Z</time>
      </trkpt>
      <trkpt lat="41.911044" lon="3.183331">
        <ele>66.0</ele>
        <time>2019-01-13T22:15:20Z</time>
      </trkpt>
      <trkpt lat="41.910597" lon="3.186196">
        <ele>70.0</ele>
        <time>2019-01-13T22:15:55Z</time>
      </trkpt>
      <trkpt lat="41.910094" lon="3.188986">
        <ele>72.0</ele>
        <time>2019-01-13T22:16:29Z</time>
      </trkpt>
      <trkpt lat="41.909583" lon="3.191807">
        <ele>73.0</ele>
        <time>2019-01-13T22:17:04Z</time>
      </trkpt>
      <trkpt lat="41.908889" lon="3.194532">
        <ele>78.0</ele>
        <time>2019-01-13T22:17:38Z</time>
      </trkpt>
      <trkpt lat="41.908729" lon="3.195938">
        <ele>81.0</ele>
        <time>2019-01-13T22:17:55Z</time>
      </trkpt>
      <trkpt lat="41.907819" lon="3.197622">
        <ele>86.0</ele>
        <time>2019-01-13T22:18:20Z</time>
      </trkpt>
      <trkpt lat="41.907763" lon="3.198459">
        <ele>88.0</ele>
        <time>2019-01-13T22:18:30Z</time>
      </trkpt>
      <trkpt lat="41.908026" lon="3.200090">
        <ele>98.0</ele>
        <time>2019-01-13T22:18:50Z</time>
      </trkpt>
      <trkpt lat="41.907787" lon="3.201656">
        <ele>104.0</ele>
        <time>2019-01-13T22:19:09Z</time>
      </trkpt>
      <trkpt lat="41.908154" lon="3.203169">
        <ele>110.0</ele>
        <time>2019-01-13T22:19:28Z</time>
      </trkpt>
      <trkpt lat="41.908920" lon="3.204274">
        <ele>112.0</ele>
        <time>2019-01-13T22:19:46Z</time>
      </trkpt>
      <trkpt lat="41.908849" lon="3.205036">
        <ele>107.0</ele>
        <time>2019-01-13T22:19:55Z</time>
      </trkpt>
      <trkpt lat="41.909120" lon="3.205991">
        <ele>101.0</ele>
        <time>2019-01-13T22:20:07Z</time>
      </trkpt>
      <trkpt lat="41.909711" lon="3.206023">
        <ele>95.0</ele>
        <time>2019-01-13T22:20:17Z</time>
      </trkpt>
      <trkpt lat="41.910142" lon="3.206356">
        <ele>93.0</ele>
        <time>2019-01-13T22:20:25Z</time>
      </trkpt>
      <trkpt lat="41.910645" lon="3.205830">
        <ele>89.0</ele>
        <time>2019-01-13T22:20:35Z</time>
      </trkpt>
      <trkpt lat="41.911180" lon="3.206527">
        <ele>84.0</ele>
        <time>2019-01-13T22:20:47Z</time>
      </trkpt>
      <trkpt lat="41.912226" lon="3.205336">
        <ele>85.0</ele>
        <time>2019-01-13T22:21:09Z</time>
      </trkpt>
      <trkpt lat="41.912929" lon="3.205991">
        <ele>77.0</ele>
        <time>2019-01-13T22:21:22Z</time>
      </trkpt>
      <trkpt lat="41.913823" lon="3.205304">
        <ele>67.0</ele>
        <time>2019-01-13T22:21:39Z</time>
      </trkpt>
      <trkpt lat="41.914198" lon="3.205690">
        <ele>58.0</ele>
        <time>2019-01-13T22:21:46Z</time>
      </trkpt>
      <trkpt lat="41.914621" lon="3.206667">
        <ele>50.0</ele>
        <time>2019-01-13T22:22:00Z</time>
      </trkpt>
      <trkpt lat="41.915475" lon="3.207300">
        <ele>44.0</ele>
        <time>2019-01-13T22:22:15Z</time>
      </trkpt>
      <trkpt lat="41.916761" lon="3.206377">
        <ele>35.0</ele>
        <time>2019-01-13T22:22:39Z</time>
      </trkpt>
      <trkpt lat="41.917543" lon="3.206120">
        <ele>29.0</ele>
        <time>2019-01-13T22:22:52Z</time>
      </trkpt>
      <trkpt lat="41.918086" lon="3.204811">
        <ele>29.0</ele>
        <time>2019-01-13T22:23:10Z</time>
      </trkpt>
      <trkpt lat="41.918437" lon="3.204854">
        <ele>28.0</ele>
        <time>2019-01-13T22:23:15Z</time>
      </trkpt>
      <trkpt lat="41.918405" lon="3.205251">
        <ele>27.0</ele>
        <time>2019-01-13T22:23:20Z</time>
      </trkpt>
      <trkpt lat="41.918174" lon="3.206130">
        <ele>24.0</ele>
        <time>2019-01-13T22:23:31Z</time>
      </trkpt>
      <trkpt lat="41.918381" lon="3.206677">
        <ele>16.0</ele>
        <time>2019-01-13T22:23:38Z</time>
      </trkpt>
      <trkpt lat="41.918725" lon="3.206511">
        <ele>15.0</ele>
        <time>2019-01-13T22:23:44Z</time>
      </trkpt>
      <trkpt lat="41.919415" lon="3.206635">
        <ele>23.0</ele>
        <time>2019-01-13T22:23:55Z</time>
      </trkpt>
      <trkpt lat="41.919557" lon="3.206887">
        <ele>25.0</ele>
        <time>2019-01-13T22:23:59Z</time>
      </trkpt>
      <trkpt lat="41.920259" lon="3.206586">
        <ele>31.0</ele>
        <time>2019-01-13T22:24:11Z</time>
      </trkpt>
      <trkpt lat="41.922253" lon="3.205336">
        <ele>48.0</ele>
        <time>2019-01-13T22:24:46Z</time>
      </trkpt>
      <trkpt lat="41.923147" lon="3.205626">
        <ele>54.0</ele>
        <time>2019-01-13T22:25:01Z</time>
      </trkpt>
      <trkpt lat="41.923770" lon="3.207750">
        <ele>85.0</ele>
        <time>2019-01-13T22:25:28Z</time>
      </trkpt>
      <trkpt lat="41.924852" lon="3.207235">
        <ele>93.0</ele>
        <time>2019-01-13T22:25:46Z</time>
      </trkpt>
      <trkpt lat="41.925031" lon="3.207541">
        <ele>95.0</ele>
        <time>2019-01-13T22:25:51Z</time>
      </trkpt>
      <trkpt lat="41.924871" lon="3.208362">
        <ele>102.0</ele>
        <time>2019-01-13T22:26:01Z</time>
      </trkpt>
      <trkpt lat="41.924995" lon="3.208834">
        <ele>108.0</ele>
        <time>2019-01-13T22:26:07Z</time>
      </trkpt>
      <trkpt lat="41.925470" lon="3.209097">
        <ele>112.0</ele>
        <time>2019-01-13T22:26:15Z</time>
      </trkpt>
      <trkpt lat="41.925973" lon="3.208587">
        <ele>113.0</ele>
        <time>2019-01-13T22:26:26Z</time>
      </trkpt>
      <trkpt lat="41.926260" lon="3.208555">
        <ele>113.0</ele>
        <time>2019-01-13T22:26:30Z</time>
      </trkpt>
      <trkpt lat="41.926336" lon="3.208979">
        <ele>113.0</ele>
        <time>2019-01-13T22:26:35Z</time>
      </trkpt>
      <trkpt lat="41.926125" lon="3.210159">
        <ele>124.0</ele>
        <time>2019-01-13T22:26:50Z</time>
      </trkpt>
      <trkpt lat="41.926392" lon="3.210776">
        <ele>127.0</ele>
        <time>2019-01-13T22:26:58Z</time>
      </trkpt>
      <trkpt lat="41.926468" lon="3.211285">
        <ele>128.0</ele>
        <time>2019-01-13T22:27:04Z</time>
      </trkpt>
      <trkpt lat="41.926879" lon="3.211645">
        <ele>130.0</ele>
        <time>2019-01-13T22:27:12Z</time>
      </trkpt>
      <trkpt lat="41.927015" lon="3.212433">
        <ele>134.0</ele>
        <time>2019-01-13T22:27:22Z</time>
      </trkpt>
      <trkpt lat="41.927410" lon="3.212734">
        <ele>132.0</ele>
        <time>2019-01-13T22:27:29Z</time>
      </trkpt>
      <trkpt lat="41.927701" lon="3.212326">
        <ele>134.0</ele>
        <time>2019-01-13T22:27:36Z</time>
      </trkpt>
      <trkpt lat="41.927949" lon="3.211226">
        <ele>134.0</ele>
        <time>2019-01-13T22:27:50Z</time>
      </trkpt>
      <trkpt lat="41.928164" lon="3.210336">
        <ele>133.0</ele>
        <time>2019-01-13T22:28:01Z</time>
      </trkpt>
      <trkpt lat="41.928755" lon="3.210277">
        <ele>128.0</ele>
        <time>2019-01-13T22:28:10Z</time>
      </trkpt>
      <trkpt lat="41.929090" lon="3.209483">
        <ele>120.0</ele>
        <time>2019-01-13T22:28:21Z</time>
      </trkpt>
      <trkpt lat="41.929429" lon="3.209708">
        <ele>115.0</ele>
        <time>2019-01-13T22:28:27Z</time>
      </trkpt>
      <trkpt lat="41.929816" lon="3.211527">
        <ele>91.0</ele>
        <time>2019-01-13T22:28:50Z</time>
      </trkpt>
      <trkpt lat="41.930172" lon="3.212342">
        <ele>77.0</ele>
        <time>2019-01-13T22:29:01Z</time>
      </trkpt>
      <trkpt lat="41.931517" lon="3.212965">
        <ele>63.0</ele>
        <time>2019-01-13T22:29:24Z</time>
      </trkpt>
      <trkpt lat="41.932175" lon="3.213823">
        <ele>50.0</ele>
        <time>2019-01-13T22:29:38Z</time>
      </trkpt>
      <trkpt lat="41.934218" lon="3.214982">
        <ele>35.0</ele>
        <time>2019-01-13T22:30:14Z</time>
      </trkpt>
      <trkpt lat="41.934817" lon="3.214681">
        <ele>35.0</ele>
        <time>2019-01-13T22:30:24Z</time>
      </trkpt>
      <trkpt lat="41.934673" lon="3.213769">
        <ele>41.0</ele>
        <time>2019-01-13T22:30:35Z</time>
      </trkpt>
      <trkpt lat="41.934937" lon="3.212632">
        <ele>48.0</ele>
        <time>2019-01-13T22:30:50Z</time>
      </trkpt>
      <trkpt lat="41.935415" lon="3.212074">
        <ele>54.0</ele>
        <time>2019-01-13T22:31:00Z</time>
      </trkpt>
      <trkpt lat="41.935575" lon="3.211119">
        <ele>59.0</ele>
        <time>2019-01-13T22:31:11Z</time>
      </trkpt>
      <trkpt lat="41.936014" lon="3.210647">
        <ele>61.0</ele>
        <time>2019-01-13T22:31:20Z</time>
      </trkpt>
      <trkpt lat="41.936102" lon="3.209767">
        <ele>62.0</ele>
        <time>2019-01-13T22:31:31Z</time>
      </trkpt>
      <trkpt lat="41.936549" lon="3.209521">
        <ele>61.0</ele>
        <time>2019-01-13T22:31:39Z</time>
      </trkpt>
      <trkpt lat="41.936916" lon="3.210003">
        <ele>60.0</ele>
        <time>2019-01-13T22:31:47Z</time>
      </trkpt>
      <trkpt lat="41.938472" lon="3.209864">
        <ele>66.0</ele>
        <time>2019-01-13T22:32:12Z</time>
      </trkpt>
      <trkpt lat="41.939438" lon="3.209392">
        <ele>74.0</ele>
        <time>2019-01-13T22:32:28Z</time>
      </trkpt>
      <trkpt lat="41.940252" lon="3.209349">
        <ele>82.0</ele>
        <time>2019-01-13T22:32:41Z</time>
      </trkpt>
      <trkpt lat="41.940826" lon="3.208737">
        <ele>88.0</ele>
        <time>2019-01-13T22:32:53Z</time>
      </trkpt>
      <trkpt lat="41.941257" lon="3.209065">
        <ele>87.0</ele>
        <time>2019-01-13T22:33:01Z</time>
      </trkpt>
      <trkpt lat="41.941944" lon="3.210357">
        <ele>88.0</ele>
        <time>2019-01-13T22:33:20Z</time>
      </trkpt>
      <trkpt lat="41.943213" lon="3.212074">
        <ele>98.0</ele>
        <time>2019-01-13T22:33:49Z</time>
      </trkpt>
      <trkpt lat="41.944234" lon="3.213598">
        <ele>114.0</ele>
        <time>2019-01-13T22:34:13Z</time>
      </trkpt>
      <trkpt lat="41.944082" lon="3.214059">
        <ele>115.0</ele>
        <time>2019-01-13T22:34:19Z</time>
      </trkpt>
      <trkpt lat="41.943516" lon="3.215303">
        <ele>117.0</ele>
        <time>2019-01-13T22:34:36Z</time>
      </trkpt>
      <trkpt lat="41.943731" lon="3.215593">
        <ele>118.0</ele>
        <time>2019-01-13T22:34:41Z</time>
      </trkpt>
      <trkpt lat="41.943955" lon="3.215261">
        <ele>120.0</ele>
        <time>2019-01-13T22:34:47Z</time>
      </trkpt>
      <trkpt lat="41.943979" lon="3.214724">
        <ele>125.0</ele>
        <time>2019-01-13T22:34:53Z</time>
      </trkpt>
      <trkpt lat="41.944434" lon="3.214037">
        <ele>130.0</ele>
        <time>2019-01-13T22:35:04Z</time>
      </trkpt>
      <trkpt lat="41.944785" lon="3.213662">
        <ele>132.0</ele>
        <time>2019-01-13T22:35:11Z</time>
      </trkpt>
      <trkpt lat="41.944609" lon="3.213007">
        <ele>133.0</ele>
        <time>2019-01-13T22:35:20Z</time>
      </trkpt>
      <trkpt lat="41.944729" lon="3.212256">
        <ele>135.0</ele>
        <time>2019-01-13T22:35:29Z</time>
      </trkpt>
      <trkpt lat="41.944146" lon="3.211570">
        <ele>140.0</ele>
        <time>2019-01-13T22:35:41Z</time>
      </trkpt>
      <trkpt lat="41.944154" lon="3.210304">
        <ele>145.0</ele>
        <time>2019-01-13T22:35:56Z</time>
      </trkpt>
      <trkpt lat="41.944082" lon="3.208662">
        <ele>154.0</ele>
        <time>2019-01-13T22:36:16Z</time>
      </trkpt>
      <trkpt lat="41.944138" lon="3.207579">
        <ele>162.0</ele>
        <time>2019-01-13T22:36:29Z</time>
      </trkpt>
      <trkpt lat="41.943532" lon="3.206109">
        <ele>175.0</ele>
        <time>2019-01-13T22:36:49Z</time>
      </trkpt>
      <trkpt lat="41.943061" lon="3.204854">
        <ele>180.0</ele>
        <time>2019-01-13T22:37:05Z</time>
      </trkpt>
      <trkpt lat="41.943229" lon="3.203480">
        <ele>179.0</ele>
        <time>2019-01-13T22:37:22Z</time>
      </trkpt>
      <trkpt lat="41.943508" lon="3.202482">
        <ele>177.0</ele>
        <time>2019-01-13T22:37:35Z</time>
      </trkpt>
      <trkpt lat="41.944362" lon="3.202000">
        <ele>178.0</ele>
        <time>2019-01-13T22:37:50Z</time>
      </trkpt>
      <trkpt lat="41.945591" lon="3.203073">
        <ele>189.0</ele>
        <time>2019-01-13T22:38:13Z</time>
      </trkpt>
      <trkpt lat="41.946181" lon="3.203588">
        <ele>198.0</ele>
        <time>2019-01-13T22:38:24Z</time>
      </trkpt>
      <trkpt lat="41.947266" lon="3.202193">
        <ele>210.0</ele>
        <time>2019-01-13T22:38:48Z</time>
      </trkpt>
      <trkpt lat="41.948160" lon="3.202600">
        <ele>209.0</ele>
        <time>2019-01-13T22:39:03Z</time>
      </trkpt>
      <trkpt lat="41.948543" lon="3.203888">
        <ele>204.0</ele>
        <time>2019-01-13T22:39:20Z</time>
      </trkpt>
      <trkpt lat="41.949525" lon="3.205411">
        <ele>197.0</ele>
        <time>2019-01-13T22:39:44Z</time>
      </trkpt>
      <trkpt lat="41.950610" lon="3.205347">
        <ele>205.0</ele>
        <time>2019-01-13T22:40:01Z</time>
      </trkpt>
      <trkpt lat="41.952261" lon="3.206425">
        <ele>220.0</ele>
        <time>2019-01-13T22:40:31Z</time>
      </trkpt>
      <trkpt lat="41.952134" lon="3.206999">
        <ele>220.0</ele>
        <time>2019-01-13T22:40:38Z</time>
      </trkpt>
      <trkpt lat="41.952660" lon="3.207300">
        <ele>218.0</ele>
        <time>2019-01-13T22:40:47Z</time>
      </trkpt>
      <trkpt lat="41.953231" lon="3.207498">
        <ele>209.0</ele>
        <time>2019-01-13T22:40:56Z</time>
      </trkpt>
      <trkpt lat="41.953718" lon="3.207756">
        <ele>206.0</ele>
        <time>2019-01-13T22:41:05Z</time>
      </trkpt>
      <trkpt lat="41.953658" lon="3.208920">
        <ele>206.0</ele>
        <time>2019-01-13T22:41:19Z</time>
      </trkpt>
      <trkpt lat="41.953514" lon="3.209435">
        <ele>205.0</ele>
        <time>2019-01-13T22:41:25Z</time>
      </trkpt>
      <trkpt lat="41.953351" lon="3.210567">
        <ele>205.0</ele>
        <time>2019-01-13T22:41:39Z</time>
      </trkpt>
      <trkpt lat="41.953805" lon="3.211393">
        <ele>204.0</ele>
        <time>2019-01-13T22:41:51Z</time>
      </trkpt>
      <trkpt lat="41.953941" lon="3.212927">
        <ele>208.0</ele>
        <time>2019-01-13T22:42:10Z</time>
      </trkpt>
      <trkpt lat="41.953666" lon="3.213286">
        <ele>210.0</ele>
        <time>2019-01-13T22:42:16Z</time>
      </trkpt>
      <trkpt lat="41.953514" lon="3.213581">
        <ele>210.0</ele>
        <time>2019-01-13T22:42:20Z</time>
      </trkpt>
      <trkpt lat="41.953562" lon="3.214005">
        <ele>211.0</ele>
        <time>2019-01-13T22:42:25Z</time>
      </trkpt>
      <trkpt lat="41.953023" lon="3.215035">
        <ele>209.0</ele>
        <time>2019-01-13T22:42:40Z</time>
      </trkpt>
      <trkpt lat="41.952980" lon="3.215470">
        <ele>209.0</ele>
        <time>2019-01-13T22:42:45Z</time>
      </trkpt>
      <trkpt lat="41.953275" lon="3.215754">
        <ele>207.0</ele>
        <time>2019-01-13T22:42:51Z</time>
      </trkpt>
      <trkpt lat="41.953869" lon="3.215845">
        <ele>203.0</ele>
        <time>2019-01-13T22:43:01Z</time>
      </trkpt>
      <trkpt lat="41.954895" lon="3.216698">
        <ele>194.0</ele>
        <time>2019-01-13T22:43:20Z</time>
      </trkpt>
      <trkpt lat="41.955134" lon="3.217417">
        <ele>190.0</ele>
        <time>2019-01-13T22:43:29Z</time>
      </trkpt>
      <trkpt lat="41.956004" lon="3.217653">
        <ele>182.0</ele>
        <time>2019-01-13T22:43:44Z</time>
      </trkpt>
      <trkpt lat="41.956103" lon="3.218066">
        <ele>180.0</ele>
        <time>2019-01-13T22:43:49Z</time>
      </trkpt>
      <trkpt lat="41.955824" lon="3.218645">
        <ele>176.0</ele>
        <time>2019-01-13T22:43:57Z</time>
      </trkpt>
      <trkpt lat="41.955848" lon="3.219118">
        <ele>173.0</ele>
        <time>2019-01-13T22:44:03Z</time>
      </trkpt>
      <trkpt lat="41.956347" lon="3.219504">
        <ele>169.0</ele>
        <time>2019-01-13T22:44:12Z</time>
      </trkpt>
      <trkpt lat="41.957093" lon="3.219536">
        <ele>164.0</ele>
        <time>2019-01-13T22:44:24Z</time>
      </trkpt>
      <trkpt lat="41.958082" lon="3.219627">
        <ele>161.0</ele>
        <time>2019-01-13T22:44:40Z</time>
      </trkpt>
      <trkpt lat="41.958876" lon="3.219552">
        <ele>160.0</ele>
        <time>2019-01-13T22:44:52Z</time>
      </trkpt>
      <trkpt lat="41.959295" lon="3.220689">
        <ele>159.0</ele>
        <time>2019-01-13T22:45:08Z</time>
      </trkpt>
      <trkpt lat="41.959067" lon="3.221172">
        <ele>158.0</ele>
        <time>2019-01-13T22:45:14Z</time>
      </trkpt>
      <trkpt lat="41.959095" lon="3.222159">
        <ele>155.0</ele>
        <time>2019-01-13T22:45:26Z</time>
      </trkpt>
      <trkpt lat="41.958812" lon="3.222240">
        <ele>154.0</ele>
        <time>2019-01-13T22:45:31Z</time>
      </trkpt>
      <trkpt lat="41.957875" lon="3.221676">
        <ele>146.0</ele>
        <time>2019-01-13T22:45:47Z</time>
      </trkpt>
      <trkpt lat="41.957635" lon="3.221650">
        <ele>143.0</ele>
        <time>2019-01-13T22:45:51Z</time>
      </trkpt>
      <trkpt lat="41.957631" lon="3.221886">
        <ele>138.0</ele>
        <time>2019-01-13T22:45:54Z</time>
      </trkpt>
      <trkpt lat="41.958090" lon="3.222014">
        <ele>132.0</ele>
        <time>2019-01-13T22:46:01Z</time>
      </trkpt>
      <trkpt lat="41.958597" lon="3.222599">
        <ele>124.0</ele>
        <time>2019-01-13T22:46:12Z</time>
      </trkpt>
      <trkpt lat="41.959079" lon="3.222996">
        <ele>117.0</ele>
        <time>2019-01-13T22:46:21Z</time>
      </trkpt>
      <trkpt lat="41.960356" lon="3.223479">
        <ele>99.0</ele>
        <time>2019-01-13T22:46:42Z</time>
      </trkpt>
      <trkpt lat="41.960328" lon="3.223709">
        <ele>98.0</ele>
        <time>2019-01-13T22:46:45Z</time>
      </trkpt>
      <trkpt lat="41.959662" lon="3.223393">
        <ele>100.0</ele>
        <time>2019-01-13T22:46:56Z</time>
      </trkpt>
      <trkpt lat="41.958628" lon="3.223538">
        <ele>98.0</ele>
        <time>2019-01-13T22:47:13Z</time>
      </trkpt>
      <trkpt lat="41.958341" lon="3.223221">
        <ele>96.0</ele>
        <time>2019-01-13T22:47:19Z</time>
      </trkpt>
      <trkpt lat="41.958190" lon="3.223286">
        <ele>95.0</ele>
        <time>2019-01-13T22:47:22Z</time>
      </trkpt>
      <trkpt lat="41.958261" lon="3.223522">
        <ele>94.0</ele>
        <time>2019-01-13T22:47:25Z</time>
      </trkpt>
      <trkpt lat="41.959063" lon="3.223956">
        <ele>87.0</ele>
        <time>2019-01-13T22:47:38Z</time>
      </trkpt>
      <trkpt lat="41.959745" lon="3.224160">
        <ele>83.0</ele>
        <time>2019-01-13T22:47:50Z</time>
      </trkpt>
      <trkpt lat="41.960116" lon="3.224970">
        <ele>77.0</ele>
        <time>2019-01-13T22:48:01Z</time>
      </trkpt>
      <trkpt lat="41.960846" lon="3.225866">
        <ele>69.0</ele>
        <time>2019-01-13T22:48:17Z</time>
      </trkpt>
      <trkpt lat="41.961181" lon="3.226891">
        <ele>62.0</ele>
        <time>2019-01-13T22:48:30Z</time>
      </trkpt>
      <trkpt lat="41.961588" lon="3.227309">
        <ele>59.0</ele>
        <time>2019-01-13T22:48:38Z</time>
      </trkpt>
      <trkpt lat="41.962354" lon="3.226794">
        <ele>62.0</ele>
        <time>2019-01-13T22:48:52Z</time>
      </trkpt>
      <trkpt lat="41.963088" lon="3.226665">
        <ele>62.0</ele>
        <time>2019-01-13T22:49:04Z</time>
      </trkpt>
      <trkpt lat="41.963519" lon="3.226107">
        <ele>62.0</ele>
        <time>2019-01-13T22:49:13Z</time>
      </trkpt>
      <trkpt lat="41.963136" lon="3.225346">
        <ele>61.0</ele>
        <time>2019-01-13T22:49:24Z</time>
      </trkpt>
      <trkpt lat="41.962681" lon="3.224627">
        <ele>59.0</ele>
        <time>2019-01-13T22:49:36Z</time>
      </trkpt>
      <trkpt lat="41.961868" lon="3.222545">
        <ele>54.0</ele>
        <time>2019-01-13T22:50:04Z</time>
      </trkpt>
      <trkpt lat="41.962099" lon="3.222288">
        <ele>52.0</ele>
        <time>2019-01-13T22:50:08Z</time>
      </trkpt>
      <trkpt lat="41.962953" lon="3.223404">
        <ele>54.0</ele>
        <time>2019-01-13T22:50:28Z</time>
      </trkpt>
      <trkpt lat="41.963543" lon="3.224230">
        <ele>55.0</ele>
        <time>2019-01-13T22:50:41Z</time>
      </trkpt>
      <trkpt lat="41.964452" lon="3.224487">
        <ele>57.0</ele>
        <time>2019-01-13T22:50:56Z</time>
      </trkpt>
      <trkpt lat="41.964883" lon="3.224133">
        <ele>58.0</ele>
        <time>2019-01-13T22:51:04Z</time>
      </trkpt>
      <trkpt lat="41.965761" lon="3.225206">
        <ele>61.0</ele>
        <time>2019-01-13T22:51:23Z</time>
      </trkpt>
      <trkpt lat="41.966120" lon="3.225367">
        <ele>63.0</ele>
        <time>2019-01-13T22:51:29Z</time>
      </trkpt>
      <trkpt lat="41.966367" lon="3.225684">
        <ele>64.0</ele>
        <time>2019-01-13T22:51:35Z</time>
      </trkpt>
      <trkpt lat="41.966411" lon="3.226386">
        <ele>68.0</ele>
        <time>2019-01-13T22:51:43Z</time>
      </trkpt>
      <trkpt lat="41.967077" lon="3.226826">
        <ele>73.0</ele>
        <time>2019-01-13T22:51:55Z</time>
      </trkpt>
      <trkpt lat="41.967855" lon="3.226869">
        <ele>76.0</ele>
        <time>2019-01-13T22:52:07Z</time>
      </trkpt>
      <trkpt lat="41.968493" lon="3.226488">
        <ele>77.0</ele>
        <time>2019-01-13T22:52:19Z</time>
      </trkpt>
      <trkpt lat="41.968800" lon="3.226622">
        <ele>78.0</ele>
        <time>2019-01-13T22:52:24Z</time>
      </trkpt>
      <trkpt lat="41.969207" lon="3.225828">
        <ele>79.0</ele>
        <time>2019-01-13T22:52:35Z</time>
      </trkpt>
      <trkpt lat="41.969741" lon="3.225828">
        <ele>79.0</ele>
        <time>2019-01-13T22:52:44Z</time>
      </trkpt>
      <trkpt lat="41.969917" lon="3.225421">
        <ele>79.0</ele>
        <time>2019-01-13T22:52:49Z</time>
      </trkpt>
      <trkpt lat="41.969813" lon="3.224723">
        <ele>78.0</ele>
        <time>2019-01-13T22:52:58Z</time>
      </trkpt>
      <trkpt lat="41.969996" lon="3.224251">
        <ele>78.0</ele>
        <time>2019-01-13T22:53:04Z</time>
      </trkpt>
      <trkpt lat="41.969645" lon="3.223736">
        <ele>77.0</ele>
        <time>2019-01-13T22:53:12Z</time>
      </trkpt>
      <trkpt lat="41.969893" lon="3.223264">
        <ele>76.0</ele>
        <time>2019-01-13T22:53:19Z</time>
      </trkpt>
      <trkpt lat="41.970651" lon="3.223329">
        <ele>75.0</ele>
        <time>2019-01-13T22:53:32Z</time>
      </trkpt>
      <trkpt lat="41.971289" lon="3.223779">
        <ele>75.0</ele>
        <time>2019-01-13T22:53:43Z</time>
      </trkpt>
      <trkpt lat="41.971512" lon="3.223500">
        <ele>75.0</ele>
        <time>2019-01-13T22:53:48Z</time>
      </trkpt>
      <trkpt lat="41.971337" lon="3.222975">
        <ele>74.0</ele>
        <time>2019-01-13T22:53:55Z</time>
      </trkpt>
      <trkpt lat="41.971392" lon="3.222545">
        <ele>74.0</ele>
        <time>2019-01-13T22:54:00Z</time>
      </trkpt>
      <trkpt lat="41.971648" lon="3.222159">
        <ele>74.0</ele>
        <time>2019-01-13T22:54:06Z</time>
      </trkpt>
      <trkpt lat="41.971648" lon="3.221537">
        <ele>73.0</ele>
        <time>2019-01-13T22:54:14Z</time>
      </trkpt>
      <trkpt lat="41.972932" lon="3.220636">
        <ele>61.0</ele>
        <time>2019-01-13T22:54:37Z</time>
      </trkpt>
      <trkpt lat="41.973004" lon="3.219970">
        <ele>56.0</ele>
        <time>2019-01-13T22:54:45Z</time>
      </trkpt>
      <trkpt lat="41.972621" lon="3.219509">
        <ele>56.0</ele>
        <time>2019-01-13T22:54:53Z</time>
      </trkpt>
      <trkpt lat="41.971496" lon="3.219059">
        <ele>65.0</ele>
        <time>2019-01-13T22:55:12Z</time>
      </trkpt>
      <trkpt lat="41.972525" lon="3.218404">
        <ele>37.0</ele>
        <time>2019-01-13T22:55:30Z</time>
      </trkpt>
      <trkpt lat="41.973067" lon="3.217696">
        <ele>25.0</ele>
        <time>2019-01-13T22:55:42Z</time>
      </trkpt>
      <trkpt lat="41.973052" lon="3.217192">
        <ele>22.0</ele>
        <time>2019-01-13T22:55:48Z</time>
      </trkpt>
      <trkpt lat="41.973187" lon="3.216623">
        <ele>28.0</ele>
        <time>2019-01-13T22:55:55Z</time>
      </trkpt>
      <trkpt lat="41.972669" lon="3.216202">
        <ele>34.0</ele>
        <time>2019-01-13T22:56:05Z</time>
      </trkpt>
      <trkpt lat="41.972724" lon="3.215974">
        <ele>35.0</ele>
        <time>2019-01-13T22:56:08Z</time>
      </trkpt>
      <trkpt lat="41.973056" lon="3.215298">
        <ele>34.0</ele>
        <time>2019-01-13T22:56:17Z</time>
      </trkpt>
      <trkpt lat="41.972940" lon="3.214826">
        <ele>34.0</ele>
        <time>2019-01-13T22:56:23Z</time>
      </trkpt>
      <trkpt lat="41.972545" lon="3.214193">
        <ele>34.0</ele>
        <time>2019-01-13T22:56:33Z</time>
      </trkpt>
      <trkpt lat="41.972641" lon="3.213753">
        <ele>27.0</ele>
        <time>2019-01-13T22:56:39Z</time>
      </trkpt>
      <trkpt lat="41.973040" lon="3.213549">
        <ele>21.0</ele>
        <time>2019-01-13T22:56:45Z</time>
      </trkpt>
      <trkpt lat="41.973020" lon="3.213238">
        <ele>22.0</ele>
        <time>2019-01-13T22:56:49Z</time>
      </trkpt>
      <trkpt lat="41.971592" lon="3.211940">
        <ele>19.0</ele>
        <time>2019-01-13T22:57:17Z</time>
      </trkpt>
      <trkpt lat="41.971799" lon="3.211248">
        <ele>20.0</ele>
        <time>2019-01-13T22:57:26Z</time>
      </trkpt>
      <trkpt lat="41.971520" lon="3.210883">
        <ele>20.0</ele>
        <time>2019-01-13T22:57:32Z</time>
      </trkpt>
      <trkpt lat="41.970611" lon="3.210400">
        <ele>24.0</ele>
        <time>2019-01-13T22:57:48Z</time>
      </trkpt>
      <trkpt lat="41.970619" lon="3.210154">
        <ele>23.0</ele>
        <time>2019-01-13T22:57:50Z</time>
      </trkpt>
      <trkpt lat="41.971408" lon="3.209950">
        <ele>28.0</ele>
        <time>2019-01-13T22:58:03Z</time>
      </trkpt>
      <trkpt lat="41.972182" lon="3.209971">
        <ele>38.0</ele>
        <time>2019-01-13T22:58:16Z</time>
      </trkpt>
      <trkpt lat="41.972581" lon="3.210003">
        <ele>42.0</ele>
        <time>2019-01-13T22:58:22Z</time>
      </trkpt>
      <trkpt lat="41.972760" lon="3.208845">
        <ele>51.0</ele>
        <time>2019-01-13T22:58:36Z</time>
      </trkpt>
      <trkpt lat="41.973020" lon="3.208593">
        <ele>54.0</ele>
        <time>2019-01-13T22:58:41Z</time>
      </trkpt>
      <trkpt lat="41.973171" lon="3.207498">
        <ele>55.0</ele>
        <time>2019-01-13T22:58:55Z</time>
      </trkpt>
      <trkpt lat="41.973454" lon="3.207099">
        <ele>53.0</ele>
        <time>2019-01-13T22:59:01Z</time>
      </trkpt>
      <trkpt lat="41.973747" lon="3.207179">
        <ele>52.0</ele>
        <time>2019-01-13T22:59:06Z</time>
      </trkpt>
      <trkpt lat="41.974017" lon="3.207493">
        <ele>52.0</ele>
        <time>2019-01-13T22:59:12Z</time>
      </trkpt>
      <trkpt lat="41.974053" lon="3.208196">
        <ele>51.0</ele>
        <time>2019-01-13T22:59:20Z</time>
      </trkpt>
      <trkpt lat="41.974276" lon="3.208507">
        <ele>53.0</ele>
        <time>2019-01-13T22:59:25Z</time>
      </trkpt>
      <trkpt lat="41.974846" lon="3.208437">
        <ele>61.0</ele>
        <time>2019-01-13T22:59:34Z</time>
      </trkpt>
      <trkpt lat="41.977008" lon="3.208083">
        <ele>53.0</ele>
        <time>2019-01-13T23:00:09Z</time>
      </trkpt>
      <trkpt lat="41.977789" lon="3.207901">
        <ele>46.0</ele>
        <time>2019-01-13T23:00:22Z</time>
      </trkpt>
      <trkpt lat="41.978563" lon="3.207353">
        <ele>37.0</ele>
        <time>2019-01-13T23:00:36Z</time>
      </trkpt>
      <trkpt lat="41.979002" lon="3.206785">
        <ele>35.0</ele>
        <time>2019-01-13T23:00:46Z</time>
      </trkpt>
      <trkpt lat="41.978762" lon="3.206334">
        <ele>40.0</ele>
        <time>2019-01-13T23:00:52Z</time>
      </trkpt>
      <trkpt lat="41.979751" lon="3.205358">
        <ele>28.0</ele>
        <time>2019-01-13T23:01:12Z</time>
      </trkpt>
      <trkpt lat="41.980023" lon="3.204457">
        <ele>31.0</ele>
        <time>2019-01-13T23:01:23Z</time>
      </trkpt>
      <trkpt lat="41.979536" lon="3.203738">
        <ele>35.0</ele>
        <time>2019-01-13T23:01:35Z</time>
      </trkpt>
      <trkpt lat="41.978858" lon="3.203362">
        <ele>38.0</ele>
        <time>2019-01-13T23:01:47Z</time>
      </trkpt>
      <trkpt lat="41.978794" lon="3.203030">
        <ele>36.0</ele>
        <time>2019-01-13T23:01:51Z</time>
      </trkpt>
      <trkpt lat="41.979201" lon="3.202643">
        <ele>33.0</ele>
        <time>2019-01-13T23:01:59Z</time>
      </trkpt>
      <trkpt lat="41.980310" lon="3.202890">
        <ele>26.0</ele>
        <time>2019-01-13T23:02:17Z</time>
      </trkpt>
      <trkpt lat="41.980605" lon="3.202708">
        <ele>26.0</ele>
        <time>2019-01-13T23:02:22Z</time>
      </trkpt>
      <trkpt lat="41.980645" lon="3.201828">
        <ele>32.0</ele>
        <time>2019-01-13T23:02:33Z</time>
      </trkpt>
      <trkpt lat="41.981378" lon="3.201098">
        <ele>35.0</ele>
        <time>2019-01-13T23:02:47Z</time>
      </trkpt>
      <trkpt lat="41.982224" lon="3.198459">
        <ele>38.0</ele>
        <time>2019-01-13T23:03:21Z</time>
      </trkpt>
      <trkpt lat="41.983213" lon="3.195798">
        <ele>35.0</ele>
        <time>2019-01-13T23:03:57Z</time>
      </trkpt>
      <trkpt lat="41.984186" lon="3.193191">
        <ele>37.0</ele>
        <time>2019-01-13T23:04:31Z</time>
      </trkpt>
      <trkpt lat="41.984999" lon="3.190498">
        <ele>30.0</ele>
        <time>2019-01-13T23:05:06Z</time>
      </trkpt>
      <trkpt lat="41.985637" lon="3.187709">
        <ele>29.0</ele>
        <time>2019-01-13T23:05:41Z</time>
      </trkpt>
      <trkpt lat="41.985573" lon="3.184834">
        <ele>31.0</ele>
        <time>2019-01-13T23:06:15Z</time>
      </trkpt>
      <trkpt lat="41.985573" lon="3.181937">
        <ele>29.0</ele>
        <time>2019-01-13T23:06:50Z</time>
      </trkpt>
      <trkpt lat="41.985302" lon="3.179727">
        <ele>33.0</ele>
        <time>2019-01-13T23:07:16Z</time>
      </trkpt>
      <trkpt lat="41.987328" lon="3.179276">
        <ele>30.0</ele>
        <time>2019-01-13T23:07:49Z</time>
      </trkpt>
      <trkpt lat="41.989369" lon="3.178825">
        <ele>28.0</ele>
        <time>2019-01-13T23:08:22Z</time>
      </trkpt>
      <trkpt lat="41.990215" lon="3.177752">
        <ele>25.0</ele>
        <time>2019-01-13T23:08:41Z</time>
      </trkpt>
      <trkpt lat="41.991506" lon="3.177216">
        <ele>20.0</ele>
        <time>2019-01-13T23:09:02Z</time>
      </trkpt>
      <trkpt lat="41.993277" lon="3.176272">
        <ele>15.0</ele>
        <time>2019-01-13T23:09:33Z</time>
      </trkpt>
      <trkpt lat="41.993388" lon="3.175821">
        <ele>14.0</ele>
        <time>2019-01-13T23:09:39Z</time>
      </trkpt>
      <trkpt lat="41.992958" lon="3.174105">
        <ele>14.0</ele>
        <time>2019-01-13T23:10:00Z</time>
      </trkpt>
      <trkpt lat="41.991618" lon="3.171766">
        <ele>16.0</ele>
        <time>2019-01-13T23:10:35Z</time>
      </trkpt>
      <trkpt lat="41.990390" lon="3.169920">
        <ele>14.0</ele>
        <time>2019-01-13T23:11:05Z</time>
      </trkpt>
      <trkpt lat="41.989593" lon="3.167152">
        <ele>11.0</ele>
        <time>2019-01-13T23:11:40Z</time>
      </trkpt>
      <trkpt lat="41.989481" lon="3.164256">
        <ele>10.0</ele>
        <time>2019-01-13T23:12:15Z</time>
      </trkpt>
      <trkpt lat="41.989002" lon="3.162410">
        <ele>10.0</ele>
        <time>2019-01-13T23:12:38Z</time>
      </trkpt>
      <trkpt lat="41.987742" lon="3.160007">
        <ele>11.0</ele>
        <time>2019-01-13T23:13:13Z</time>
      </trkpt>
      <trkpt lat="41.987073" lon="3.157218">
        <ele>10.0</ele>
        <time>2019-01-13T23:13:48Z</time>
      </trkpt>
      <trkpt lat="41.986562" lon="3.154857">
        <ele>9.0</ele>
        <time>2019-01-13T23:14:17Z</time>
      </trkpt>
      <trkpt lat="41.987519" lon="3.154262">
        <ele>7.0</ele>
        <time>2019-01-13T23:14:34Z</time>
      </trkpt>
      <trkpt lat="41.989529" lon="3.152926">
        <ele>7.0</ele>
        <time>2019-01-13T23:15:10Z</time>
      </trkpt>
      <trkpt lat="41.991522" lon="3.151703">
        <ele>5.0</ele>
        <time>2019-01-13T23:15:45Z</time>
      </trkpt>
      <trkpt lat="41.993548" lon="3.150501">
        <ele>5.0</ele>
        <time>2019-01-13T23:16:20Z</time>
      </trkpt>
      <trkpt lat="41.993994" lon="3.149986">
        <ele>5.0</ele>
        <time>2019-01-13T23:16:30Z</time>
      </trkpt>
      <trkpt lat="41.993516" lon="3.147175">
        <ele>4.0</ele>
        <time>2019-01-13T23:17:04Z</time>
      </trkpt>
      <trkpt lat="41.993069" lon="3.145223">
        <ele>5.0</ele>
        <time>2019-01-13T23:17:28Z</time>
      </trkpt>
      <trkpt lat="41.991762" lon="3.142991">
        <ele>4.0</ele>
        <time>2019-01-13T23:18:02Z</time>
      </trkpt>
      <trkpt lat="41.990789" lon="3.140545">
        <ele>5.0</ele>
        <time>2019-01-13T23:18:35Z</time>
      </trkpt>
      <trkpt lat="41.990518" lon="3.137605">
        <ele>5.0</ele>
        <time>2019-01-13T23:19:10Z</time>
      </trkpt>
      <trkpt lat="41.990151" lon="3.134773">
        <ele>3.0</ele>
        <time>2019-01-13T23:19:45Z</time>
      </trkpt>
      <trkpt lat="41.989018" lon="3.132241">
        <ele>2.0</ele>
        <time>2019-01-13T23:20:20Z</time>
      </trkpt>
      <trkpt lat="41.987934" lon="3.129644">
        <ele>2.0</ele>
        <time>2019-01-13T23:20:55Z</time>
      </trkpt>
      <trkpt lat="41.986833" lon="3.127112">
        <ele>4.0</ele>
        <time>2019-01-13T23:21:30Z</time>
      </trkpt>
      <trkpt lat="41.985733" lon="3.124666">
        <ele>7.0</ele>
        <time>2019-01-13T23:22:04Z</time>
      </trkpt>
      <trkpt lat="41.984616" lon="3.122091">
        <ele>21.0</ele>
        <time>2019-01-13T23:22:40Z</time>
      </trkpt>
      <trkpt lat="41.984241" lon="3.120750">
        <ele>24.0</ele>
        <time>2019-01-13T23:22:57Z</time>
      </trkpt>
      <trkpt lat="41.983915" lon="3.117810">
        <ele>21.0</ele>
        <time>2019-01-13T23:23:32Z</time>
      </trkpt>
      <trkpt lat="41.983572" lon="3.114903">
        <ele>20.0</ele>
        <time>2019-01-13T23:24:07Z</time>
      </trkpt>
      <trkpt lat="41.983157" lon="3.112092">
        <ele>23.0</ele>
        <time>2019-01-13T23:24:41Z</time>
      </trkpt>
      <trkpt lat="41.982519" lon="3.109281">
        <ele>26.0</ele>
        <time>2019-01-13T23:25:16Z</time>
      </trkpt>
      <trkpt lat="41.981793" lon="3.106513">
        <ele>27.0</ele>
        <time>2019-01-13T23:25:51Z</time>
      </trkpt>
      <trkpt lat="41.981107" lon="3.103702">
        <ele>28.0</ele>
        <time>2019-01-13T23:26:26Z</time>
      </trkpt>
      <trkpt lat="41.980437" lon="3.100870">
        <ele>28.0</ele>
        <time>2019-01-13T23:27:02Z</time>
      </trkpt>
      <trkpt lat="41.979751" lon="3.098102">
        <ele>29.0</ele>
        <time>2019-01-13T23:27:37Z</time>
      </trkpt>
      <trkpt lat="41.979751" lon="3.098037">
        <ele>29.0</ele>
        <time>2019-01-13T23:27:37Z</time>
      </trkpt>
      <trkpt lat="41.979050" lon="3.095205">
        <ele>31.0</ele>
        <time>2019-01-13T23:28:13Z</time>
      </trkpt>
      <trkpt lat="41.978443" lon="3.092769">
        <ele>35.0</ele>
        <time>2019-01-13T23:28:43Z</time>
      </trkpt>
      <trkpt lat="41.978212" lon="3.092523">
        <ele>35.0</ele>
        <time>2019-01-13T23:28:48Z</time>
      </trkpt>
      <trkpt lat="41.977606" lon="3.091621">
        <ele>35.0</ele>
        <time>2019-01-13T23:29:03Z</time>
      </trkpt>
      <trkpt lat="41.977151" lon="3.091375">
        <ele>36.0</ele>
        <time>2019-01-13T23:29:10Z</time>
      </trkpt>
      <trkpt lat="41.977183" lon="3.090420">
        <ele>37.0</ele>
        <time>2019-01-13T23:29:22Z</time>
      </trkpt>
      <trkpt lat="41.977191" lon="3.089991">
        <ele>38.0</ele>
        <time>2019-01-13T23:29:27Z</time>
      </trkpt>
      <trkpt lat="41.977765" lon="3.090162">
        <ele>38.0</ele>
        <time>2019-01-13T23:29:36Z</time>
      </trkpt>
      <trkpt lat="41.978069" lon="3.090109">
        <ele>40.0</ele>
        <time>2019-01-13T23:29:41Z</time>
      </trkpt>
      <trkpt lat="41.978164" lon="3.089647">
        <ele>42.0</ele>
        <time>2019-01-13T23:29:47Z</time>
      </trkpt>
      <trkpt lat="41.978356" lon="3.089304">
        <ele>43.0</ele>
        <time>2019-01-13T23:29:52Z</time>
      </trkpt>
      <trkpt lat="41.978667" lon="3.088789">
        <ele>43.0</ele>
        <time>2019-01-13T23:30:00Z</time>
      </trkpt>
      <trkpt lat="41.979265" lon="3.088381">
        <ele>43.0</ele>
        <time>2019-01-13T23:30:11Z</time>
      </trkpt>
      <trkpt lat="41.979656" lon="3.088199">
        <ele>43.0</ele>
        <time>2019-01-13T23:30:17Z</time>
      </trkpt>
      <trkpt lat="41.980517" lon="3.086461">
        <ele>42.0</ele>
        <time>2019-01-13T23:30:42Z</time>
      </trkpt>
      <trkpt lat="41.980868" lon="3.084315">
        <ele>44.0</ele>
        <time>2019-01-13T23:31:08Z</time>
      </trkpt>
      <trkpt lat="41.980980" lon="3.083274">
        <ele>46.0</ele>
        <time>2019-01-13T23:31:21Z</time>
      </trkpt>
      <trkpt lat="41.980294" lon="3.080420">
        <ele>43.0</ele>
        <time>2019-01-13T23:31:57Z</time>
      </trkpt>
      <trkpt lat="41.979568" lon="3.077577">
        <ele>40.0</ele>
        <time>2019-01-13T23:32:32Z</time>
      </trkpt>
      <trkpt lat="41.979265" lon="3.076504">
        <ele>42.0</ele>
        <time>2019-01-13T23:32:46Z</time>
      </trkpt>
      <trkpt lat="41.977965" lon="3.074090">
        <ele>42.0</ele>
        <time>2019-01-13T23:33:21Z</time>
      </trkpt>
      <trkpt lat="41.976641" lon="3.071719">
        <ele>39.0</ele>
        <time>2019-01-13T23:33:57Z</time>
      </trkpt>
      <trkpt lat="41.976019" lon="3.070614">
        <ele>40.0</ele>
        <time>2019-01-13T23:34:13Z</time>
      </trkpt>
      <trkpt lat="41.974168" lon="3.069091">
        <ele>44.0</ele>
        <time>2019-01-13T23:34:48Z</time>
      </trkpt>
      <trkpt lat="41.972230" lon="3.067653">
        <ele>44.0</ele>
        <time>2019-01-13T23:35:23Z</time>
      </trkpt>
      <trkpt lat="41.970331" lon="3.066162">
        <ele>43.0</ele>
        <time>2019-01-13T23:35:59Z</time>
      </trkpt>
      <trkpt lat="41.968409" lon="3.064671">
        <ele>44.0</ele>
        <time>2019-01-13T23:36:34Z</time>
      </trkpt>
      <trkpt lat="41.966495" lon="3.063190">
        <ele>45.0</ele>
        <time>2019-01-13T23:37:10Z</time>
      </trkpt>
      <trkpt lat="41.964556" lon="3.061742">
        <ele>47.0</ele>
        <time>2019-01-13T23:37:45Z</time>
      </trkpt>
      <trkpt lat="41.962617" lon="3.060293">
        <ele>45.0</ele>
        <time>2019-01-13T23:38:21Z</time>
      </trkpt>
      <trkpt lat="41.960783" lon="3.058770">
        <ele>47.0</ele>
        <time>2019-01-13T23:38:55Z</time>
      </trkpt>
      <trkpt lat="41.958836" lon="3.057418">
        <ele>50.0</ele>
        <time>2019-01-13T23:39:30Z</time>
      </trkpt>
      <trkpt lat="41.958230" lon="3.057353">
        <ele>51.0</ele>
        <time>2019-01-13T23:39:40Z</time>
      </trkpt>
      <trkpt lat="41.957910" lon="3.057117">
        <ele>51.0</ele>
        <time>2019-01-13T23:39:46Z</time>
      </trkpt>
      <trkpt lat="41.957208" lon="3.056409">
        <ele>51.0</ele>
        <time>2019-01-13T23:40:00Z</time>
      </trkpt>
      <trkpt lat="41.955565" lon="3.055916">
        <ele>55.0</ele>
        <time>2019-01-13T23:40:27Z</time>
      </trkpt>
      <trkpt lat="41.954336" lon="3.055487">
        <ele>56.0</ele>
        <time>2019-01-13T23:40:47Z</time>
      </trkpt>
      <trkpt lat="41.953490" lon="3.055422">
        <ele>58.0</ele>
        <time>2019-01-13T23:41:01Z</time>
      </trkpt>
      <trkpt lat="41.952341" lon="3.054564">
        <ele>60.0</ele>
        <time>2019-01-13T23:41:22Z</time>
      </trkpt>
      <trkpt lat="41.953586" lon="3.052118">
        <ele>64.0</ele>
        <time>2019-01-13T23:41:57Z</time>
      </trkpt>
      <trkpt lat="41.954575" lon="3.050079">
        <ele>66.0</ele>
        <time>2019-01-13T23:42:26Z</time>
      </trkpt>
      <trkpt lat="41.955772" lon="3.047826">
        <ele>57.0</ele>
        <time>2019-01-13T23:42:59Z</time>
      </trkpt>
      <trkpt lat="41.955006" lon="3.045208">
        <ele>51.0</ele>
        <time>2019-01-13T23:43:32Z</time>
      </trkpt>
      <trkpt lat="41.954320" lon="3.042462">
        <ele>48.0</ele>
        <time>2019-01-13T23:44:07Z</time>
      </trkpt>
      <trkpt lat="41.953961" lon="3.040820">
        <ele>47.0</ele>
        <time>2019-01-13T23:44:27Z</time>
      </trkpt>
      <trkpt lat="41.953853" lon="3.038970">
        <ele>47.0</ele>
        <time>2019-01-13T23:44:49Z</time>
      </trkpt>
      <trkpt lat="41.953941" lon="3.038868">
        <ele>47.0</ele>
        <time>2019-01-13T23:44:51Z</time>
      </trkpt>
      <trkpt lat="41.953777" lon="3.037811">
        <ele>48.0</ele>
        <time>2019-01-13T23:45:04Z</time>
      </trkpt>
      <trkpt lat="41.953510" lon="3.037124">
        <ele>47.0</ele>
        <time>2019-01-13T23:45:13Z</time>
      </trkpt>
      <trkpt lat="41.953339" lon="3.036046">
        <ele>44.0</ele>
        <time>2019-01-13T23:45:27Z</time>
      </trkpt>
      <trkpt lat="41.953159" lon="3.035558">
        <ele>44.0</ele>
        <time>2019-01-13T23:45:33Z</time>
      </trkpt>
      <trkpt lat="41.953012" lon="3.034694">
        <ele>44.0</ele>
        <time>2019-01-13T23:45:44Z</time>
      </trkpt>
      <trkpt lat="41.951855" lon="3.032366">
        <ele>42.0</ele>
        <time>2019-01-13T23:46:17Z</time>
      </trkpt>
      <trkpt lat="41.951272" lon="3.031915">
        <ele>40.0</ele>
        <time>2019-01-13T23:46:28Z</time>
      </trkpt>
      <trkpt lat="41.949261" lon="3.030832">
        <ele>42.0</ele>
        <time>2019-01-13T23:47:02Z</time>
      </trkpt>
      <trkpt lat="41.947250" lon="3.029888">
        <ele>44.0</ele>
        <time>2019-01-13T23:47:36Z</time>
      </trkpt>
      <trkpt lat="41.945176" lon="3.028836">
        <ele>45.0</ele>
        <time>2019-01-13T23:48:12Z</time>
      </trkpt>
      <trkpt lat="41.943292" lon="3.027849">
        <ele>47.0</ele>
        <time>2019-01-13T23:48:44Z</time>
      </trkpt>
      <trkpt lat="41.942167" lon="3.027431">
        <ele>48.0</ele>
        <time>2019-01-13T23:49:03Z</time>
      </trkpt>
      <trkpt lat="41.941393" lon="3.027860">
        <ele>48.0</ele>
        <time>2019-01-13T23:49:16Z</time>
      </trkpt>
      <trkpt lat="41.940611" lon="3.028675">
        <ele>48.0</ele>
        <time>2019-01-13T23:49:32Z</time>
      </trkpt>
      <trkpt lat="41.939342" lon="3.029727">
        <ele>50.0</ele>
        <time>2019-01-13T23:49:56Z</time>
      </trkpt>
      <trkpt lat="41.938065" lon="3.029319">
        <ele>51.0</ele>
        <time>2019-01-13T23:50:17Z</time>
      </trkpt>
      <trkpt lat="41.937514" lon="3.029351">
        <ele>51.0</ele>
        <time>2019-01-13T23:50:26Z</time>
      </trkpt>
      <trkpt lat="41.936182" lon="3.030027">
        <ele>53.0</ele>
        <time>2019-01-13T23:50:49Z</time>
      </trkpt>
      <trkpt lat="41.935455" lon="3.030360">
        <ele>53.0</ele>
        <time>2019-01-13T23:51:01Z</time>
      </trkpt>
      <trkpt lat="41.933803" lon="3.029609">
        <ele>56.0</ele>
        <time>2019-01-13T23:51:29Z</time>
      </trkpt>
      <trkpt lat="41.931744" lon="3.028536">
        <ele>59.0</ele>
        <time>2019-01-13T23:52:04Z</time>
      </trkpt>
      <trkpt lat="41.929876" lon="3.026969">
        <ele>63.0</ele>
        <time>2019-01-13T23:52:40Z</time>
      </trkpt>
      <trkpt lat="41.927985" lon="3.025414">
        <ele>66.0</ele>
        <time>2019-01-13T23:53:15Z</time>
      </trkpt>
      <trkpt lat="41.926085" lon="3.023869">
        <ele>69.0</ele>
        <time>2019-01-13T23:53:51Z</time>
      </trkpt>
      <trkpt lat="41.924233" lon="3.022292">
        <ele>70.0</ele>
        <time>2019-01-13T23:54:26Z</time>
      </trkpt>
      <trkpt lat="41.923890" lon="3.021916">
        <ele>70.0</ele>
        <time>2019-01-13T23:54:33Z</time>
      </trkpt>
      <trkpt lat="41.924001" lon="3.021219">
        <ele>73.0</ele>
        <time>2019-01-13T23:54:41Z</time>
      </trkpt>
      <trkpt lat="41.923690" lon="3.021069">
        <ele>75.0</ele>
        <time>2019-01-13T23:54:47Z</time>
      </trkpt>
      <trkpt lat="41.922469" lon="3.020811">
        <ele>76.0</ele>
        <time>2019-01-13T23:55:06Z</time>
      </trkpt>
      <trkpt lat="41.921319" lon="3.022077">
        <ele>77.0</ele>
        <time>2019-01-13T23:55:30Z</time>
      </trkpt>
      <trkpt lat="41.919659" lon="3.023976">
        <ele>79.0</ele>
        <time>2019-01-13T23:56:05Z</time>
      </trkpt>
      <trkpt lat="41.918948" lon="3.024727">
        <ele>80.0</ele>
        <time>2019-01-13T23:56:20Z</time>
      </trkpt>
      <trkpt lat="41.916769" lon="3.024759">
        <ele>83.0</ele>
        <time>2019-01-13T23:56:54Z</time>
      </trkpt>
      <trkpt lat="41.916234" lon="3.025103">
        <ele>84.0</ele>
        <time>2019-01-13T23:57:04Z</time>
      </trkpt>
      <trkpt lat="41.915922" lon="3.026036">
        <ele>85.0</ele>
        <time>2019-01-13T23:57:16Z</time>
      </trkpt>
      <trkpt lat="41.914917" lon="3.027012">
        <ele>88.0</ele>
        <time>2019-01-13T23:57:36Z</time>
      </trkpt>
      <trkpt lat="41.913903" lon="3.029244">
        <ele>92.0</ele>
        <time>2019-01-13T23:58:07Z</time>
      </trkpt>
      <trkpt lat="41.912146" lon="3.030639">
        <ele>94.0</ele>
        <time>2019-01-13T23:58:40Z</time>
      </trkpt>
      <trkpt lat="41.910829" lon="3.030145">
        <ele>97.0</ele>
        <time>2019-01-13T23:59:02Z</time>
      </trkpt>
      <trkpt lat="41.909296" lon="3.031862">
        <ele>98.0</ele>
        <time>2019-01-13T23:59:34Z</time>
      </trkpt>
      <trkpt lat="41.909096" lon="3.032312">
        <ele>99.0</ele>
        <time>2019-01-13T23:59:40Z</time>
      </trkpt>
      <trkpt lat="41.908489" lon="3.035091">
        <ele>106.0</ele>
        <time>2019-01-14T00:00:14Z</time>
      </trkpt>
      <trkpt lat="41.908242" lon="3.035917">
        <ele>108.0</ele>
        <time>2019-01-14T00:00:25Z</time>
      </trkpt>
      <trkpt lat="41.907044" lon="3.036529">
        <ele>112.0</ele>
        <time>2019-01-14T00:00:46Z</time>
      </trkpt>
      <trkpt lat="41.905982" lon="3.038846">
        <ele>124.0</ele>
        <time>2019-01-14T00:01:18Z</time>
      </trkpt>
      <trkpt lat="41.904593" lon="3.040853">
        <ele>132.0</ele>
        <time>2019-01-14T00:01:51Z</time>
      </trkpt>
      <trkpt lat="41.904130" lon="3.041968">
        <ele>136.0</ele>
        <time>2019-01-14T00:02:06Z</time>
      </trkpt>
      <trkpt lat="41.903515" lon="3.041786">
        <ele>140.0</ele>
        <time>2019-01-14T00:02:16Z</time>
      </trkpt>
      <trkpt lat="41.903371" lon="3.042011">
        <ele>142.0</ele>
        <time>2019-01-14T00:02:20Z</time>
      </trkpt>
      <trkpt lat="41.903595" lon="3.042558">
        <ele>145.0</ele>
        <time>2019-01-14T00:02:27Z</time>
      </trkpt>
      <trkpt lat="41.902932" lon="3.043996">
        <ele>154.0</ele>
        <time>2019-01-14T00:02:47Z</time>
      </trkpt>
      <trkpt lat="41.902325" lon="3.044093">
        <ele>161.0</ele>
        <time>2019-01-14T00:02:57Z</time>
      </trkpt>
      <trkpt lat="41.902389" lon="3.044811">
        <ele>165.0</ele>
        <time>2019-01-14T00:03:06Z</time>
      </trkpt>
      <trkpt lat="41.902157" lon="3.045788">
        <ele>172.0</ele>
        <time>2019-01-14T00:03:18Z</time>
      </trkpt>
      <trkpt lat="41.901471" lon="3.046002">
        <ele>175.0</ele>
        <time>2019-01-14T00:03:29Z</time>
      </trkpt>
      <trkpt lat="41.901087" lon="3.046485">
        <ele>176.0</ele>
        <time>2019-01-14T00:03:37Z</time>
      </trkpt>
      <trkpt lat="41.900904" lon="3.046786">
        <ele>178.0</ele>
        <time>2019-01-14T00:03:42Z</time>
      </trkpt>
      <trkpt lat="41.901447" lon="3.047622">
        <ele>184.0</ele>
        <time>2019-01-14T00:03:55Z</time>
      </trkpt>
      <trkpt lat="41.900896" lon="3.050187">
        <ele>195.0</ele>
        <time>2019-01-14T00:04:27Z</time>
      </trkpt>
      <trkpt lat="41.900305" lon="3.050455">
        <ele>197.0</ele>
        <time>2019-01-14T00:04:37Z</time>
      </trkpt>
      <trkpt lat="41.900249" lon="3.050809">
        <ele>199.0</ele>
        <time>2019-01-14T00:04:41Z</time>
      </trkpt>
      <trkpt lat="41.900289" lon="3.051485">
        <ele>204.0</ele>
        <time>2019-01-14T00:04:49Z</time>
      </trkpt>
      <trkpt lat="41.899578" lon="3.052129">
        <ele>209.0</ele>
        <time>2019-01-14T00:05:03Z</time>
      </trkpt>
      <trkpt lat="41.899163" lon="3.052644">
        <ele>212.0</ele>
        <time>2019-01-14T00:05:12Z</time>
      </trkpt>
      <trkpt lat="41.899203" lon="3.053041">
        <ele>214.0</ele>
        <time>2019-01-14T00:05:17Z</time>
      </trkpt>
      <trkpt lat="41.898787" lon="3.053995">
        <ele>218.0</ele>
        <time>2019-01-14T00:05:30Z</time>
      </trkpt>
      <trkpt lat="41.897861" lon="3.054639">
        <ele>226.0</ele>
        <time>2019-01-14T00:05:47Z</time>
      </trkpt>
      <trkpt lat="41.897749" lon="3.055390">
        <ele>218.0</ele>
        <time>2019-01-14T00:05:56Z</time>
      </trkpt>
      <trkpt lat="41.897909" lon="3.055937">
        <ele>218.0</ele>
        <time>2019-01-14T00:06:03Z</time>
      </trkpt>
      <trkpt lat="41.897605" lon="3.058501">
        <ele>222.0</ele>
        <time>2019-01-14T00:06:34Z</time>
        <cmt>COLL DE LA GANGA</cmt>
        <sym>C:\Users\Runseru\Desktop\gps\CompeGPS\CompeGPS Land 711\App\CompeGPS\symbols\DEFAULT.ZIP\WAYPOINT.bmp</sym>
      </trkpt>
      <trkpt lat="41.897270" lon="3.058566">
        <ele>220.0</ele>
        <time>2019-01-14T00:06:39Z</time>
      </trkpt>
      <trkpt lat="41.897038" lon="3.057278">
        <ele>212.0</ele>
        <time>2019-01-14T00:06:55Z</time>
      </trkpt>
      <trkpt lat="41.897102" lon="3.056409">
        <ele>202.0</ele>
        <time>2019-01-14T00:07:06Z</time>
      </trkpt>
      <trkpt lat="41.896831" lon="3.056324">
        <ele>199.0</ele>
        <time>2019-01-14T00:07:10Z</time>
      </trkpt>
      <trkpt lat="41.895601" lon="3.057150">
        <ele>199.0</ele>
        <time>2019-01-14T00:07:32Z</time>
      </trkpt>
      <trkpt lat="41.895513" lon="3.057493">
        <ele>200.0</ele>
        <time>2019-01-14T00:07:36Z</time>
      </trkpt>
      <trkpt lat="41.895186" lon="3.057343">
        <ele>194.0</ele>
        <time>2019-01-14T00:07:42Z</time>
      </trkpt>
      <trkpt lat="41.894339" lon="3.057922">
        <ele>190.0</ele>
        <time>2019-01-14T00:07:57Z</time>
      </trkpt>
      <trkpt lat="41.894331" lon="3.059156">
        <ele>198.0</ele>
        <time>2019-01-14T00:08:12Z</time>
      </trkpt>
      <trkpt lat="41.893604" lon="3.058619">
        <ele>178.0</ele>
        <time>2019-01-14T00:08:25Z</time>
      </trkpt>
      <trkpt lat="41.892582" lon="3.058984">
        <ele>173.0</ele>
        <time>2019-01-14T00:08:42Z</time>
      </trkpt>
      <trkpt lat="41.892359" lon="3.059392">
        <ele>178.0</ele>
        <time>2019-01-14T00:08:48Z</time>
      </trkpt>
      <trkpt lat="41.892470" lon="3.059993">
        <ele>184.0</ele>
        <time>2019-01-14T00:08:55Z</time>
      </trkpt>
      <trkpt lat="41.892215" lon="3.059993">
        <ele>181.0</ele>
        <time>2019-01-14T00:09:00Z</time>
      </trkpt>
      <trkpt lat="41.891576" lon="3.059328">
        <ele>163.0</ele>
        <time>2019-01-14T00:09:13Z</time>
      </trkpt>
      <trkpt lat="41.891033" lon="3.059435">
        <ele>163.0</ele>
        <time>2019-01-14T00:09:21Z</time>
      </trkpt>
      <trkpt lat="41.890873" lon="3.059928">
        <ele>171.0</ele>
        <time>2019-01-14T00:09:28Z</time>
      </trkpt>
      <trkpt lat="41.890905" lon="3.060422">
        <ele>176.0</ele>
        <time>2019-01-14T00:09:34Z</time>
      </trkpt>
      <trkpt lat="41.890617" lon="3.060400">
        <ele>170.0</ele>
        <time>2019-01-14T00:09:38Z</time>
      </trkpt>
      <trkpt lat="41.890154" lon="3.059692">
        <ele>156.0</ele>
        <time>2019-01-14T00:09:49Z</time>
      </trkpt>
      <trkpt lat="41.889947" lon="3.059886">
        <ele>157.0</ele>
        <time>2019-01-14T00:09:54Z</time>
      </trkpt>
      <trkpt lat="41.889715" lon="3.060358">
        <ele>157.0</ele>
        <time>2019-01-14T00:10:00Z</time>
      </trkpt>
      <trkpt lat="41.889403" lon="3.060304">
        <ele>154.0</ele>
        <time>2019-01-14T00:10:05Z</time>
      </trkpt>
      <trkpt lat="41.888788" lon="3.060797">
        <ele>152.0</ele>
        <time>2019-01-14T00:10:17Z</time>
      </trkpt>
      <trkpt lat="41.888780" lon="3.061119">
        <ele>156.0</ele>
        <time>2019-01-14T00:10:21Z</time>
      </trkpt>
      <trkpt lat="41.888940" lon="3.061495">
        <ele>157.0</ele>
        <time>2019-01-14T00:10:26Z</time>
      </trkpt>
      <trkpt lat="41.888429" lon="3.061785">
        <ele>149.0</ele>
        <time>2019-01-14T00:10:35Z</time>
      </trkpt>
      <trkpt lat="41.887702" lon="3.061688">
        <ele>140.0</ele>
        <time>2019-01-14T00:10:46Z</time>
      </trkpt>
      <trkpt lat="41.887479" lon="3.061956">
        <ele>140.0</ele>
        <time>2019-01-14T00:10:51Z</time>
      </trkpt>
      <trkpt lat="41.887566" lon="3.062557">
        <ele>144.0</ele>
        <time>2019-01-14T00:10:58Z</time>
      </trkpt>
      <trkpt lat="41.887487" lon="3.062932">
        <ele>145.0</ele>
        <time>2019-01-14T00:11:03Z</time>
      </trkpt>
      <trkpt lat="41.887630" lon="3.063254">
        <ele>146.0</ele>
        <time>2019-01-14T00:11:08Z</time>
      </trkpt>
      <trkpt lat="41.887087" lon="3.064123">
        <ele>139.0</ele>
        <time>2019-01-14T00:11:21Z</time>
      </trkpt>
      <trkpt lat="41.886352" lon="3.063158">
        <ele>123.0</ele>
        <time>2019-01-14T00:11:38Z</time>
      </trkpt>
      <trkpt lat="41.885546" lon="3.063855">
        <ele>121.0</ele>
        <time>2019-01-14T00:11:53Z</time>
      </trkpt>
      <trkpt lat="41.885402" lon="3.064359">
        <ele>123.0</ele>
        <time>2019-01-14T00:11:59Z</time>
      </trkpt>
      <trkpt lat="41.885130" lon="3.064595">
        <ele>121.0</ele>
        <time>2019-01-14T00:12:04Z</time>
      </trkpt>
      <trkpt lat="41.884739" lon="3.064349">
        <ele>116.0</ele>
        <time>2019-01-14T00:12:11Z</time>
      </trkpt>
      <trkpt lat="41.883884" lon="3.065336">
        <ele>115.0</ele>
        <time>2019-01-14T00:12:29Z</time>
      </trkpt>
      <trkpt lat="41.883061" lon="3.065679">
        <ele>110.0</ele>
        <time>2019-01-14T00:12:43Z</time>
      </trkpt>
      <trkpt lat="41.882550" lon="3.065593">
        <ele>106.0</ele>
        <time>2019-01-14T00:12:52Z</time>
      </trkpt>
      <trkpt lat="41.882239" lon="3.065958">
        <ele>103.0</ele>
        <time>2019-01-14T00:12:58Z</time>
      </trkpt>
      <trkpt lat="41.881951" lon="3.066580">
        <ele>99.0</ele>
        <time>2019-01-14T00:13:07Z</time>
      </trkpt>
      <trkpt lat="41.881049" lon="3.066795">
        <ele>93.0</ele>
        <time>2019-01-14T00:13:22Z</time>
      </trkpt>
      <trkpt lat="41.880505" lon="3.066666">
        <ele>89.0</ele>
        <time>2019-01-14T00:13:30Z</time>
      </trkpt>
      <trkpt lat="41.880234" lon="3.067031">
        <ele>86.0</ele>
        <time>2019-01-14T00:13:37Z</time>
      </trkpt>
      <trkpt lat="41.879754" lon="3.067385">
        <ele>82.0</ele>
        <time>2019-01-14T00:13:45Z</time>
      </trkpt>
      <trkpt lat="41.878948" lon="3.066870">
        <ele>76.0</ele>
        <time>2019-01-14T00:14:00Z</time>
      </trkpt>
      <trkpt lat="41.878261" lon="3.065271">
        <ele>67.0</ele>
        <time>2019-01-14T00:14:22Z</time>
      </trkpt>
      <trkpt lat="41.877414" lon="3.064435">
        <ele>58.0</ele>
        <time>2019-01-14T00:14:38Z</time>
      </trkpt>
      <trkpt lat="41.876288" lon="3.063598">
        <ele>61.0</ele>
        <time>2019-01-14T00:14:59Z</time>
      </trkpt>
      <trkpt lat="41.876016" lon="3.062847">
        <ele>60.0</ele>
        <time>2019-01-14T00:15:09Z</time>
      </trkpt>
      <trkpt lat="41.875832" lon="3.061817">
        <ele>57.0</ele>
        <time>2019-01-14T00:15:22Z</time>
      </trkpt>
      <trkpt lat="41.875313" lon="3.061441">
        <ele>54.0</ele>
        <time>2019-01-14T00:15:31Z</time>
      </trkpt>
      <trkpt lat="41.874674" lon="3.062171">
        <ele>54.0</ele>
        <time>2019-01-14T00:15:44Z</time>
      </trkpt>
      <trkpt lat="41.873979" lon="3.063190">
        <ele>51.0</ele>
        <time>2019-01-14T00:16:01Z</time>
      </trkpt>
      <trkpt lat="41.873364" lon="3.063587">
        <ele>48.0</ele>
        <time>2019-01-14T00:16:12Z</time>
      </trkpt>
      <trkpt lat="41.872597" lon="3.063319">
        <ele>44.0</ele>
        <time>2019-01-14T00:16:25Z</time>
      </trkpt>
      <trkpt lat="41.871438" lon="3.063877">
        <ele>42.0</ele>
        <time>2019-01-14T00:16:44Z</time>
      </trkpt>
      <trkpt lat="41.870280" lon="3.065143">
        <ele>39.0</ele>
        <time>2019-01-14T00:17:08Z</time>
      </trkpt>
      <trkpt lat="41.870192" lon="3.065754">
        <ele>39.0</ele>
        <time>2019-01-14T00:17:16Z</time>
      </trkpt>
      <trkpt lat="41.870847" lon="3.068404">
        <ele>37.0</ele>
        <time>2019-01-14T00:17:49Z</time>
      </trkpt>
      <trkpt lat="41.871007" lon="3.069134">
        <ele>38.0</ele>
        <time>2019-01-14T00:17:58Z</time>
      </trkpt>
      <trkpt lat="41.870887" lon="3.071065">
        <ele>35.0</ele>
        <time>2019-01-14T00:18:21Z</time>
      </trkpt>
      <trkpt lat="41.870424" lon="3.071784">
        <ele>33.0</ele>
        <time>2019-01-14T00:18:32Z</time>
      </trkpt>
      <trkpt lat="41.869713" lon="3.072020">
        <ele>31.0</ele>
        <time>2019-01-14T00:18:44Z</time>
      </trkpt>
      <trkpt lat="41.868762" lon="3.072449">
        <ele>28.0</ele>
        <time>2019-01-14T00:19:00Z</time>
      </trkpt>
      <trkpt lat="41.868107" lon="3.072878">
        <ele>27.0</ele>
        <time>2019-01-14T00:19:12Z</time>
      </trkpt>
      <trkpt lat="41.867476" lon="3.072760">
        <ele>27.0</ele>
        <time>2019-01-14T00:19:22Z</time>
      </trkpt>
      <trkpt lat="41.865342" lon="3.073146">
        <ele>26.0</ele>
        <time>2019-01-14T00:19:57Z</time>
      </trkpt>
      <trkpt lat="41.864863" lon="3.073157">
        <ele>25.0</ele>
        <time>2019-01-14T00:20:04Z</time>
      </trkpt>
      <trkpt lat="41.864383" lon="3.072910">
        <ele>25.0</ele>
        <time>2019-01-14T00:20:12Z</time>
      </trkpt>
      <trkpt lat="41.863505" lon="3.072942">
        <ele>28.0</ele>
        <time>2019-01-14T00:20:27Z</time>
      </trkpt>
      <trkpt lat="41.862570" lon="3.072642">
        <ele>27.0</ele>
        <time>2019-01-14T00:20:42Z</time>
      </trkpt>
      <trkpt lat="41.861667" lon="3.072535">
        <ele>27.0</ele>
        <time>2019-01-14T00:20:56Z</time>
      </trkpt>
      <trkpt lat="41.861036" lon="3.073930">
        <ele>25.0</ele>
        <time>2019-01-14T00:21:16Z</time>
      </trkpt>
      <trkpt lat="41.860356" lon="3.074198">
        <ele>21.0</ele>
        <time>2019-01-14T00:21:27Z</time>
      </trkpt>
      <trkpt lat="41.859214" lon="3.072706">
        <ele>19.0</ele>
        <time>2019-01-14T00:21:53Z</time>
      </trkpt>
      <trkpt lat="41.858758" lon="3.072857">
        <ele>18.0</ele>
        <time>2019-01-14T00:22:00Z</time>
      </trkpt>
      <trkpt lat="41.858239" lon="3.071998">
        <ele>18.0</ele>
        <time>2019-01-14T00:22:13Z</time>
      </trkpt>
      <trkpt lat="41.858103" lon="3.071526">
        <ele>19.0</ele>
        <time>2019-01-14T00:22:19Z</time>
      </trkpt>
      <trkpt lat="41.858063" lon="3.070453">
        <ele>22.0</ele>
        <time>2019-01-14T00:22:32Z</time>
      </trkpt>
      <trkpt lat="41.858223" lon="3.069659">
        <ele>24.0</ele>
        <time>2019-01-14T00:22:42Z</time>
      </trkpt>
      <trkpt lat="41.858303" lon="3.068662">
        <ele>29.0</ele>
        <time>2019-01-14T00:22:54Z</time>
      </trkpt>
      <trkpt lat="41.858439" lon="3.067954">
        <ele>32.0</ele>
        <time>2019-01-14T00:23:03Z</time>
      </trkpt>
      <trkpt lat="41.858335" lon="3.067288">
        <ele>32.0</ele>
        <time>2019-01-14T00:23:11Z</time>
      </trkpt>
      <trkpt lat="41.858455" lon="3.064874">
        <ele>35.0</ele>
        <time>2019-01-14T00:23:40Z</time>
      </trkpt>
      <trkpt lat="41.858047" lon="3.064606">
        <ele>31.0</ele>
        <time>2019-01-14T00:23:47Z</time>
      </trkpt>
      <trkpt lat="41.857679" lon="3.063909">
        <ele>32.0</ele>
        <time>2019-01-14T00:23:57Z</time>
      </trkpt>
      <trkpt lat="41.857408" lon="3.063372">
        <ele>32.0</ele>
        <time>2019-01-14T00:24:05Z</time>
      </trkpt>
      <trkpt lat="41.855578" lon="3.062396">
        <ele>29.0</ele>
        <time>2019-01-14T00:24:36Z</time>
      </trkpt>
      <trkpt lat="41.853540" lon="3.061366">
        <ele>33.0</ele>
        <time>2019-01-14T00:25:11Z</time>
      </trkpt>
      <trkpt lat="41.852653" lon="3.060873">
        <ele>35.0</ele>
        <time>2019-01-14T00:25:27Z</time>
      </trkpt>
      <trkpt lat="41.851486" lon="3.058512">
        <ele>46.0</ele>
        <time>2019-01-14T00:26:01Z</time>
      </trkpt>
      <trkpt lat="41.850911" lon="3.057890">
        <ele>43.0</ele>
        <time>2019-01-14T00:26:12Z</time>
      </trkpt>
      <trkpt lat="41.850591" lon="3.057225">
        <ele>39.0</ele>
        <time>2019-01-14T00:26:22Z</time>
      </trkpt>
      <trkpt lat="41.850639" lon="3.056281">
        <ele>39.0</ele>
        <time>2019-01-14T00:26:33Z</time>
      </trkpt>
      <trkpt lat="41.850767" lon="3.054972">
        <ele>40.0</ele>
        <time>2019-01-14T00:26:49Z</time>
      </trkpt>
      <trkpt lat="41.850943" lon="3.054135">
        <ele>41.0</ele>
        <time>2019-01-14T00:26:59Z</time>
      </trkpt>
      <trkpt lat="41.850431" lon="3.052998">
        <ele>45.0</ele>
        <time>2019-01-14T00:27:15Z</time>
      </trkpt>
      <trkpt lat="41.849888" lon="3.051324">
        <ele>50.0</ele>
        <time>2019-01-14T00:27:37Z</time>
      </trkpt>
      <trkpt lat="41.850000" lon="3.049393">
        <ele>52.0</ele>
        <time>2019-01-14T00:28:00Z</time>
      </trkpt>
      <trkpt lat="41.849984" lon="3.048234">
        <ele>53.0</ele>
        <time>2019-01-14T00:28:14Z</time>
      </trkpt>
      <trkpt lat="41.849712" lon="3.047526">
        <ele>53.0</ele>
        <time>2019-01-14T00:28:23Z</time>
      </trkpt>
      <trkpt lat="41.848897" lon="3.046625">
        <ele>53.0</ele>
        <time>2019-01-14T00:28:40Z</time>
      </trkpt>
      <trkpt lat="41.848098" lon="3.046110">
        <ele>56.0</ele>
        <time>2019-01-14T00:28:54Z</time>
      </trkpt>
      <trkpt lat="41.847282" lon="3.045123">
        <ele>59.0</ele>
        <time>2019-01-14T00:29:12Z</time>
      </trkpt>
      <trkpt lat="41.847219" lon="3.044586">
        <ele>60.0</ele>
        <time>2019-01-14T00:29:18Z</time>
      </trkpt>
      <trkpt lat="41.847634" lon="3.043020">
        <ele>64.0</ele>
        <time>2019-01-14T00:29:38Z</time>
      </trkpt>
      <trkpt lat="41.848258" lon="3.041518">
        <ele>67.0</ele>
        <time>2019-01-14T00:29:59Z</time>
      </trkpt>
      <trkpt lat="41.848689" lon="3.040080">
        <ele>69.0</ele>
        <time>2019-01-14T00:30:17Z</time>
      </trkpt>
      <trkpt lat="41.849137" lon="3.039780">
        <ele>69.0</ele>
        <time>2019-01-14T00:30:25Z</time>
      </trkpt>
      <trkpt lat="41.849057" lon="3.039200">
        <ele>68.0</ele>
        <time>2019-01-14T00:30:32Z</time>
      </trkpt>
      <trkpt lat="41.849424" lon="3.038578">
        <ele>65.0</ele>
        <time>2019-01-14T00:30:42Z</time>
      </trkpt>
      <trkpt lat="41.850128" lon="3.038085">
        <ele>67.0</ele>
        <time>2019-01-14T00:30:54Z</time>
      </trkpt>
      <trkpt lat="41.850879" lon="3.037055">
        <ele>69.0</ele>
        <time>2019-01-14T00:31:12Z</time>
      </trkpt>
      <trkpt lat="41.851982" lon="3.036261">
        <ele>70.0</ele>
        <time>2019-01-14T00:31:32Z</time>
      </trkpt>
      <trkpt lat="41.852781" lon="3.035982">
        <ele>70.0</ele>
        <time>2019-01-14T00:31:45Z</time>
      </trkpt>
      <trkpt lat="41.853548" lon="3.034587">
        <ele>70.0</ele>
        <time>2019-01-14T00:32:06Z</time>
      </trkpt>
      <trkpt lat="41.853788" lon="3.032420">
        <ele>73.0</ele>
        <time>2019-01-14T00:32:32Z</time>
      </trkpt>
      <trkpt lat="41.853772" lon="3.030875">
        <ele>73.0</ele>
        <time>2019-01-14T00:32:50Z</time>
      </trkpt>
      <trkpt lat="41.854075" lon="3.029330">
        <ele>75.0</ele>
        <time>2019-01-14T00:33:09Z</time>
      </trkpt>
      <trkpt lat="41.854587" lon="3.027334">
        <ele>79.0</ele>
        <time>2019-01-14T00:33:34Z</time>
      </trkpt>
      <trkpt lat="41.855034" lon="3.026240">
        <ele>81.0</ele>
        <time>2019-01-14T00:33:49Z</time>
      </trkpt>
      <trkpt lat="41.856009" lon="3.025103">
        <ele>84.0</ele>
        <time>2019-01-14T00:34:10Z</time>
      </trkpt>
      <trkpt lat="41.857032" lon="3.023815">
        <ele>91.0</ele>
        <time>2019-01-14T00:34:32Z</time>
      </trkpt>
      <trkpt lat="41.857160" lon="3.022356">
        <ele>101.0</ele>
        <time>2019-01-14T00:34:50Z</time>
      </trkpt>
      <trkpt lat="41.857512" lon="3.021863">
        <ele>104.0</ele>
        <time>2019-01-14T00:34:58Z</time>
      </trkpt>
      <trkpt lat="41.857783" lon="3.020833">
        <ele>110.0</ele>
        <time>2019-01-14T00:35:11Z</time>
      </trkpt>
      <trkpt lat="41.857064" lon="3.020210">
        <ele>116.0</ele>
        <time>2019-01-14T00:35:25Z</time>
      </trkpt>
      <trkpt lat="41.856920" lon="3.019717">
        <ele>119.0</ele>
        <time>2019-01-14T00:35:31Z</time>
      </trkpt>
      <trkpt lat="41.857432" lon="3.018343">
        <ele>128.0</ele>
        <time>2019-01-14T00:35:49Z</time>
      </trkpt>
      <trkpt lat="41.857032" lon="3.017228">
        <ele>135.0</ele>
        <time>2019-01-14T00:36:04Z</time>
      </trkpt>
      <trkpt lat="41.856313" lon="3.016927">
        <ele>142.0</ele>
        <time>2019-01-14T00:36:16Z</time>
      </trkpt>
      <trkpt lat="41.856105" lon="3.015554">
        <ele>149.0</ele>
        <time>2019-01-14T00:36:33Z</time>
      </trkpt>
      <trkpt lat="41.855594" lon="3.014760">
        <ele>152.0</ele>
        <time>2019-01-14T00:36:45Z</time>
      </trkpt>
      <trkpt lat="41.855690" lon="3.014352">
        <ele>154.0</ele>
        <time>2019-01-14T00:36:51Z</time>
      </trkpt>
      <trkpt lat="41.856617" lon="3.013859">
        <ele>158.0</ele>
        <time>2019-01-14T00:37:07Z</time>
      </trkpt>
      <trkpt lat="41.857416" lon="3.013945">
        <ele>162.0</ele>
        <time>2019-01-14T00:37:19Z</time>
      </trkpt>
      <trkpt lat="41.857568" lon="3.013183">
        <ele>165.0</ele>
        <time>2019-01-14T00:37:29Z</time>
      </trkpt>
      <trkpt lat="41.857911" lon="3.012561">
        <ele>167.0</ele>
        <time>2019-01-14T00:37:38Z</time>
      </trkpt>
      <trkpt lat="41.858990" lon="3.011091">
        <ele>174.0</ele>
        <time>2019-01-14T00:38:03Z</time>
      </trkpt>
      <trkpt lat="41.859909" lon="3.009696">
        <ele>183.0</ele>
        <time>2019-01-14T00:38:25Z</time>
      </trkpt>
      <trkpt lat="41.860133" lon="3.008580">
        <ele>192.0</ele>
        <time>2019-01-14T00:38:39Z</time>
      </trkpt>
      <trkpt lat="41.860053" lon="3.006864">
        <ele>201.0</ele>
        <time>2019-01-14T00:38:59Z</time>
      </trkpt>
      <trkpt lat="41.860388" lon="3.005211">
        <ele>207.0</ele>
        <time>2019-01-14T00:39:20Z</time>
      </trkpt>
      <trkpt lat="41.859909" lon="3.004396">
        <ele>204.0</ele>
        <time>2019-01-14T00:39:32Z</time>
      </trkpt>
      <trkpt lat="41.859845" lon="3.003860">
        <ele>202.0</ele>
        <time>2019-01-14T00:39:38Z</time>
      </trkpt>
      <trkpt lat="41.860005" lon="3.002443">
        <ele>200.0</ele>
        <time>2019-01-14T00:39:55Z</time>
      </trkpt>
      <trkpt lat="41.859877" lon="3.001671">
        <ele>201.0</ele>
        <time>2019-01-14T00:40:05Z</time>
      </trkpt>
      <trkpt lat="41.859350" lon="3.000491">
        <ele>206.0</ele>
        <time>2019-01-14T00:40:21Z</time>
      </trkpt>
      <trkpt lat="41.859477" lon="2.999847">
        <ele>211.0</ele>
        <time>2019-01-14T00:40:29Z</time>
      </trkpt>
      <trkpt lat="41.860197" lon="2.999718">
        <ele>214.0</ele>
        <time>2019-01-14T00:40:41Z</time>
      </trkpt>
      <trkpt lat="41.860372" lon="2.999310">
        <ele>215.0</ele>
        <time>2019-01-14T00:40:46Z</time>
      </trkpt>
      <trkpt lat="41.860213" lon="2.998774">
        <ele>220.0</ele>
        <time>2019-01-14T00:40:53Z</time>
      </trkpt>
      <trkpt lat="41.859254" lon="2.998409">
        <ele>226.0</ele>
        <time>2019-01-14T00:41:09Z</time>
      </trkpt>
      <trkpt lat="41.858550" lon="2.998044">
        <ele>232.0</ele>
        <time>2019-01-14T00:41:21Z</time>
      </trkpt>
      <trkpt lat="41.857975" lon="2.997530">
        <ele>240.0</ele>
        <time>2019-01-14T00:41:32Z</time>
      </trkpt>
      <trkpt lat="41.857064" lon="2.998087">
        <ele>247.0</ele>
        <time>2019-01-14T00:41:49Z</time>
      </trkpt>
      <trkpt lat="41.856569" lon="2.997851">
        <ele>254.0</ele>
        <time>2019-01-14T00:41:57Z</time>
      </trkpt>
      <trkpt lat="41.856489" lon="2.997315">
        <ele>258.0</ele>
        <time>2019-01-14T00:42:03Z</time>
      </trkpt>
      <trkpt lat="41.857208" lon="2.996564">
        <ele>265.0</ele>
        <time>2019-01-14T00:42:18Z</time>
      </trkpt>
      <trkpt lat="41.858726" lon="2.994826">
        <ele>281.0</ele>
        <time>2019-01-14T00:42:50Z</time>
      </trkpt>
      <trkpt lat="41.858646" lon="2.994332">
        <ele>286.0</ele>
        <time>2019-01-14T00:42:56Z</time>
      </trkpt>
      <trkpt lat="41.858263" lon="2.993882">
        <ele>293.0</ele>
        <time>2019-01-14T00:43:04Z</time>
      </trkpt>
      <trkpt lat="41.857703" lon="2.994139">
        <ele>300.0</ele>
        <time>2019-01-14T00:43:14Z</time>
      </trkpt>
      <trkpt lat="41.857368" lon="2.994204">
        <ele>303.0</ele>
        <time>2019-01-14T00:43:19Z</time>
      </trkpt>
      <trkpt lat="41.856281" lon="2.993538">
        <ele>312.0</ele>
        <time>2019-01-14T00:43:38Z</time>
      </trkpt>
      <trkpt lat="41.856073" lon="2.993066">
        <ele>315.0</ele>
        <time>2019-01-14T00:43:45Z</time>
      </trkpt>
      <trkpt lat="41.856009" lon="2.992079">
        <ele>318.0</ele>
        <time>2019-01-14T00:43:57Z</time>
      </trkpt>
      <trkpt lat="41.856457" lon="2.991285">
        <ele>322.0</ele>
        <time>2019-01-14T00:44:08Z</time>
      </trkpt>
      <trkpt lat="41.857288" lon="2.990234">
        <ele>323.0</ele>
        <time>2019-01-14T00:44:27Z</time>
      </trkpt>
      <trkpt lat="41.857496" lon="2.989097">
        <ele>318.0</ele>
        <time>2019-01-14T00:44:41Z</time>
      </trkpt>
      <trkpt lat="41.857432" lon="2.987552">
        <ele>317.0</ele>
        <time>2019-01-14T00:44:59Z</time>
      </trkpt>
      <trkpt lat="41.857064" lon="2.986650">
        <ele>318.0</ele>
        <time>2019-01-14T00:45:11Z</time>
      </trkpt>
      <trkpt lat="41.856041" lon="2.985878">
        <ele>324.0</ele>
        <time>2019-01-14T00:45:30Z</time>
      </trkpt>
      <trkpt lat="41.855498" lon="2.985513">
        <ele>327.0</ele>
        <time>2019-01-14T00:45:40Z</time>
      </trkpt>
      <trkpt lat="41.854699" lon="2.985578">
        <ele>328.0</ele>
        <time>2019-01-14T00:45:53Z</time>
      </trkpt>
      <trkpt lat="41.854267" lon="2.985106">
        <ele>326.0</ele>
        <time>2019-01-14T00:46:02Z</time>
      </trkpt>
      <trkpt lat="41.854315" lon="2.984633">
        <ele>325.0</ele>
        <time>2019-01-14T00:46:07Z</time>
      </trkpt>
      <trkpt lat="41.855482" lon="2.983367">
        <ele>315.0</ele>
        <time>2019-01-14T00:46:31Z</time>
      </trkpt>
      <trkpt lat="41.856041" lon="2.982380">
        <ele>309.0</ele>
        <time>2019-01-14T00:46:46Z</time>
      </trkpt>
      <trkpt lat="41.856904" lon="2.982241">
        <ele>303.0</ele>
        <time>2019-01-14T00:47:00Z</time>
      </trkpt>
      <trkpt lat="41.857440" lon="2.982241">
        <ele>300.0</ele>
        <time>2019-01-14T00:47:09Z</time>
      </trkpt>
      <trkpt lat="41.857919" lon="2.982455">
        <ele>297.0</ele>
        <time>2019-01-14T00:47:17Z</time>
      </trkpt>
      <trkpt lat="41.858103" lon="2.982101">
        <ele>295.0</ele>
        <time>2019-01-14T00:47:22Z</time>
      </trkpt>
      <trkpt lat="41.857759" lon="2.981704">
        <ele>292.0</ele>
        <time>2019-01-14T00:47:29Z</time>
      </trkpt>
      <trkpt lat="41.856824" lon="2.980846">
        <ele>284.0</ele>
        <time>2019-01-14T00:47:47Z</time>
      </trkpt>
      <trkpt lat="41.856928" lon="2.979720">
        <ele>278.0</ele>
        <time>2019-01-14T00:48:01Z</time>
      </trkpt>
      <trkpt lat="41.856409" lon="2.978711">
        <ele>271.0</ele>
        <time>2019-01-14T00:48:15Z</time>
      </trkpt>
      <trkpt lat="41.855834" lon="2.978754">
        <ele>267.0</ele>
        <time>2019-01-14T00:48:25Z</time>
      </trkpt>
      <trkpt lat="41.855706" lon="2.978110">
        <ele>264.0</ele>
        <time>2019-01-14T00:48:33Z</time>
      </trkpt>
      <trkpt lat="41.856089" lon="2.977853">
        <ele>260.0</ele>
        <time>2019-01-14T00:48:39Z</time>
      </trkpt>
      <trkpt lat="41.856145" lon="2.977349">
        <ele>258.0</ele>
        <time>2019-01-14T00:48:45Z</time>
      </trkpt>
      <trkpt lat="41.855889" lon="2.976984">
        <ele>256.0</ele>
        <time>2019-01-14T00:48:51Z</time>
      </trkpt>
      <trkpt lat="41.854699" lon="2.977284">
        <ele>246.0</ele>
        <time>2019-01-14T00:49:11Z</time>
      </trkpt>
      <trkpt lat="41.854355" lon="2.976651">
        <ele>240.0</ele>
        <time>2019-01-14T00:49:20Z</time>
      </trkpt>
      <trkpt lat="41.854044" lon="2.974924">
        <ele>227.0</ele>
        <time>2019-01-14T00:49:41Z</time>
      </trkpt>
      <trkpt lat="41.853364" lon="2.973926">
        <ele>216.0</ele>
        <time>2019-01-14T00:49:58Z</time>
      </trkpt>
      <trkpt lat="41.853244" lon="2.972682">
        <ele>208.0</ele>
        <time>2019-01-14T00:50:12Z</time>
      </trkpt>
      <trkpt lat="41.854036" lon="2.971555">
        <ele>198.0</ele>
        <time>2019-01-14T00:50:31Z</time>
      </trkpt>
      <trkpt lat="41.854091" lon="2.970804">
        <ele>194.0</ele>
        <time>2019-01-14T00:50:40Z</time>
      </trkpt>
      <trkpt lat="41.853916" lon="2.969924">
        <ele>189.0</ele>
        <time>2019-01-14T00:50:51Z</time>
      </trkpt>
      <trkpt lat="41.853996" lon="2.969120">
        <ele>187.0</ele>
        <time>2019-01-14T00:51:01Z</time>
      </trkpt>
      <trkpt lat="41.853796" lon="2.967521">
        <ele>190.0</ele>
        <time>2019-01-14T00:51:20Z</time>
      </trkpt>
      <trkpt lat="41.853916" lon="2.966899">
        <ele>192.0</ele>
        <time>2019-01-14T00:51:28Z</time>
      </trkpt>
      <trkpt lat="41.855018" lon="2.965933">
        <ele>198.0</ele>
        <time>2019-01-14T00:51:49Z</time>
      </trkpt>
      <trkpt lat="41.854939" lon="2.965246">
        <ele>201.0</ele>
        <time>2019-01-14T00:51:57Z</time>
      </trkpt>
      <trkpt lat="41.854395" lon="2.964571">
        <ele>201.0</ele>
        <time>2019-01-14T00:52:09Z</time>
      </trkpt>
      <trkpt lat="41.853780" lon="2.962017">
        <ele>195.0</ele>
        <time>2019-01-14T00:52:41Z</time>
      </trkpt>
      <trkpt lat="41.853117" lon="2.961277">
        <ele>191.0</ele>
        <time>2019-01-14T00:52:55Z</time>
      </trkpt>
      <trkpt lat="41.851990" lon="2.960676">
        <ele>185.0</ele>
        <time>2019-01-14T00:53:14Z</time>
      </trkpt>
      <trkpt lat="41.850967" lon="2.960354">
        <ele>178.0</ele>
        <time>2019-01-14T00:53:31Z</time>
      </trkpt>
      <trkpt lat="41.849872" lon="2.960536">
        <ele>174.0</ele>
        <time>2019-01-14T00:53:48Z</time>
      </trkpt>
      <trkpt lat="41.848753" lon="2.960161">
        <ele>172.0</ele>
        <time>2019-01-14T00:54:07Z</time>
      </trkpt>
      <trkpt lat="41.847610" lon="2.959421">
        <ele>174.0</ele>
        <time>2019-01-14T00:54:27Z</time>
      </trkpt>
      <trkpt lat="41.845620" lon="2.958326">
        <ele>182.0</ele>
        <time>2019-01-14T00:55:02Z</time>
      </trkpt>
      <trkpt lat="41.845212" lon="2.958026">
        <ele>185.0</ele>
        <time>2019-01-14T00:55:09Z</time>
      </trkpt>
      <trkpt lat="41.844845" lon="2.957886">
        <ele>186.0</ele>
        <time>2019-01-14T00:55:15Z</time>
      </trkpt>
      <trkpt lat="41.843702" lon="2.957876">
        <ele>194.0</ele>
        <time>2019-01-14T00:55:34Z</time>
      </trkpt>
      <trkpt lat="41.842287" lon="2.957028">
        <ele>200.0</ele>
        <time>2019-01-14T00:55:58Z</time>
      </trkpt>
      <trkpt lat="41.840960" lon="2.956706">
        <ele>199.0</ele>
        <time>2019-01-14T00:56:20Z</time>
      </trkpt>
      <trkpt lat="41.839570" lon="2.954979">
        <ele>190.0</ele>
        <time>2019-01-14T00:56:50Z</time>
      </trkpt>
      <trkpt lat="41.839578" lon="2.952061">
        <ele>185.0</ele>
        <time>2019-01-14T00:57:25Z</time>
      </trkpt>
      <trkpt lat="41.839322" lon="2.950205">
        <ele>185.0</ele>
        <time>2019-01-14T00:57:48Z</time>
      </trkpt>
      <trkpt lat="41.838059" lon="2.948123">
        <ele>181.0</ele>
        <time>2019-01-14T00:58:20Z</time>
      </trkpt>
      <trkpt lat="41.837931" lon="2.947673">
        <ele>180.0</ele>
        <time>2019-01-14T00:58:25Z</time>
      </trkpt>
      <trkpt lat="41.838067" lon="2.946246">
        <ele>176.0</ele>
        <time>2019-01-14T00:58:43Z</time>
      </trkpt>
      <trkpt lat="41.837715" lon="2.945076">
        <ele>172.0</ele>
        <time>2019-01-14T00:58:58Z</time>
      </trkpt>
      <trkpt lat="41.837963" lon="2.943574">
        <ele>166.0</ele>
        <time>2019-01-14T00:59:16Z</time>
      </trkpt>
      <trkpt lat="41.838179" lon="2.942008">
        <ele>157.0</ele>
        <time>2019-01-14T00:59:35Z</time>
      </trkpt>
      <trkpt lat="41.838099" lon="2.940999">
        <ele>152.0</ele>
        <time>2019-01-14T00:59:47Z</time>
      </trkpt>
      <trkpt lat="41.837547" lon="2.939529">
        <ele>148.0</ele>
        <time>2019-01-14T01:00:07Z</time>
      </trkpt>
      <trkpt lat="41.837236" lon="2.936568">
        <ele>149.0</ele>
        <time>2019-01-14T01:00:42Z</time>
      </trkpt>
      <trkpt lat="41.836876" lon="2.934787">
        <ele>147.0</ele>
        <time>2019-01-14T01:01:04Z</time>
      </trkpt>
      <trkpt lat="41.836172" lon="2.933124">
        <ele>141.0</ele>
        <time>2019-01-14T01:01:27Z</time>
      </trkpt>
      <trkpt lat="41.835925" lon="2.930185">
        <ele>137.0</ele>
        <time>2019-01-14T01:02:02Z</time>
      </trkpt>
      <trkpt lat="41.835725" lon="2.929069">
        <ele>137.0</ele>
        <time>2019-01-14T01:02:16Z</time>
      </trkpt>
      <trkpt lat="41.835005" lon="2.926794">
        <ele>138.0</ele>
        <time>2019-01-14T01:02:46Z</time>
      </trkpt>
      <trkpt lat="41.835093" lon="2.923833">
        <ele>139.0</ele>
        <time>2019-01-14T01:03:21Z</time>
      </trkpt>
      <trkpt lat="41.834774" lon="2.922696">
        <ele>139.0</ele>
        <time>2019-01-14T01:03:35Z</time>
      </trkpt>
      <trkpt lat="41.833894" lon="2.921162">
        <ele>139.0</ele>
        <time>2019-01-14T01:03:59Z</time>
      </trkpt>
      <trkpt lat="41.832863" lon="2.920443">
        <ele>139.0</ele>
        <time>2019-01-14T01:04:17Z</time>
      </trkpt>
      <trkpt lat="41.831040" lon="2.919853">
        <ele>136.0</ele>
        <time>2019-01-14T01:04:47Z</time>
      </trkpt>
      <trkpt lat="41.830673" lon="2.919660">
        <ele>136.0</ele>
        <time>2019-01-14T01:04:54Z</time>
      </trkpt>
      <trkpt lat="41.830465" lon="2.919123">
        <ele>135.0</ele>
        <time>2019-01-14T01:05:01Z</time>
      </trkpt>
      <trkpt lat="41.830273" lon="2.917900">
        <ele>134.0</ele>
        <time>2019-01-14T01:05:16Z</time>
      </trkpt>
      <trkpt lat="41.830081" lon="2.915432">
        <ele>133.0</ele>
        <time>2019-01-14T01:05:45Z</time>
      </trkpt>
      <trkpt lat="41.829873" lon="2.912493">
        <ele>141.0</ele>
        <time>2019-01-14T01:06:20Z</time>
      </trkpt>
      <trkpt lat="41.829873" lon="2.910776">
        <ele>143.0</ele>
        <time>2019-01-14T01:06:41Z</time>
      </trkpt>
      <trkpt lat="41.829985" lon="2.909875">
        <ele>143.0</ele>
        <time>2019-01-14T01:06:52Z</time>
      </trkpt>
      <trkpt lat="41.830353" lon="2.909188">
        <ele>141.0</ele>
        <time>2019-01-14T01:07:02Z</time>
      </trkpt>
      <trkpt lat="41.830737" lon="2.909108">
        <ele>140.0</ele>
        <time>2019-01-14T01:07:08Z</time>
      </trkpt>
      <trkpt lat="41.830832" lon="2.908743">
        <ele>138.0</ele>
        <time>2019-01-14T01:07:13Z</time>
      </trkpt>
      <trkpt lat="41.830689" lon="2.908330">
        <ele>136.0</ele>
        <time>2019-01-14T01:07:18Z</time>
      </trkpt>
      <trkpt lat="41.830629" lon="2.907847">
        <ele>136.0</ele>
        <time>2019-01-14T01:07:24Z</time>
      </trkpt>
      <trkpt lat="41.830313" lon="2.907579">
        <ele>137.0</ele>
        <time>2019-01-14T01:07:30Z</time>
      </trkpt>
      <trkpt lat="41.829889" lon="2.907563">
        <ele>139.0</ele>
        <time>2019-01-14T01:07:37Z</time>
      </trkpt>
      <trkpt lat="41.829657" lon="2.907375">
        <ele>141.0</ele>
        <time>2019-01-14T01:07:41Z</time>
      </trkpt>
      <trkpt lat="41.829449" lon="2.906844">
        <ele>143.0</ele>
        <time>2019-01-14T01:07:48Z</time>
      </trkpt>
      <trkpt lat="41.829369" lon="2.905487">
        <ele>138.0</ele>
        <time>2019-01-14T01:08:05Z</time>
      </trkpt>
      <trkpt lat="41.829162" lon="2.902536">
        <ele>130.0</ele>
        <time>2019-01-14T01:08:40Z</time>
      </trkpt>
      <trkpt lat="41.829088" lon="2.901434">
        <ele>132.0</ele>
        <time>2019-01-14T01:08:53Z</time>
      </trkpt>
      <trkpt lat="41.829072" lon="2.901273">
        <ele>132.0</ele>
        <time>2019-01-14T01:08:55Z</time>
      </trkpt>
      <trkpt lat="41.828958" lon="2.901206">
        <ele>133.0</ele>
        <time>2019-01-14T01:08:57Z</time>
      </trkpt>
      <trkpt lat="41.828780" lon="2.901058">
        <ele>134.0</ele>
        <time>2019-01-14T01:09:00Z</time>
      </trkpt>
      <trkpt lat="41.828230" lon="2.900514">
        <ele>139.0</ele>
        <time>2019-01-14T01:09:11Z</time>
      </trkpt>
      <trkpt lat="41.827599" lon="2.900063">
        <ele>143.0</ele>
        <time>2019-01-14T01:09:23Z</time>
      </trkpt>
      <trkpt lat="41.826847" lon="2.899951">
        <ele>149.0</ele>
        <time>2019-01-14T01:09:35Z</time>
      </trkpt>
      <trkpt lat="41.826491" lon="2.899902">
        <ele>151.0</ele>
        <time>2019-01-14T01:09:41Z</time>
      </trkpt>
      <trkpt lat="41.826204" lon="2.899559">
        <ele>152.0</ele>
        <time>2019-01-14T01:09:47Z</time>
      </trkpt>
      <trkpt lat="41.825844" lon="2.898626">
        <ele>153.0</ele>
        <time>2019-01-14T01:09:59Z</time>
      </trkpt>
      <trkpt lat="41.825772" lon="2.898513">
        <ele>153.0</ele>
        <time>2019-01-14T01:10:01Z</time>
      </trkpt>
      <trkpt lat="41.825624" lon="2.898535">
        <ele>151.0</ele>
        <time>2019-01-14T01:10:04Z</time>
      </trkpt>
      <trkpt lat="41.825572" lon="2.898443">
        <ele>151.0</ele>
        <time>2019-01-14T01:10:05Z</time>
      </trkpt>
      <trkpt lat="41.825176" lon="2.898105">
        <ele>147.0</ele>
        <time>2019-01-14T01:10:12Z</time>
      </trkpt>
      <trkpt lat="41.824241" lon="2.897424">
        <ele>142.0</ele>
        <time>2019-01-14T01:10:29Z</time>
      </trkpt>
      <trkpt lat="41.822310" lon="2.896056">
        <ele>133.0</ele>
        <time>2019-01-14T01:11:04Z</time>
      </trkpt>
      <trkpt lat="41.822294" lon="2.896024">
        <ele>133.0</ele>
        <time>2019-01-14T01:11:05Z</time>
      </trkpt>
      <trkpt lat="41.822774" lon="2.894624">
        <ele>132.0</ele>
        <time>2019-01-14T01:11:23Z</time>
      </trkpt>
      <trkpt lat="41.823150" lon="2.893524">
        <ele>130.0</ele>
        <time>2019-01-14T01:11:38Z</time>
      </trkpt>
      <trkpt lat="41.823741" lon="2.892312">
        <ele>128.0</ele>
        <time>2019-01-14T01:11:55Z</time>
      </trkpt>
      <trkpt lat="41.825030" lon="2.889879">
        <ele>126.0</ele>
        <time>2019-01-14T01:12:31Z</time>
      </trkpt>
      <trkpt lat="41.825344" lon="2.889249">
        <ele>125.0</ele>
        <time>2019-01-14T01:12:40Z</time>
      </trkpt>
      <trkpt lat="41.825344" lon="2.889158">
        <ele>125.0</ele>
        <time>2019-01-14T01:12:41Z</time>
      </trkpt>
      <trkpt lat="41.824844" lon="2.888704">
        <ele>125.0</ele>
        <time>2019-01-14T01:12:50Z</time>
      </trkpt>
      <trkpt lat="41.823014" lon="2.887022">
        <ele>128.0</ele>
        <time>2019-01-14T01:13:26Z</time>
      </trkpt>
      <trkpt lat="41.821143" lon="2.885402">
        <ele>137.0</ele>
        <time>2019-01-14T01:14:02Z</time>
      </trkpt>
      <trkpt lat="41.819312" lon="2.883750">
        <ele>143.0</ele>
        <time>2019-01-14T01:14:37Z</time>
      </trkpt>
      <trkpt lat="41.817465" lon="2.882141">
        <ele>148.0</ele>
        <time>2019-01-14T01:15:12Z</time>
      </trkpt>
      <trkpt lat="41.815626" lon="2.880532">
        <ele>155.0</ele>
        <time>2019-01-14T01:15:47Z</time>
      </trkpt>
      <trkpt lat="41.813810" lon="2.878879">
        <ele>150.0</ele>
        <time>2019-01-14T01:16:22Z</time>
      </trkpt>
      <trkpt lat="41.811971" lon="2.877195">
        <ele>142.0</ele>
        <time>2019-01-14T01:16:58Z</time>
      </trkpt>
      <trkpt lat="41.810196" lon="2.875564">
        <ele>143.0</ele>
        <time>2019-01-14T01:17:33Z</time>
      </trkpt>
      <trkpt lat="41.809348" lon="2.874738">
        <ele>145.0</ele>
        <time>2019-01-14T01:17:49Z</time>
      </trkpt>
      <trkpt lat="41.809028" lon="2.874459">
        <ele>146.0</ele>
        <time>2019-01-14T01:17:55Z</time>
      </trkpt>
      <trkpt lat="41.808509" lon="2.874008">
        <ele>146.0</ele>
        <time>2019-01-14T01:18:05Z</time>
      </trkpt>
      <trkpt lat="41.808093" lon="2.873579">
        <ele>146.0</ele>
        <time>2019-01-14T01:18:14Z</time>
      </trkpt>
      <trkpt lat="41.806277" lon="2.871884">
        <ele>151.0</ele>
        <time>2019-01-14T01:18:49Z</time>
      </trkpt>
      <trkpt lat="41.804454" lon="2.870200">
        <ele>152.0</ele>
        <time>2019-01-14T01:19:25Z</time>
      </trkpt>
      <trkpt lat="41.802639" lon="2.868483">
        <ele>157.0</ele>
        <time>2019-01-14T01:20:00Z</time>
      </trkpt>
      <trkpt lat="41.801959" lon="2.867711">
        <ele>159.0</ele>
        <time>2019-01-14T01:20:14Z</time>
      </trkpt>
      <trkpt lat="41.800519" lon="2.865522">
        <ele>165.0</ele>
        <time>2019-01-14T01:20:49Z</time>
      </trkpt>
      <trkpt lat="41.799215" lon="2.863526">
        <ele>170.0</ele>
        <time>2019-01-14T01:21:21Z</time>
      </trkpt>
      <trkpt lat="41.799055" lon="2.863129">
        <ele>171.0</ele>
        <time>2019-01-14T01:21:26Z</time>
      </trkpt>
      <trkpt lat="41.798943" lon="2.862099">
        <ele>174.0</ele>
        <time>2019-01-14T01:21:39Z</time>
      </trkpt>
      <trkpt lat="41.798616" lon="2.861080">
        <ele>180.0</ele>
        <time>2019-01-14T01:21:52Z</time>
      </trkpt>
      <trkpt lat="41.798200" lon="2.860340">
        <ele>185.0</ele>
        <time>2019-01-14T01:22:03Z</time>
      </trkpt>
      <trkpt lat="41.797712" lon="2.860190">
        <ele>188.0</ele>
        <time>2019-01-14T01:22:11Z</time>
      </trkpt>
      <trkpt lat="41.797176" lon="2.860469">
        <ele>192.0</ele>
        <time>2019-01-14T01:22:20Z</time>
      </trkpt>
      <trkpt lat="41.796344" lon="2.860984">
        <ele>199.0</ele>
        <time>2019-01-14T01:22:35Z</time>
      </trkpt>
      <trkpt lat="41.795848" lon="2.860973">
        <ele>202.0</ele>
        <time>2019-01-14T01:22:43Z</time>
      </trkpt>
      <trkpt lat="41.794256" lon="2.859707">
        <ele>215.0</ele>
        <time>2019-01-14T01:23:13Z</time>
      </trkpt>
      <trkpt lat="41.793952" lon="2.859814">
        <ele>218.0</ele>
        <time>2019-01-14T01:23:18Z</time>
      </trkpt>
      <trkpt lat="41.793456" lon="2.860372">
        <ele>223.0</ele>
        <time>2019-01-14T01:23:28Z</time>
      </trkpt>
      <trkpt lat="41.793288" lon="2.860447">
        <ele>224.0</ele>
        <time>2019-01-14T01:23:31Z</time>
      </trkpt>
      <trkpt lat="41.792641" lon="2.860458">
        <ele>229.0</ele>
        <time>2019-01-14T01:23:41Z</time>
      </trkpt>
      <trkpt lat="41.791473" lon="2.860458">
        <ele>236.0</ele>
        <time>2019-01-14T01:24:00Z</time>
      </trkpt>
      <trkpt lat="41.791265" lon="2.860340">
        <ele>238.0</ele>
        <time>2019-01-14T01:24:03Z</time>
      </trkpt>
      <trkpt lat="41.790985" lon="2.859900">
        <ele>240.0</ele>
        <time>2019-01-14T01:24:10Z</time>
      </trkpt>
      <trkpt lat="41.790569" lon="2.859299">
        <ele>244.0</ele>
        <time>2019-01-14T01:24:20Z</time>
      </trkpt>
      <trkpt lat="41.790121" lon="2.859213">
        <ele>246.0</ele>
        <time>2019-01-14T01:24:27Z</time>
      </trkpt>
      <trkpt lat="41.789793" lon="2.859428">
        <ele>247.0</ele>
        <time>2019-01-14T01:24:33Z</time>
      </trkpt>
      <trkpt lat="41.789497" lon="2.859868">
        <ele>248.0</ele>
        <time>2019-01-14T01:24:40Z</time>
      </trkpt>
      <trkpt lat="41.789235" lon="2.860133">
        <ele>248.0</ele>
        <time>2019-01-14T01:24:46Z</time>
      </trkpt>
      <trkpt lat="41.789033" lon="2.860090">
        <ele>248.0</ele>
        <time>2019-01-14T01:24:49Z</time>
      </trkpt>
      <trkpt lat="41.788689" lon="2.859632">
        <ele>249.0</ele>
        <time>2019-01-14T01:24:57Z</time>
      </trkpt>
      <trkpt lat="41.788457" lon="2.859578">
        <ele>249.0</ele>
        <time>2019-01-14T01:25:00Z</time>
      </trkpt>
      <trkpt lat="41.788309" lon="2.859718">
        <ele>249.0</ele>
        <time>2019-01-14T01:25:03Z</time>
      </trkpt>
      <trkpt lat="41.788221" lon="2.860098">
        <ele>249.0</ele>
        <time>2019-01-14T01:25:08Z</time>
      </trkpt>
      <trkpt lat="41.788233" lon="2.860377">
        <ele>249.0</ele>
        <time>2019-01-14T01:25:11Z</time>
      </trkpt>
      <trkpt lat="41.788177" lon="2.860597">
        <ele>249.0</ele>
        <time>2019-01-14T01:25:14Z</time>
      </trkpt>
      <trkpt lat="41.788053" lon="2.860764">
        <ele>249.0</ele>
        <time>2019-01-14T01:25:17Z</time>
      </trkpt>
      <trkpt lat="41.787781" lon="2.860758">
        <ele>249.0</ele>
        <time>2019-01-14T01:25:21Z</time>
      </trkpt>
      <trkpt lat="41.787405" lon="2.860479">
        <ele>249.0</ele>
        <time>2019-01-14T01:25:28Z</time>
      </trkpt>
      <trkpt lat="41.787153" lon="2.860517">
        <ele>249.0</ele>
        <time>2019-01-14T01:25:32Z</time>
      </trkpt>
      <trkpt lat="41.786877" lon="2.861005">
        <ele>249.0</ele>
        <time>2019-01-14T01:25:40Z</time>
      </trkpt>
      <trkpt lat="41.786585" lon="2.861547">
        <ele>249.0</ele>
        <time>2019-01-14T01:25:48Z</time>
      </trkpt>
      <trkpt lat="41.786421" lon="2.861686">
        <ele>249.0</ele>
        <time>2019-01-14T01:25:51Z</time>
      </trkpt>
      <trkpt lat="41.785913" lon="2.861756">
        <ele>249.0</ele>
        <time>2019-01-14T01:25:59Z</time>
      </trkpt>
      <trkpt lat="41.785685" lon="2.861917">
        <ele>249.0</ele>
        <time>2019-01-14T01:26:03Z</time>
      </trkpt>
      <trkpt lat="41.785485" lon="2.862250">
        <ele>248.0</ele>
        <time>2019-01-14T01:26:08Z</time>
      </trkpt>
      <trkpt lat="41.785401" lon="2.862545">
        <ele>248.0</ele>
        <time>2019-01-14T01:26:12Z</time>
      </trkpt>
      <trkpt lat="41.785221" lon="2.862818">
        <ele>248.0</ele>
        <time>2019-01-14T01:26:16Z</time>
      </trkpt>
      <trkpt lat="41.785005" lon="2.862850">
        <ele>248.0</ele>
        <time>2019-01-14T01:26:20Z</time>
      </trkpt>
      <trkpt lat="41.784849" lon="2.862754">
        <ele>248.0</ele>
        <time>2019-01-14T01:26:22Z</time>
      </trkpt>
      <trkpt lat="41.784753" lon="2.862502">
        <ele>248.0</ele>
        <time>2019-01-14T01:26:26Z</time>
      </trkpt>
      <trkpt lat="41.784641" lon="2.862089">
        <ele>249.0</ele>
        <time>2019-01-14T01:26:31Z</time>
      </trkpt>
      <trkpt lat="41.784309" lon="2.861676">
        <ele>251.0</ele>
        <time>2019-01-14T01:26:38Z</time>
      </trkpt>
      <trkpt lat="41.783869" lon="2.861713">
        <ele>251.0</ele>
        <time>2019-01-14T01:26:45Z</time>
      </trkpt>
      <trkpt lat="41.783643" lon="2.861968">
        <ele>251.0</ele>
        <time>2019-01-14T01:26:50Z</time>
      </trkpt>
      <trkpt lat="41.783273" lon="2.862539">
        <ele>250.0</ele>
        <time>2019-01-14T01:26:59Z</time>
      </trkpt>
      <trkpt lat="41.782541" lon="2.863666">
        <ele>246.0</ele>
        <time>2019-01-14T01:27:17Z</time>
      </trkpt>
      <trkpt lat="41.781925" lon="2.864470">
        <ele>242.0</ele>
        <time>2019-01-14T01:27:31Z</time>
      </trkpt>
      <trkpt lat="41.780745" lon="2.865667">
        <ele>239.0</ele>
        <time>2019-01-14T01:27:54Z</time>
      </trkpt>
      <trkpt lat="41.780429" lon="2.865908">
        <ele>237.0</ele>
        <time>2019-01-14T01:28:00Z</time>
      </trkpt>
      <trkpt lat="41.779597" lon="2.866176">
        <ele>235.0</ele>
        <time>2019-01-14T01:28:14Z</time>
      </trkpt>
      <trkpt lat="41.779109" lon="2.866697">
        <ele>235.0</ele>
        <time>2019-01-14T01:28:24Z</time>
      </trkpt>
      <trkpt lat="41.778645" lon="2.867281">
        <ele>237.0</ele>
        <time>2019-01-14T01:28:34Z</time>
      </trkpt>
      <trkpt lat="41.777901" lon="2.867399">
        <ele>239.0</ele>
        <time>2019-01-14T01:28:46Z</time>
      </trkpt>
      <trkpt lat="41.777289" lon="2.867764">
        <ele>243.0</ele>
        <time>2019-01-14T01:28:57Z</time>
      </trkpt>
      <trkpt lat="41.776769" lon="2.868419">
        <ele>244.0</ele>
        <time>2019-01-14T01:29:08Z</time>
      </trkpt>
      <trkpt lat="41.775940" lon="2.868730">
        <ele>250.0</ele>
        <time>2019-01-14T01:29:22Z</time>
      </trkpt>
      <trkpt lat="41.774808" lon="2.869379">
        <ele>259.0</ele>
        <time>2019-01-14T01:29:42Z</time>
      </trkpt>
      <trkpt lat="41.774024" lon="2.870114">
        <ele>266.0</ele>
        <time>2019-01-14T01:29:57Z</time>
      </trkpt>
      <trkpt lat="41.773088" lon="2.871552">
        <ele>267.0</ele>
        <time>2019-01-14T01:30:20Z</time>
      </trkpt>
      <trkpt lat="41.772272" lon="2.872828">
        <ele>261.0</ele>
        <time>2019-01-14T01:30:40Z</time>
      </trkpt>
      <trkpt lat="41.771520" lon="2.873794">
        <ele>254.0</ele>
        <time>2019-01-14T01:30:57Z</time>
      </trkpt>
      <trkpt lat="41.771240" lon="2.874341">
        <ele>251.0</ele>
        <time>2019-01-14T01:31:04Z</time>
      </trkpt>
      <trkpt lat="41.771240" lon="2.874995">
        <ele>249.0</ele>
        <time>2019-01-14T01:31:12Z</time>
      </trkpt>
      <trkpt lat="41.771224" lon="2.875350">
        <ele>247.0</ele>
        <time>2019-01-14T01:31:17Z</time>
      </trkpt>
      <trkpt lat="41.771064" lon="2.875521">
        <ele>246.0</ele>
        <time>2019-01-14T01:31:20Z</time>
      </trkpt>
      <trkpt lat="41.770808" lon="2.875650">
        <ele>244.0</ele>
        <time>2019-01-14T01:31:24Z</time>
      </trkpt>
      <trkpt lat="41.770728" lon="2.875918">
        <ele>243.0</ele>
        <time>2019-01-14T01:31:28Z</time>
      </trkpt>
      <trkpt lat="41.770784" lon="2.876154">
        <ele>243.0</ele>
        <time>2019-01-14T01:31:31Z</time>
      </trkpt>
      <trkpt lat="41.771032" lon="2.876498">
        <ele>241.0</ele>
        <time>2019-01-14T01:31:36Z</time>
      </trkpt>
      <trkpt lat="41.771160" lon="2.876787">
        <ele>240.0</ele>
        <time>2019-01-14T01:31:40Z</time>
      </trkpt>
      <trkpt lat="41.771104" lon="2.877002">
        <ele>239.0</ele>
        <time>2019-01-14T01:31:43Z</time>
      </trkpt>
      <trkpt lat="41.770856" lon="2.877259">
        <ele>236.0</ele>
        <time>2019-01-14T01:31:48Z</time>
      </trkpt>
      <trkpt lat="41.770648" lon="2.877549">
        <ele>234.0</ele>
        <time>2019-01-14T01:31:53Z</time>
      </trkpt>
      <trkpt lat="41.770624" lon="2.877806">
        <ele>233.0</ele>
        <time>2019-01-14T01:31:56Z</time>
      </trkpt>
      <trkpt lat="41.770760" lon="2.878289">
        <ele>231.0</ele>
        <time>2019-01-14T01:32:02Z</time>
      </trkpt>
      <trkpt lat="41.770750" lon="2.878458">
        <ele>230.0</ele>
        <time>2019-01-14T01:32:04Z</time>
      </trkpt>
      <trkpt lat="41.770610" lon="2.878662">
        <ele>228.0</ele>
        <time>2019-01-14T01:32:07Z</time>
      </trkpt>
      <trkpt lat="41.770333" lon="2.878667">
        <ele>226.0</ele>
        <time>2019-01-14T01:32:12Z</time>
      </trkpt>
      <trkpt lat="41.770151" lon="2.878675">
        <ele>224.0</ele>
        <time>2019-01-14T01:32:15Z</time>
      </trkpt>
      <trkpt lat="41.769887" lon="2.878828">
        <ele>222.0</ele>
        <time>2019-01-14T01:32:19Z</time>
      </trkpt>
      <trkpt lat="41.769555" lon="2.879756">
        <ele>217.0</ele>
        <time>2019-01-14T01:32:32Z</time>
      </trkpt>
      <trkpt lat="41.769285" lon="2.880076">
        <ele>215.0</ele>
        <time>2019-01-14T01:32:37Z</time>
      </trkpt>
      <trkpt lat="41.769019" lon="2.880124">
        <ele>213.0</ele>
        <time>2019-01-14T01:32:42Z</time>
      </trkpt>
      <trkpt lat="41.768115" lon="2.880180">
        <ele>206.0</ele>
        <time>2019-01-14T01:32:56Z</time>
      </trkpt>
      <trkpt lat="41.767849" lon="2.880279">
        <ele>204.0</ele>
        <time>2019-01-14T01:33:01Z</time>
      </trkpt>
      <trkpt lat="41.767723" lon="2.880577">
        <ele>202.0</ele>
        <time>2019-01-14T01:33:05Z</time>
      </trkpt>
      <trkpt lat="41.767779" lon="2.880784">
        <ele>202.0</ele>
        <time>2019-01-14T01:33:07Z</time>
      </trkpt>
      <trkpt lat="41.767949" lon="2.880977">
        <ele>200.0</ele>
        <time>2019-01-14T01:33:11Z</time>
      </trkpt>
      <trkpt lat="41.768207" lon="2.881073">
        <ele>198.0</ele>
        <time>2019-01-14T01:33:15Z</time>
      </trkpt>
      <trkpt lat="41.768527" lon="2.881315">
        <ele>195.0</ele>
        <time>2019-01-14T01:33:21Z</time>
      </trkpt>
      <trkpt lat="41.768641" lon="2.881631">
        <ele>193.0</ele>
        <time>2019-01-14T01:33:25Z</time>
      </trkpt>
      <trkpt lat="41.768631" lon="2.882321">
        <ele>189.0</ele>
        <time>2019-01-14T01:33:34Z</time>
      </trkpt>
      <trkpt lat="41.768491" lon="2.882862">
        <ele>185.0</ele>
        <time>2019-01-14T01:33:40Z</time>
      </trkpt>
      <trkpt lat="41.768335" lon="2.883192">
        <ele>182.0</ele>
        <time>2019-01-14T01:33:45Z</time>
      </trkpt>
      <trkpt lat="41.767821" lon="2.883750">
        <ele>176.0</ele>
        <time>2019-01-14T01:33:56Z</time>
      </trkpt>
      <trkpt lat="41.767255" lon="2.883965">
        <ele>171.0</ele>
        <time>2019-01-14T01:34:05Z</time>
      </trkpt>
      <trkpt lat="41.766679" lon="2.883933">
        <ele>165.0</ele>
        <time>2019-01-14T01:34:14Z</time>
      </trkpt>
      <trkpt lat="41.766082" lon="2.883734">
        <ele>160.0</ele>
        <time>2019-01-14T01:34:24Z</time>
      </trkpt>
      <trkpt lat="41.765350" lon="2.883407">
        <ele>153.0</ele>
        <time>2019-01-14T01:34:37Z</time>
      </trkpt>
      <trkpt lat="41.764798" lon="2.883525">
        <ele>148.0</ele>
        <time>2019-01-14T01:34:45Z</time>
      </trkpt>
      <trkpt lat="41.764558" lon="2.883815">
        <ele>146.0</ele>
        <time>2019-01-14T01:34:51Z</time>
      </trkpt>
      <trkpt lat="41.764518" lon="2.884319">
        <ele>143.0</ele>
        <time>2019-01-14T01:34:57Z</time>
      </trkpt>
      <trkpt lat="41.764878" lon="2.885113">
        <ele>139.0</ele>
        <time>2019-01-14T01:35:08Z</time>
      </trkpt>
      <trkpt lat="41.765158" lon="2.885885">
        <ele>135.0</ele>
        <time>2019-01-14T01:35:18Z</time>
      </trkpt>
      <trkpt lat="41.765102" lon="2.886229">
        <ele>134.0</ele>
        <time>2019-01-14T01:35:22Z</time>
      </trkpt>
      <trkpt lat="41.764766" lon="2.886229">
        <ele>132.0</ele>
        <time>2019-01-14T01:35:28Z</time>
      </trkpt>
      <trkpt lat="41.764566" lon="2.885885">
        <ele>131.0</ele>
        <time>2019-01-14T01:35:33Z</time>
      </trkpt>
      <trkpt lat="41.763742" lon="2.884533">
        <ele>127.0</ele>
        <time>2019-01-14T01:35:54Z</time>
      </trkpt>
      <trkpt lat="41.763486" lon="2.884383">
        <ele>126.0</ele>
        <time>2019-01-14T01:35:58Z</time>
      </trkpt>
      <trkpt lat="41.763213" lon="2.884340">
        <ele>125.0</ele>
        <time>2019-01-14T01:36:03Z</time>
      </trkpt>
      <trkpt lat="41.762125" lon="2.884598">
        <ele>120.0</ele>
        <time>2019-01-14T01:36:20Z</time>
      </trkpt>
      <trkpt lat="41.761477" lon="2.884598">
        <ele>120.0</ele>
        <time>2019-01-14T01:36:31Z</time>
      </trkpt>
      <trkpt lat="41.760605" lon="2.884512">
        <ele>119.0</ele>
        <time>2019-01-14T01:36:45Z</time>
      </trkpt>
      <trkpt lat="41.759868" lon="2.884673">
        <ele>116.0</ele>
        <time>2019-01-14T01:36:57Z</time>
      </trkpt>
      <trkpt lat="41.759044" lon="2.884855">
        <ele>112.0</ele>
        <time>2019-01-14T01:37:10Z</time>
      </trkpt>
      <trkpt lat="41.757819" lon="2.885263">
        <ele>107.0</ele>
        <time>2019-01-14T01:37:30Z</time>
      </trkpt>
      <trkpt lat="41.757347" lon="2.885563">
        <ele>104.0</ele>
        <time>2019-01-14T01:37:39Z</time>
      </trkpt>
      <trkpt lat="41.756787" lon="2.886143">
        <ele>100.0</ele>
        <time>2019-01-14T01:37:50Z</time>
      </trkpt>
      <trkpt lat="41.756123" lon="2.887580">
        <ele>101.0</ele>
        <time>2019-01-14T01:38:10Z</time>
      </trkpt>
      <trkpt lat="41.755803" lon="2.888138">
        <ele>102.0</ele>
        <time>2019-01-14T01:38:18Z</time>
      </trkpt>
      <trkpt lat="41.755466" lon="2.888428">
        <ele>102.0</ele>
        <time>2019-01-14T01:38:25Z</time>
      </trkpt>
      <trkpt lat="41.754946" lon="2.888632">
        <ele>102.0</ele>
        <time>2019-01-14T01:38:34Z</time>
      </trkpt>
      <trkpt lat="41.754250" lon="2.888793">
        <ele>100.0</ele>
        <time>2019-01-14T01:38:45Z</time>
      </trkpt>
      <trkpt lat="41.753802" lon="2.889018">
        <ele>98.0</ele>
        <time>2019-01-14T01:38:52Z</time>
      </trkpt>
      <trkpt lat="41.753489" lon="2.889372">
        <ele>95.0</ele>
        <time>2019-01-14T01:38:59Z</time>
      </trkpt>
      <trkpt lat="41.753201" lon="2.890091">
        <ele>92.0</ele>
        <time>2019-01-14T01:39:09Z</time>
      </trkpt>
      <trkpt lat="41.752929" lon="2.890606">
        <ele>89.0</ele>
        <time>2019-01-14T01:39:16Z</time>
      </trkpt>
      <trkpt lat="41.752177" lon="2.891282">
        <ele>86.0</ele>
        <time>2019-01-14T01:39:31Z</time>
      </trkpt>
      <trkpt lat="41.751953" lon="2.891335">
        <ele>86.0</ele>
        <time>2019-01-14T01:39:34Z</time>
      </trkpt>
      <trkpt lat="41.751512" lon="2.891228">
        <ele>83.0</ele>
        <time>2019-01-14T01:39:42Z</time>
      </trkpt>
      <trkpt lat="41.750792" lon="2.891132">
        <ele>79.0</ele>
        <time>2019-01-14T01:39:53Z</time>
      </trkpt>
      <trkpt lat="41.750272" lon="2.891153">
        <ele>77.0</ele>
        <time>2019-01-14T01:40:02Z</time>
      </trkpt>
      <trkpt lat="41.749463" lon="2.891411">
        <ele>76.0</ele>
        <time>2019-01-14T01:40:15Z</time>
      </trkpt>
      <trkpt lat="41.748647" lon="2.891754">
        <ele>74.0</ele>
        <time>2019-01-14T01:40:29Z</time>
      </trkpt>
      <trkpt lat="41.747935" lon="2.892312">
        <ele>74.0</ele>
        <time>2019-01-14T01:40:42Z</time>
      </trkpt>
      <trkpt lat="41.747254" lon="2.892956">
        <ele>73.0</ele>
        <time>2019-01-14T01:40:55Z</time>
      </trkpt>
      <trkpt lat="41.746462" lon="2.893717">
        <ele>71.0</ele>
        <time>2019-01-14T01:41:11Z</time>
      </trkpt>
      <trkpt lat="41.745981" lon="2.893996">
        <ele>68.0</ele>
        <time>2019-01-14T01:41:19Z</time>
      </trkpt>
      <trkpt lat="41.745341" lon="2.894168">
        <ele>71.0</ele>
        <time>2019-01-14T01:41:30Z</time>
      </trkpt>
      <trkpt lat="41.744565" lon="2.894275">
        <ele>69.0</ele>
        <time>2019-01-14T01:41:42Z</time>
      </trkpt>
      <trkpt lat="41.743956" lon="2.894372">
        <ele>67.0</ele>
        <time>2019-01-14T01:41:52Z</time>
      </trkpt>
      <trkpt lat="41.743116" lon="2.894565">
        <ele>64.0</ele>
        <time>2019-01-14T01:42:06Z</time>
      </trkpt>
      <trkpt lat="41.742787" lon="2.894726">
        <ele>64.0</ele>
        <time>2019-01-14T01:42:11Z</time>
      </trkpt>
      <trkpt lat="41.742459" lon="2.895262">
        <ele>64.0</ele>
        <time>2019-01-14T01:42:19Z</time>
      </trkpt>
      <trkpt lat="41.742339" lon="2.896357">
        <ele>62.0</ele>
        <time>2019-01-14T01:42:33Z</time>
      </trkpt>
      <trkpt lat="41.742275" lon="2.897590">
        <ele>65.0</ele>
        <time>2019-01-14T01:42:47Z</time>
      </trkpt>
      <trkpt lat="41.742099" lon="2.898234">
        <ele>65.0</ele>
        <time>2019-01-14T01:42:56Z</time>
      </trkpt>
      <trkpt lat="41.741771" lon="2.898556">
        <ele>65.0</ele>
        <time>2019-01-14T01:43:02Z</time>
      </trkpt>
      <trkpt lat="41.741386" lon="2.898663">
        <ele>65.0</ele>
        <time>2019-01-14T01:43:08Z</time>
      </trkpt>
      <trkpt lat="41.741138" lon="2.898610">
        <ele>64.0</ele>
        <time>2019-01-14T01:43:12Z</time>
      </trkpt>
      <trkpt lat="41.740810" lon="2.898384">
        <ele>63.0</ele>
        <time>2019-01-14T01:43:18Z</time>
      </trkpt>
      <trkpt lat="41.740538" lon="2.897859">
        <ele>61.0</ele>
        <time>2019-01-14T01:43:26Z</time>
      </trkpt>
      <trkpt lat="41.740386" lon="2.897494">
        <ele>60.0</ele>
        <time>2019-01-14T01:43:31Z</time>
      </trkpt>
      <trkpt lat="41.740114" lon="2.897000">
        <ele>59.0</ele>
        <time>2019-01-14T01:43:38Z</time>
      </trkpt>
      <trkpt lat="41.739665" lon="2.896754">
        <ele>58.0</ele>
        <time>2019-01-14T01:43:46Z</time>
      </trkpt>
      <trkpt lat="41.739305" lon="2.896732">
        <ele>56.0</ele>
        <time>2019-01-14T01:43:52Z</time>
      </trkpt>
      <trkpt lat="41.738865" lon="2.896882">
        <ele>55.0</ele>
        <time>2019-01-14T01:43:59Z</time>
      </trkpt>
      <trkpt lat="41.738112" lon="2.897097">
        <ele>54.0</ele>
        <time>2019-01-14T01:44:11Z</time>
      </trkpt>
      <trkpt lat="41.737472" lon="2.897032">
        <ele>53.0</ele>
        <time>2019-01-14T01:44:22Z</time>
      </trkpt>
      <trkpt lat="41.736967" lon="2.896829">
        <ele>52.0</ele>
        <time>2019-01-14T01:44:30Z</time>
      </trkpt>
      <trkpt lat="41.736295" lon="2.896217">
        <ele>52.0</ele>
        <time>2019-01-14T01:44:43Z</time>
      </trkpt>
      <trkpt lat="41.735470" lon="2.895788">
        <ele>51.0</ele>
        <time>2019-01-14T01:44:57Z</time>
      </trkpt>
      <trkpt lat="41.734766" lon="2.895949">
        <ele>51.0</ele>
        <time>2019-01-14T01:45:09Z</time>
      </trkpt>
      <trkpt lat="41.734277" lon="2.896357">
        <ele>50.0</ele>
        <time>2019-01-14T01:45:18Z</time>
      </trkpt>
      <trkpt lat="41.733541" lon="2.897558">
        <ele>49.0</ele>
        <time>2019-01-14T01:45:37Z</time>
      </trkpt>
      <trkpt lat="41.733076" lon="2.898288">
        <ele>47.0</ele>
        <time>2019-01-14T01:45:48Z</time>
      </trkpt>
      <trkpt lat="41.732692" lon="2.898599">
        <ele>45.0</ele>
        <time>2019-01-14T01:45:55Z</time>
      </trkpt>
      <trkpt lat="41.732300" lon="2.898749">
        <ele>44.0</ele>
        <time>2019-01-14T01:46:02Z</time>
      </trkpt>
      <trkpt lat="41.731467" lon="2.898889">
        <ele>41.0</ele>
        <time>2019-01-14T01:46:15Z</time>
      </trkpt>
      <trkpt lat="41.730218" lon="2.899050">
        <ele>41.0</ele>
        <time>2019-01-14T01:46:35Z</time>
      </trkpt>
      <trkpt lat="41.729345" lon="2.899178">
        <ele>41.0</ele>
        <time>2019-01-14T01:46:49Z</time>
      </trkpt>
      <trkpt lat="41.728889" lon="2.899436">
        <ele>41.0</ele>
        <time>2019-01-14T01:46:57Z</time>
      </trkpt>
      <trkpt lat="41.728480" lon="2.899822">
        <ele>41.0</ele>
        <time>2019-01-14T01:47:05Z</time>
      </trkpt>
      <trkpt lat="41.728328" lon="2.900230">
        <ele>41.0</ele>
        <time>2019-01-14T01:47:11Z</time>
      </trkpt>
      <trkpt lat="41.728256" lon="2.901002">
        <ele>40.0</ele>
        <time>2019-01-14T01:47:20Z</time>
      </trkpt>
      <trkpt lat="41.728168" lon="2.902493">
        <ele>36.0</ele>
        <time>2019-01-14T01:47:38Z</time>
      </trkpt>
      <trkpt lat="41.728136" lon="2.903813">
        <ele>33.0</ele>
        <time>2019-01-14T01:47:54Z</time>
      </trkpt>
      <trkpt lat="41.728264" lon="2.904671">
        <ele>33.0</ele>
        <time>2019-01-14T01:48:04Z</time>
      </trkpt>
      <trkpt lat="41.728961" lon="2.906013">
        <ele>33.0</ele>
        <time>2019-01-14T01:48:24Z</time>
      </trkpt>
      <trkpt lat="41.730018" lon="2.907922">
        <ele>32.0</ele>
        <time>2019-01-14T01:48:52Z</time>
      </trkpt>
      <trkpt lat="41.730858" lon="2.909521">
        <ele>30.0</ele>
        <time>2019-01-14T01:49:15Z</time>
      </trkpt>
      <trkpt lat="41.731195" lon="2.910347">
        <ele>30.0</ele>
        <time>2019-01-14T01:49:27Z</time>
      </trkpt>
      <trkpt lat="41.731283" lon="2.910873">
        <ele>30.0</ele>
        <time>2019-01-14T01:49:33Z</time>
      </trkpt>
      <trkpt lat="41.731243" lon="2.911613">
        <ele>27.0</ele>
        <time>2019-01-14T01:49:42Z</time>
      </trkpt>
      <trkpt lat="41.731107" lon="2.912353">
        <ele>24.0</ele>
        <time>2019-01-14T01:49:51Z</time>
      </trkpt>
      <trkpt lat="41.730802" lon="2.914435">
        <ele>27.0</ele>
        <time>2019-01-14T01:50:16Z</time>
      </trkpt>
      <trkpt lat="41.730530" lon="2.915529">
        <ele>26.0</ele>
        <time>2019-01-14T01:50:30Z</time>
      </trkpt>
      <trkpt lat="41.730146" lon="2.916377">
        <ele>26.0</ele>
        <time>2019-01-14T01:50:42Z</time>
      </trkpt>
      <trkpt lat="41.729673" lon="2.917278">
        <ele>23.0</ele>
        <time>2019-01-14T01:50:55Z</time>
      </trkpt>
      <trkpt lat="41.729025" lon="2.918351">
        <ele>19.0</ele>
        <time>2019-01-14T01:51:12Z</time>
      </trkpt>
      <trkpt lat="41.728809" lon="2.918404">
        <ele>19.0</ele>
        <time>2019-01-14T01:51:15Z</time>
      </trkpt>
      <trkpt lat="41.728753" lon="2.918726">
        <ele>20.0</ele>
        <time>2019-01-14T01:51:19Z</time>
      </trkpt>
      <trkpt lat="41.728769" lon="2.918930">
        <ele>19.0</ele>
        <time>2019-01-14T01:51:22Z</time>
      </trkpt>
      <trkpt lat="41.728512" lon="2.919381">
        <ele>20.0</ele>
        <time>2019-01-14T01:51:28Z</time>
      </trkpt>
      <trkpt lat="41.728400" lon="2.919960">
        <ele>19.0</ele>
        <time>2019-01-14T01:51:36Z</time>
      </trkpt>
      <trkpt lat="41.728376" lon="2.920883">
        <ele>18.0</ele>
        <time>2019-01-14T01:51:47Z</time>
      </trkpt>
      <trkpt lat="41.728464" lon="2.923007">
        <ele>17.0</ele>
        <time>2019-01-14T01:52:12Z</time>
      </trkpt>
      <trkpt lat="41.728280" lon="2.923543">
        <ele>17.0</ele>
        <time>2019-01-14T01:52:19Z</time>
      </trkpt>
      <trkpt lat="41.727584" lon="2.924852">
        <ele>15.0</ele>
        <time>2019-01-14T01:52:38Z</time>
      </trkpt>
      <trkpt lat="41.727375" lon="2.925314">
        <ele>13.0</ele>
        <time>2019-01-14T01:52:45Z</time>
      </trkpt>
      <trkpt lat="41.727111" lon="2.925496">
        <ele>11.0</ele>
        <time>2019-01-14T01:52:49Z</time>
      </trkpt>
      <trkpt lat="41.726943" lon="2.925496">
        <ele>11.0</ele>
        <time>2019-01-14T01:52:52Z</time>
      </trkpt>
      <trkpt lat="41.726884" lon="2.925765">
        <ele>10.0</ele>
        <time>2019-01-14T01:52:56Z</time>
      </trkpt>
      <trkpt lat="41.726966" lon="2.925967">
        <ele>9.0</ele>
        <time>2019-01-14T01:52:58Z</time>
      </trkpt>
      <trkpt lat="41.726843" lon="2.926278">
        <ele>8.0</ele>
        <time>2019-01-14T01:53:02Z</time>
      </trkpt>
      <trkpt lat="41.726412" lon="2.926654">
        <ele>9.0</ele>
        <time>2019-01-14T01:53:11Z</time>
      </trkpt>
      <trkpt lat="41.725920" lon="2.927103">
        <ele>11.0</ele>
        <time>2019-01-14T01:53:20Z</time>
      </trkpt>
      <trkpt lat="41.725428" lon="2.927488">
        <ele>10.0</ele>
        <time>2019-01-14T01:53:29Z</time>
      </trkpt>
      <trkpt lat="41.725018" lon="2.927873">
        <ele>11.0</ele>
        <time>2019-01-14T01:53:37Z</time>
      </trkpt>
      <trkpt lat="41.724560" lon="2.928257">
        <ele>10.0</ele>
        <time>2019-01-14T01:53:46Z</time>
      </trkpt>
      <trkpt lat="41.724409" lon="2.928276">
        <ele>9.0</ele>
        <time>2019-01-14T01:53:48Z</time>
      </trkpt>
      <trkpt lat="41.724293" lon="2.928294">
        <ele>9.0</ele>
        <time>2019-01-14T01:53:50Z</time>
      </trkpt>
      <trkpt lat="41.724286" lon="2.928477">
        <ele>9.0</ele>
        <time>2019-01-14T01:53:53Z</time>
      </trkpt>
      <trkpt lat="41.723821" lon="2.928853">
        <ele>9.0</ele>
        <time>2019-01-14T01:54:01Z</time>
      </trkpt>
      <trkpt lat="41.723404" lon="2.929274">
        <ele>9.0</ele>
        <time>2019-01-14T01:54:10Z</time>
      </trkpt>
      <trkpt lat="41.722932" lon="2.929677">
        <ele>10.0</ele>
        <time>2019-01-14T01:54:19Z</time>
      </trkpt>
      <trkpt lat="41.722508" lon="2.930025">
        <ele>11.0</ele>
        <time>2019-01-14T01:54:27Z</time>
      </trkpt>
      <trkpt lat="41.722290" lon="2.930126">
        <ele>11.0</ele>
        <time>2019-01-14T01:54:30Z</time>
      </trkpt>
      <trkpt lat="41.722317" lon="2.930401">
        <ele>11.0</ele>
        <time>2019-01-14T01:54:34Z</time>
      </trkpt>
      <trkpt lat="41.722488" lon="2.930566">
        <ele>11.0</ele>
        <time>2019-01-14T01:54:37Z</time>
      </trkpt>
      <trkpt lat="41.722579" lon="2.930646">
        <ele>11.0</ele>
        <time>2019-01-14T01:54:39Z</time>
      </trkpt>
      <trkpt lat="41.723956" lon="2.932684">
        <ele>17.0</ele>
        <time>2019-01-14T01:55:11Z</time>
      </trkpt>
      <trkpt lat="41.725206" lon="2.933049">
        <ele>25.0</ele>
        <time>2019-01-14T01:55:32Z</time>
      </trkpt>
      <trkpt lat="41.726295" lon="2.933972">
        <ele>45.0</ele>
        <time>2019-01-14T01:55:53Z</time>
      </trkpt>
      <trkpt lat="41.726246" lon="2.934272">
        <ele>46.0</ele>
        <time>2019-01-14T01:55:56Z</time>
      </trkpt>
      <trkpt lat="41.725638" lon="2.934358">
        <ele>50.0</ele>
        <time>2019-01-14T01:56:06Z</time>
      </trkpt>
      <trkpt lat="41.725902" lon="2.935313">
        <ele>55.0</ele>
        <time>2019-01-14T01:56:18Z</time>
      </trkpt>
      <trkpt lat="41.725766" lon="2.935807">
        <ele>57.0</ele>
        <time>2019-01-14T01:56:25Z</time>
      </trkpt>
      <trkpt lat="41.725926" lon="2.936364">
        <ele>61.0</ele>
        <time>2019-01-14T01:56:32Z</time>
      </trkpt>
      <trkpt lat="41.726262" lon="2.937362">
        <ele>67.0</ele>
        <time>2019-01-14T01:56:45Z</time>
      </trkpt>
      <trkpt lat="41.726663" lon="2.937695">
        <ele>69.0</ele>
        <time>2019-01-14T01:56:52Z</time>
      </trkpt>
      <trkpt lat="41.726286" lon="2.938027">
        <ele>69.0</ele>
        <time>2019-01-14T01:57:00Z</time>
      </trkpt>
      <trkpt lat="41.726214" lon="2.938446">
        <ele>70.0</ele>
        <time>2019-01-14T01:57:05Z</time>
      </trkpt>
      <trkpt lat="41.725446" lon="2.938317">
        <ele>74.0</ele>
        <time>2019-01-14T01:57:17Z</time>
      </trkpt>
      <trkpt lat="41.725222" lon="2.938596">
        <ele>76.0</ele>
        <time>2019-01-14T01:57:22Z</time>
      </trkpt>
      <trkpt lat="41.725518" lon="2.939304">
        <ele>80.0</ele>
        <time>2019-01-14T01:57:32Z</time>
      </trkpt>
      <trkpt lat="41.726535" lon="2.940388">
        <ele>87.0</ele>
        <time>2019-01-14T01:57:52Z</time>
      </trkpt>
      <trkpt lat="41.726190" lon="2.940860">
        <ele>90.0</ele>
        <time>2019-01-14T01:58:00Z</time>
      </trkpt>
      <trkpt lat="41.726455" lon="2.941439">
        <ele>94.0</ele>
        <time>2019-01-14T01:58:08Z</time>
      </trkpt>
      <trkpt lat="41.726238" lon="2.942104">
        <ele>94.0</ele>
        <time>2019-01-14T01:58:17Z</time>
      </trkpt>
      <trkpt lat="41.726711" lon="2.943875">
        <ele>105.0</ele>
        <time>2019-01-14T01:58:40Z</time>
      </trkpt>
      <trkpt lat="41.728280" lon="2.944143">
        <ele>109.0</ele>
        <time>2019-01-14T01:59:05Z</time>
      </trkpt>
      <trkpt lat="41.728561" lon="2.944379">
        <ele>109.0</ele>
        <time>2019-01-14T01:59:10Z</time>
      </trkpt>
      <trkpt lat="41.728913" lon="2.943714">
        <ele>106.0</ele>
        <time>2019-01-14T01:59:20Z</time>
      </trkpt>
      <trkpt lat="41.729802" lon="2.942898">
        <ele>100.0</ele>
        <time>2019-01-14T01:59:37Z</time>
      </trkpt>
      <trkpt lat="41.729273" lon="2.941793">
        <ele>95.0</ele>
        <time>2019-01-14T01:59:53Z</time>
      </trkpt>
      <trkpt lat="41.729673" lon="2.941278">
        <ele>92.0</ele>
        <time>2019-01-14T02:00:02Z</time>
      </trkpt>
      <trkpt lat="41.730042" lon="2.941493">
        <ele>91.0</ele>
        <time>2019-01-14T02:00:08Z</time>
      </trkpt>
      <trkpt lat="41.731035" lon="2.942169">
        <ele>85.0</ele>
        <time>2019-01-14T02:00:26Z</time>
      </trkpt>
      <trkpt lat="41.731347" lon="2.943220">
        <ele>81.0</ele>
        <time>2019-01-14T02:00:40Z</time>
      </trkpt>
      <trkpt lat="41.731923" lon="2.943156">
        <ele>78.0</ele>
        <time>2019-01-14T02:00:49Z</time>
      </trkpt>
      <trkpt lat="41.731755" lon="2.943842">
        <ele>75.0</ele>
        <time>2019-01-14T02:00:57Z</time>
      </trkpt>
      <trkpt lat="41.731259" lon="2.944357">
        <ele>72.0</ele>
        <time>2019-01-14T02:01:08Z</time>
      </trkpt>
      <trkpt lat="41.731187" lon="2.944776">
        <ele>70.0</ele>
        <time>2019-01-14T02:01:13Z</time>
      </trkpt>
      <trkpt lat="41.731019" lon="2.945269">
        <ele>68.0</ele>
        <time>2019-01-14T02:01:19Z</time>
      </trkpt>
      <trkpt lat="41.731227" lon="2.945945">
        <ele>67.0</ele>
        <time>2019-01-14T02:01:28Z</time>
      </trkpt>
      <trkpt lat="41.731179" lon="2.946771">
        <ele>67.0</ele>
        <time>2019-01-14T02:01:38Z</time>
      </trkpt>
      <trkpt lat="41.731699" lon="2.947876">
        <ele>56.0</ele>
        <time>2019-01-14T02:01:53Z</time>
      </trkpt>
      <trkpt lat="41.731491" lon="2.948595">
        <ele>47.0</ele>
        <time>2019-01-14T02:02:03Z</time>
      </trkpt>
      <trkpt lat="41.731723" lon="2.950376">
        <ele>29.0</ele>
        <time>2019-01-14T02:02:24Z</time>
      </trkpt>
      <trkpt lat="41.732124" lon="2.950301">
        <ele>30.0</ele>
        <time>2019-01-14T02:02:31Z</time>
      </trkpt>
      <trkpt lat="41.733397" lon="2.949615">
        <ele>34.0</ele>
        <time>2019-01-14T02:02:53Z</time>
      </trkpt>
      <trkpt lat="41.734061" lon="2.949668">
        <ele>34.0</ele>
        <time>2019-01-14T02:03:03Z</time>
      </trkpt>
      <trkpt lat="41.734549" lon="2.948745">
        <ele>35.0</ele>
        <time>2019-01-14T02:03:17Z</time>
      </trkpt>
      <trkpt lat="41.734878" lon="2.948145">
        <ele>35.0</ele>
        <time>2019-01-14T02:03:26Z</time>
      </trkpt>
      <trkpt lat="41.735174" lon="2.946482">
        <ele>36.0</ele>
        <time>2019-01-14T02:03:46Z</time>
      </trkpt>
      <trkpt lat="41.735766" lon="2.945495">
        <ele>35.0</ele>
        <time>2019-01-14T02:04:01Z</time>
      </trkpt>
      <trkpt lat="41.736343" lon="2.945441">
        <ele>37.0</ele>
        <time>2019-01-14T02:04:11Z</time>
      </trkpt>
      <trkpt lat="41.736391" lon="2.946782">
        <ele>48.0</ele>
        <time>2019-01-14T02:04:27Z</time>
      </trkpt>
      <trkpt lat="41.736551" lon="2.946954">
        <ele>50.0</ele>
        <time>2019-01-14T02:04:30Z</time>
      </trkpt>
      <trkpt lat="41.737103" lon="2.946900">
        <ele>54.0</ele>
        <time>2019-01-14T02:04:39Z</time>
      </trkpt>
      <trkpt lat="41.737159" lon="2.947630">
        <ele>55.0</ele>
        <time>2019-01-14T02:04:47Z</time>
      </trkpt>
      <trkpt lat="41.737352" lon="2.948166">
        <ele>55.0</ele>
        <time>2019-01-14T02:04:55Z</time>
      </trkpt>
      <trkpt lat="41.737031" lon="2.948767">
        <ele>56.0</ele>
        <time>2019-01-14T02:05:03Z</time>
      </trkpt>
      <trkpt lat="41.736719" lon="2.949153">
        <ele>56.0</ele>
        <time>2019-01-14T02:05:10Z</time>
      </trkpt>
      <trkpt lat="41.736711" lon="2.949647">
        <ele>56.0</ele>
        <time>2019-01-14T02:05:16Z</time>
      </trkpt>
      <trkpt lat="41.737151" lon="2.950097">
        <ele>55.0</ele>
        <time>2019-01-14T02:05:25Z</time>
      </trkpt>
      <trkpt lat="41.737752" lon="2.950248">
        <ele>55.0</ele>
        <time>2019-01-14T02:05:35Z</time>
      </trkpt>
      <trkpt lat="41.738144" lon="2.949786">
        <ele>54.0</ele>
        <time>2019-01-14T02:05:43Z</time>
      </trkpt>
      <trkpt lat="41.739057" lon="2.949861">
        <ele>54.0</ele>
        <time>2019-01-14T02:05:58Z</time>
      </trkpt>
      <trkpt lat="41.739281" lon="2.950687">
        <ele>53.0</ele>
        <time>2019-01-14T02:06:08Z</time>
      </trkpt>
      <trkpt lat="41.739657" lon="2.950634">
        <ele>53.0</ele>
        <time>2019-01-14T02:06:14Z</time>
      </trkpt>
      <trkpt lat="41.740130" lon="2.950001">
        <ele>52.0</ele>
        <time>2019-01-14T02:06:25Z</time>
      </trkpt>
      <trkpt lat="41.740602" lon="2.950301">
        <ele>54.0</ele>
        <time>2019-01-14T02:06:33Z</time>
      </trkpt>
      <trkpt lat="41.739921" lon="2.951750">
        <ele>55.0</ele>
        <time>2019-01-14T02:06:54Z</time>
      </trkpt>
      <trkpt lat="41.739977" lon="2.952576">
        <ele>59.0</ele>
        <time>2019-01-14T02:07:04Z</time>
      </trkpt>
      <trkpt lat="41.739697" lon="2.952479">
        <ele>60.0</ele>
        <time>2019-01-14T02:07:08Z</time>
      </trkpt>
      <trkpt lat="41.738520" lon="2.952082">
        <ele>71.0</ele>
        <time>2019-01-14T02:07:28Z</time>
      </trkpt>
      <trkpt lat="41.738825" lon="2.953627">
        <ele>78.0</ele>
        <time>2019-01-14T02:07:47Z</time>
      </trkpt>
      <trkpt lat="41.738897" lon="2.954550">
        <ele>82.0</ele>
        <time>2019-01-14T02:07:58Z</time>
      </trkpt>
      <trkpt lat="41.738633" lon="2.956460">
        <ele>62.0</ele>
        <time>2019-01-14T02:08:21Z</time>
      </trkpt>
      <trkpt lat="41.738993" lon="2.956685">
        <ele>66.0</ele>
        <time>2019-01-14T02:08:28Z</time>
      </trkpt>
      <trkpt lat="41.739457" lon="2.956449">
        <ele>74.0</ele>
        <time>2019-01-14T02:08:36Z</time>
      </trkpt>
      <trkpt lat="41.740122" lon="2.957017">
        <ele>83.0</ele>
        <time>2019-01-14T02:08:48Z</time>
      </trkpt>
      <trkpt lat="41.740626" lon="2.956427">
        <ele>91.0</ele>
        <time>2019-01-14T02:08:59Z</time>
      </trkpt>
      <trkpt lat="41.741475" lon="2.956170">
        <ele>100.0</ele>
        <time>2019-01-14T02:09:13Z</time>
      </trkpt>
      <trkpt lat="41.741771" lon="2.956921">
        <ele>103.0</ele>
        <time>2019-01-14T02:09:23Z</time>
      </trkpt>
      <trkpt lat="41.741683" lon="2.957479">
        <ele>104.0</ele>
        <time>2019-01-14T02:09:30Z</time>
      </trkpt>
      <trkpt lat="41.741715" lon="2.958637">
        <ele>105.0</ele>
        <time>2019-01-14T02:09:44Z</time>
      </trkpt>
      <trkpt lat="41.742243" lon="2.958766">
        <ele>105.0</ele>
        <time>2019-01-14T02:09:52Z</time>
      </trkpt>
      <trkpt lat="41.742683" lon="2.958444">
        <ele>105.0</ele>
        <time>2019-01-14T02:10:00Z</time>
      </trkpt>
      <trkpt lat="41.743012" lon="2.958809">
        <ele>106.0</ele>
        <time>2019-01-14T02:10:07Z</time>
      </trkpt>
      <trkpt lat="41.743092" lon="2.960354">
        <ele>106.0</ele>
        <time>2019-01-14T02:10:26Z</time>
      </trkpt>
      <trkpt lat="41.743580" lon="2.960966">
        <ele>107.0</ele>
        <time>2019-01-14T02:10:36Z</time>
      </trkpt>
      <trkpt lat="41.744500" lon="2.960858">
        <ele>108.0</ele>
        <time>2019-01-14T02:10:51Z</time>
      </trkpt>
      <trkpt lat="41.746029" lon="2.962972">
        <ele>105.0</ele>
        <time>2019-01-14T02:11:26Z</time>
      </trkpt>
      <trkpt lat="41.746734" lon="2.961878">
        <ele>103.0</ele>
        <time>2019-01-14T02:11:44Z</time>
      </trkpt>
      <trkpt lat="41.747246" lon="2.961888">
        <ele>100.0</ele>
        <time>2019-01-14T02:11:52Z</time>
      </trkpt>
      <trkpt lat="41.747574" lon="2.961363">
        <ele>96.0</ele>
        <time>2019-01-14T02:12:00Z</time>
      </trkpt>
      <trkpt lat="41.746998" lon="2.960011">
        <ele>91.0</ele>
        <time>2019-01-14T02:12:18Z</time>
      </trkpt>
      <trkpt lat="41.747230" lon="2.959721">
        <ele>88.0</ele>
        <time>2019-01-14T02:12:24Z</time>
      </trkpt>
      <trkpt lat="41.747774" lon="2.959603">
        <ele>83.0</ele>
        <time>2019-01-14T02:12:32Z</time>
      </trkpt>
      <trkpt lat="41.747919" lon="2.958895">
        <ele>78.0</ele>
        <time>2019-01-14T02:12:41Z</time>
      </trkpt>
      <trkpt lat="41.748343" lon="2.958155">
        <ele>73.0</ele>
        <time>2019-01-14T02:12:52Z</time>
      </trkpt>
      <trkpt lat="41.748447" lon="2.957211">
        <ele>70.0</ele>
        <time>2019-01-14T02:13:04Z</time>
      </trkpt>
      <trkpt lat="41.749095" lon="2.956513">
        <ele>69.0</ele>
        <time>2019-01-14T02:13:17Z</time>
      </trkpt>
      <trkpt lat="41.749463" lon="2.957307">
        <ele>69.0</ele>
        <time>2019-01-14T02:13:28Z</time>
      </trkpt>
      <trkpt lat="41.750224" lon="2.957253">
        <ele>71.0</ele>
        <time>2019-01-14T02:13:40Z</time>
      </trkpt>
      <trkpt lat="41.750224" lon="2.957629">
        <ele>72.0</ele>
        <time>2019-01-14T02:13:45Z</time>
      </trkpt>
      <trkpt lat="41.749688" lon="2.958037">
        <ele>76.0</ele>
        <time>2019-01-14T02:13:55Z</time>
      </trkpt>
      <trkpt lat="41.749535" lon="2.959110">
        <ele>81.0</ele>
        <time>2019-01-14T02:14:08Z</time>
      </trkpt>
      <trkpt lat="41.749728" lon="2.959871">
        <ele>87.0</ele>
        <time>2019-01-14T02:14:17Z</time>
      </trkpt>
      <trkpt lat="41.750264" lon="2.960011">
        <ele>91.0</ele>
        <time>2019-01-14T02:14:26Z</time>
      </trkpt>
      <trkpt lat="41.750504" lon="2.960569">
        <ele>94.0</ele>
        <time>2019-01-14T02:14:34Z</time>
      </trkpt>
      <trkpt lat="41.749944" lon="2.961212">
        <ele>99.0</ele>
        <time>2019-01-14T02:14:46Z</time>
      </trkpt>
      <trkpt lat="41.750152" lon="2.961760">
        <ele>101.0</ele>
        <time>2019-01-14T02:14:53Z</time>
      </trkpt>
      <trkpt lat="41.750632" lon="2.962532">
        <ele>105.0</ele>
        <time>2019-01-14T02:15:05Z</time>
      </trkpt>
      <trkpt lat="41.750376" lon="2.963187">
        <ele>109.0</ele>
        <time>2019-01-14T02:15:14Z</time>
      </trkpt>
      <trkpt lat="41.750552" lon="2.964131">
        <ele>114.0</ele>
        <time>2019-01-14T02:15:25Z</time>
      </trkpt>
      <trkpt lat="41.751072" lon="2.965075">
        <ele>119.0</ele>
        <time>2019-01-14T02:15:39Z</time>
      </trkpt>
      <trkpt lat="41.750792" lon="2.965965">
        <ele>124.0</ele>
        <time>2019-01-14T02:15:51Z</time>
      </trkpt>
      <trkpt lat="41.750360" lon="2.966287">
        <ele>123.0</ele>
        <time>2019-01-14T02:15:59Z</time>
      </trkpt>
      <trkpt lat="41.751368" lon="2.967811">
        <ele>68.0</ele>
        <time>2019-01-14T02:16:23Z</time>
      </trkpt>
      <trkpt lat="41.751697" lon="2.967564">
        <ele>62.0</ele>
        <time>2019-01-14T02:16:29Z</time>
      </trkpt>
      <trkpt lat="41.752577" lon="2.965354">
        <ele>67.0</ele>
        <time>2019-01-14T02:16:59Z</time>
      </trkpt>
      <trkpt lat="41.753089" lon="2.965418">
        <ele>69.0</ele>
        <time>2019-01-14T02:17:07Z</time>
      </trkpt>
      <trkpt lat="41.753570" lon="2.964849">
        <ele>72.0</ele>
        <time>2019-01-14T02:17:18Z</time>
      </trkpt>
      <trkpt lat="41.754186" lon="2.965150">
        <ele>75.0</ele>
        <time>2019-01-14T02:17:28Z</time>
      </trkpt>
      <trkpt lat="41.754682" lon="2.964313">
        <ele>80.0</ele>
        <time>2019-01-14T02:17:41Z</time>
      </trkpt>
      <trkpt lat="41.754802" lon="2.963165">
        <ele>85.0</ele>
        <time>2019-01-14T02:17:55Z</time>
      </trkpt>
      <trkpt lat="41.755819" lon="2.962886">
        <ele>92.0</ele>
        <time>2019-01-14T02:18:11Z</time>
      </trkpt>
      <trkpt lat="41.755899" lon="2.963465">
        <ele>91.0</ele>
        <time>2019-01-14T02:18:18Z</time>
      </trkpt>
      <trkpt lat="41.756059" lon="2.965322">
        <ele>91.0</ele>
        <time>2019-01-14T02:18:41Z</time>
      </trkpt>
      <trkpt lat="41.755194" lon="2.966899">
        <ele>90.0</ele>
        <time>2019-01-14T02:19:04Z</time>
      </trkpt>
      <trkpt lat="41.755554" lon="2.968047">
        <ele>91.0</ele>
        <time>2019-01-14T02:19:19Z</time>
      </trkpt>
      <trkpt lat="41.755971" lon="2.968572">
        <ele>92.0</ele>
        <time>2019-01-14T02:19:28Z</time>
      </trkpt>
      <trkpt lat="41.755699" lon="2.969506">
        <ele>92.0</ele>
        <time>2019-01-14T02:19:40Z</time>
      </trkpt>
      <trkpt lat="41.756075" lon="2.970182">
        <ele>90.0</ele>
        <time>2019-01-14T02:19:50Z</time>
      </trkpt>
      <trkpt lat="41.756083" lon="2.971265">
        <ele>88.0</ele>
        <time>2019-01-14T02:20:03Z</time>
      </trkpt>
      <trkpt lat="41.756195" lon="2.971566">
        <ele>88.0</ele>
        <time>2019-01-14T02:20:07Z</time>
      </trkpt>
      <trkpt lat="41.755891" lon="2.972274">
        <ele>89.0</ele>
        <time>2019-01-14T02:20:17Z</time>
      </trkpt>
      <trkpt lat="41.755098" lon="2.972853">
        <ele>89.0</ele>
        <time>2019-01-14T02:20:31Z</time>
      </trkpt>
      <trkpt lat="41.755450" lon="2.973958">
        <ele>88.0</ele>
        <time>2019-01-14T02:20:46Z</time>
      </trkpt>
      <trkpt lat="41.756843" lon="2.973261">
        <ele>84.0</ele>
        <time>2019-01-14T02:21:10Z</time>
      </trkpt>
      <trkpt lat="41.757667" lon="2.972370">
        <ele>80.0</ele>
        <time>2019-01-14T02:21:27Z</time>
      </trkpt>
      <trkpt lat="41.757715" lon="2.971201">
        <ele>80.0</ele>
        <time>2019-01-14T02:21:41Z</time>
      </trkpt>
      <trkpt lat="41.758388" lon="2.971888">
        <ele>82.0</ele>
        <time>2019-01-14T02:21:54Z</time>
      </trkpt>
      <trkpt lat="41.758868" lon="2.973475">
        <ele>88.0</ele>
        <time>2019-01-14T02:22:15Z</time>
      </trkpt>
      <trkpt lat="41.758292" lon="2.975653">
        <ele>94.0</ele>
        <time>2019-01-14T02:22:42Z</time>
      </trkpt>
      <trkpt lat="41.758596" lon="2.976565">
        <ele>98.0</ele>
        <time>2019-01-14T02:22:54Z</time>
      </trkpt>
      <trkpt lat="41.759140" lon="2.976898">
        <ele>100.0</ele>
        <time>2019-01-14T02:23:04Z</time>
      </trkpt>
      <trkpt lat="41.759276" lon="2.976083">
        <ele>101.0</ele>
        <time>2019-01-14T02:23:14Z</time>
      </trkpt>
      <trkpt lat="41.759628" lon="2.975439">
        <ele>101.0</ele>
        <time>2019-01-14T02:23:23Z</time>
      </trkpt>
      <trkpt lat="41.760140" lon="2.975439">
        <ele>101.0</ele>
        <time>2019-01-14T02:23:31Z</time>
      </trkpt>
      <trkpt lat="41.760356" lon="2.975085">
        <ele>100.0</ele>
        <time>2019-01-14T02:23:37Z</time>
      </trkpt>
      <trkpt lat="41.761125" lon="2.975278">
        <ele>99.0</ele>
        <time>2019-01-14T02:23:49Z</time>
      </trkpt>
      <trkpt lat="41.761261" lon="2.974570">
        <ele>98.0</ele>
        <time>2019-01-14T02:23:58Z</time>
      </trkpt>
      <trkpt lat="41.762021" lon="2.974398">
        <ele>95.0</ele>
        <time>2019-01-14T02:24:10Z</time>
      </trkpt>
      <trkpt lat="41.762173" lon="2.973003">
        <ele>91.0</ele>
        <time>2019-01-14T02:24:27Z</time>
      </trkpt>
      <trkpt lat="41.763165" lon="2.973647">
        <ele>86.0</ele>
        <time>2019-01-14T02:24:45Z</time>
      </trkpt>
      <trkpt lat="41.764382" lon="2.973733">
        <ele>81.0</ele>
        <time>2019-01-14T02:25:04Z</time>
      </trkpt>
      <trkpt lat="41.764782" lon="2.974634">
        <ele>69.0</ele>
        <time>2019-01-14T02:25:17Z</time>
      </trkpt>
      <trkpt lat="41.765566" lon="2.974505">
        <ele>72.0</ele>
        <time>2019-01-14T02:25:30Z</time>
      </trkpt>
      <trkpt lat="41.765822" lon="2.974977">
        <ele>73.0</ele>
        <time>2019-01-14T02:25:37Z</time>
      </trkpt>
      <trkpt lat="41.765662" lon="2.975557">
        <ele>76.0</ele>
        <time>2019-01-14T02:25:44Z</time>
      </trkpt>
      <trkpt lat="41.765822" lon="2.976179">
        <ele>80.0</ele>
        <time>2019-01-14T02:25:52Z</time>
      </trkpt>
      <trkpt lat="41.765102" lon="2.975943">
        <ele>85.0</ele>
        <time>2019-01-14T02:26:04Z</time>
      </trkpt>
      <trkpt lat="41.764270" lon="2.976501">
        <ele>93.0</ele>
        <time>2019-01-14T02:26:19Z</time>
      </trkpt>
      <trkpt lat="41.765006" lon="2.979076">
        <ele>107.0</ele>
        <time>2019-01-14T02:26:51Z</time>
      </trkpt>
      <trkpt lat="41.764510" lon="2.979097">
        <ele>111.0</ele>
        <time>2019-01-14T02:26:59Z</time>
      </trkpt>
      <trkpt lat="41.763950" lon="2.978497">
        <ele>115.0</ele>
        <time>2019-01-14T02:27:11Z</time>
      </trkpt>
      <trkpt lat="41.763406" lon="2.979248">
        <ele>120.0</ele>
        <time>2019-01-14T02:27:23Z</time>
      </trkpt>
      <trkpt lat="41.763181" lon="2.981114">
        <ele>130.0</ele>
        <time>2019-01-14T02:27:46Z</time>
      </trkpt>
      <trkpt lat="41.763646" lon="2.981951">
        <ele>135.0</ele>
        <time>2019-01-14T02:27:58Z</time>
      </trkpt>
      <trkpt lat="41.763598" lon="2.982359">
        <ele>137.0</ele>
        <time>2019-01-14T02:28:03Z</time>
      </trkpt>
      <trkpt lat="41.763261" lon="2.982574">
        <ele>139.0</ele>
        <time>2019-01-14T02:28:09Z</time>
      </trkpt>
      <trkpt lat="41.762989" lon="2.983367">
        <ele>143.0</ele>
        <time>2019-01-14T02:28:20Z</time>
      </trkpt>
      <trkpt lat="41.763294" lon="2.984054">
        <ele>146.0</ele>
        <time>2019-01-14T02:28:29Z</time>
      </trkpt>
      <trkpt lat="41.763790" lon="2.984977">
        <ele>150.0</ele>
        <time>2019-01-14T02:28:43Z</time>
      </trkpt>
      <trkpt lat="41.763582" lon="2.986028">
        <ele>156.0</ele>
        <time>2019-01-14T02:28:56Z</time>
      </trkpt>
      <trkpt lat="41.763021" lon="2.985878">
        <ele>158.0</ele>
        <time>2019-01-14T02:29:05Z</time>
      </trkpt>
      <trkpt lat="41.762493" lon="2.987916">
        <ele>159.0</ele>
        <time>2019-01-14T02:29:31Z</time>
      </trkpt>
      <trkpt lat="41.762973" lon="2.988989">
        <ele>159.0</ele>
        <time>2019-01-14T02:29:46Z</time>
      </trkpt>
      <trkpt lat="41.764126" lon="2.988002">
        <ele>159.0</ele>
        <time>2019-01-14T02:30:08Z</time>
      </trkpt>
      <trkpt lat="41.764318" lon="2.988324">
        <ele>160.0</ele>
        <time>2019-01-14T02:30:13Z</time>
      </trkpt>
      <trkpt lat="41.764110" lon="2.990019">
        <ele>160.0</ele>
        <time>2019-01-14T02:30:33Z</time>
      </trkpt>
      <trkpt lat="41.763694" lon="2.990384">
        <ele>158.0</ele>
        <time>2019-01-14T02:30:41Z</time>
      </trkpt>
      <trkpt lat="41.764126" lon="2.992187">
        <ele>155.0</ele>
        <time>2019-01-14T02:31:04Z</time>
      </trkpt>
      <trkpt lat="41.765502" lon="2.991607">
        <ele>149.0</ele>
        <time>2019-01-14T02:31:27Z</time>
      </trkpt>
      <trkpt lat="41.765998" lon="2.992465">
        <ele>144.0</ele>
        <time>2019-01-14T02:31:40Z</time>
      </trkpt>
      <trkpt lat="41.767039" lon="2.991886">
        <ele>137.0</ele>
        <time>2019-01-14T02:31:58Z</time>
      </trkpt>
      <trkpt lat="41.768063" lon="2.992465">
        <ele>130.0</ele>
        <time>2019-01-14T02:32:16Z</time>
      </trkpt>
      <trkpt lat="41.768975" lon="2.991693">
        <ele>125.0</ele>
        <time>2019-01-14T02:32:33Z</time>
      </trkpt>
      <trkpt lat="41.769807" lon="2.991757">
        <ele>122.0</ele>
        <time>2019-01-14T02:32:46Z</time>
      </trkpt>
      <trkpt lat="41.769471" lon="2.992616">
        <ele>119.0</ele>
        <time>2019-01-14T02:32:58Z</time>
      </trkpt>
      <trkpt lat="41.768511" lon="2.993796">
        <ele>125.0</ele>
        <time>2019-01-14T02:33:19Z</time>
      </trkpt>
      <trkpt lat="41.768319" lon="2.994933">
        <ele>131.0</ele>
        <time>2019-01-14T02:33:33Z</time>
      </trkpt>
      <trkpt lat="41.767759" lon="2.994826">
        <ele>136.0</ele>
        <time>2019-01-14T02:33:42Z</time>
      </trkpt>
      <trkpt lat="41.767375" lon="2.996671">
        <ele>146.0</ele>
        <time>2019-01-14T02:34:05Z</time>
      </trkpt>
      <trkpt lat="41.767743" lon="2.997358">
        <ele>149.0</ele>
        <time>2019-01-14T02:34:15Z</time>
      </trkpt>
      <trkpt lat="41.767151" lon="2.998366">
        <ele>133.0</ele>
        <time>2019-01-14T02:34:30Z</time>
      </trkpt>
      <trkpt lat="41.768687" lon="3.000448">
        <ele>138.0</ele>
        <time>2019-01-14T02:35:05Z</time>
      </trkpt>
      <trkpt lat="41.769615" lon="3.000534">
        <ele>137.0</ele>
        <time>2019-01-14T02:35:20Z</time>
      </trkpt>
      <trkpt lat="41.770480" lon="3.001435">
        <ele>132.0</ele>
        <time>2019-01-14T02:35:37Z</time>
      </trkpt>
      <trkpt lat="41.771072" lon="3.001649">
        <ele>130.0</ele>
        <time>2019-01-14T02:35:47Z</time>
      </trkpt>
      <trkpt lat="41.772144" lon="3.003259">
        <ele>124.0</ele>
        <time>2019-01-14T02:36:13Z</time>
      </trkpt>
      <trkpt lat="41.772576" lon="3.003538">
        <ele>123.0</ele>
        <time>2019-01-14T02:36:21Z</time>
      </trkpt>
      <trkpt lat="41.772448" lon="3.004525">
        <ele>118.0</ele>
        <time>2019-01-14T02:36:33Z</time>
      </trkpt>
      <trkpt lat="41.773952" lon="3.005834">
        <ele>102.0</ele>
        <time>2019-01-14T02:37:01Z</time>
      </trkpt>
      <trkpt lat="41.774688" lon="3.005834">
        <ele>103.0</ele>
        <time>2019-01-14T02:37:13Z</time>
      </trkpt>
      <trkpt lat="41.774832" lon="3.006263">
        <ele>104.0</ele>
        <time>2019-01-14T02:37:19Z</time>
      </trkpt>
      <trkpt lat="41.775840" lon="3.007014">
        <ele>112.0</ele>
        <time>2019-01-14T02:37:37Z</time>
      </trkpt>
      <trkpt lat="41.775712" lon="3.007507">
        <ele>109.0</ele>
        <time>2019-01-14T02:37:43Z</time>
      </trkpt>
      <trkpt lat="41.774400" lon="3.008537">
        <ele>105.0</ele>
        <time>2019-01-14T02:38:08Z</time>
      </trkpt>
      <trkpt lat="41.774000" lon="3.009589">
        <ele>110.0</ele>
        <time>2019-01-14T02:38:22Z</time>
      </trkpt>
      <trkpt lat="41.773248" lon="3.009310">
        <ele>115.0</ele>
        <time>2019-01-14T02:38:34Z</time>
      </trkpt>
      <trkpt lat="41.773184" lon="3.010908">
        <ele>120.0</ele>
        <time>2019-01-14T02:38:53Z</time>
      </trkpt>
      <trkpt lat="41.773584" lon="3.011842">
        <ele>121.0</ele>
        <time>2019-01-14T02:39:06Z</time>
      </trkpt>
      <trkpt lat="41.775576" lon="3.013054">
        <ele>125.0</ele>
        <time>2019-01-14T02:39:41Z</time>
      </trkpt>
      <trkpt lat="41.776105" lon="3.013355">
        <ele>125.0</ele>
        <time>2019-01-14T02:39:50Z</time>
      </trkpt>
      <trkpt lat="41.777505" lon="3.012679">
        <ele>109.0</ele>
        <time>2019-01-14T02:40:14Z</time>
      </trkpt>
      <trkpt lat="41.778705" lon="3.011949">
        <ele>100.0</ele>
        <time>2019-01-14T02:40:35Z</time>
      </trkpt>
      <trkpt lat="41.779889" lon="3.012915">
        <ele>90.0</ele>
        <time>2019-01-14T02:40:58Z</time>
      </trkpt>
      <trkpt lat="41.780049" lon="3.013966">
        <ele>84.0</ele>
        <time>2019-01-14T02:41:10Z</time>
      </trkpt>
      <trkpt lat="41.779057" lon="3.014717">
        <ele>76.0</ele>
        <time>2019-01-14T02:41:29Z</time>
      </trkpt>
      <trkpt lat="41.778417" lon="3.015876">
        <ele>68.0</ele>
        <time>2019-01-14T02:41:46Z</time>
      </trkpt>
      <trkpt lat="41.777905" lon="3.016005">
        <ele>64.0</ele>
        <time>2019-01-14T02:41:54Z</time>
      </trkpt>
      <trkpt lat="41.777457" lon="3.017163">
        <ele>57.0</ele>
        <time>2019-01-14T02:42:10Z</time>
      </trkpt>
      <trkpt lat="41.777569" lon="3.017828">
        <ele>53.0</ele>
        <time>2019-01-14T02:42:18Z</time>
      </trkpt>
      <trkpt lat="41.777969" lon="3.018494">
        <ele>47.0</ele>
        <time>2019-01-14T02:42:28Z</time>
      </trkpt>
      <trkpt lat="41.777985" lon="3.019459">
        <ele>43.0</ele>
        <time>2019-01-14T02:42:40Z</time>
      </trkpt>
      <trkpt lat="41.778513" lon="3.020275">
        <ele>38.0</ele>
        <time>2019-01-14T02:42:53Z</time>
      </trkpt>
      <trkpt lat="41.778321" lon="3.021004">
        <ele>35.0</ele>
        <time>2019-01-14T02:43:02Z</time>
      </trkpt>
      <trkpt lat="41.779569" lon="3.022270">
        <ele>24.0</ele>
        <time>2019-01-14T02:43:27Z</time>
      </trkpt>
      <trkpt lat="41.779393" lon="3.023643">
        <ele>20.0</ele>
        <time>2019-01-14T02:43:43Z</time>
      </trkpt>
      <trkpt lat="41.780129" lon="3.023751">
        <ele>17.0</ele>
        <time>2019-01-14T02:43:55Z</time>
      </trkpt>
      <trkpt lat="41.780577" lon="3.024566">
        <ele>17.0</ele>
        <time>2019-01-14T02:44:07Z</time>
      </trkpt>
      <trkpt lat="41.780433" lon="3.025918">
        <ele>15.0</ele>
        <time>2019-01-14T02:44:24Z</time>
      </trkpt>
      <trkpt lat="41.780701" lon="3.026326">
        <ele>11.0</ele>
        <time>2019-01-14T02:44:30Z</time>
      </trkpt>
      <trkpt lat="41.780571" lon="3.027243">
        <ele>12.0</ele>
        <time>2019-01-14T02:44:41Z</time>
      </trkpt>
      <trkpt lat="41.779434" lon="3.028804">
        <ele>15.0</ele>
        <time>2019-01-14T02:45:07Z</time>
      </trkpt>
      <trkpt lat="41.780865" lon="3.031062">
        <ele>11.0</ele>
        <time>2019-01-14T02:45:43Z</time>
      </trkpt>
      <trkpt lat="41.781470" lon="3.032243">
        <ele>11.0</ele>
        <time>2019-01-14T02:46:00Z</time>
      </trkpt>
      <trkpt lat="41.781408" lon="3.034378">
        <ele>9.0</ele>
        <time>2019-01-14T02:46:25Z</time>
      </trkpt>
      <trkpt lat="41.781057" lon="3.034801">
        <ele>8.0</ele>
        <time>2019-01-14T02:46:33Z</time>
      </trkpt>
      <trkpt lat="41.781089" lon="3.035853">
        <ele>9.0</ele>
        <time>2019-01-14T02:46:46Z</time>
      </trkpt>
      <trkpt lat="41.781377" lon="3.036475">
        <ele>10.0</ele>
        <time>2019-01-14T02:46:54Z</time>
      </trkpt>
      <trkpt lat="41.781297" lon="3.037934">
        <ele>19.0</ele>
        <time>2019-01-14T02:47:12Z</time>
      </trkpt>
      <trkpt lat="41.781985" lon="3.038728">
        <ele>28.0</ele>
        <time>2019-01-14T02:47:26Z</time>
      </trkpt>
      <trkpt lat="41.782609" lon="3.038428">
        <ele>33.0</ele>
        <time>2019-01-14T02:47:37Z</time>
      </trkpt>
      <trkpt lat="41.782849" lon="3.039629">
        <ele>44.0</ele>
        <time>2019-01-14T02:47:52Z</time>
      </trkpt>
      <trkpt lat="41.781905" lon="3.041174">
        <ele>51.0</ele>
        <time>2019-01-14T02:48:16Z</time>
      </trkpt>
      <trkpt lat="41.782609" lon="3.043578">
        <ele>50.0</ele>
        <time>2019-01-14T02:48:46Z</time>
      </trkpt>
      <trkpt lat="41.782737" lon="3.044994">
        <ele>51.0</ele>
        <time>2019-01-14T02:49:03Z</time>
      </trkpt>
      <trkpt lat="41.784833" lon="3.044136">
        <ele>56.0</ele>
        <time>2019-01-14T02:49:39Z</time>
      </trkpt>
      <trkpt lat="41.785537" lon="3.043234">
        <ele>46.0</ele>
        <time>2019-01-14T02:49:54Z</time>
      </trkpt>
      <trkpt lat="41.785969" lon="3.043492">
        <ele>41.0</ele>
        <time>2019-01-14T02:50:02Z</time>
      </trkpt>
      <trkpt lat="41.785745" lon="3.044071">
        <ele>39.0</ele>
        <time>2019-01-14T02:50:10Z</time>
      </trkpt>
      <trkpt lat="41.784833" lon="3.045144">
        <ele>31.0</ele>
        <time>2019-01-14T02:50:29Z</time>
      </trkpt>
      <trkpt lat="41.784961" lon="3.045831">
        <ele>27.0</ele>
        <time>2019-01-14T02:50:37Z</time>
      </trkpt>
      <trkpt lat="41.785537" lon="3.045273">
        <ele>28.0</ele>
        <time>2019-01-14T02:50:49Z</time>
      </trkpt>
      <trkpt lat="41.786017" lon="3.044393">
        <ele>27.0</ele>
        <time>2019-01-14T02:51:02Z</time>
      </trkpt>
      <trkpt lat="41.786705" lon="3.044393">
        <ele>27.0</ele>
        <time>2019-01-14T02:51:13Z</time>
      </trkpt>
      <trkpt lat="41.787841" lon="3.045316">
        <ele>12.0</ele>
        <time>2019-01-14T02:51:34Z</time>
      </trkpt>
      <trkpt lat="41.788705" lon="3.045166">
        <ele>18.0</ele>
        <time>2019-01-14T02:51:48Z</time>
      </trkpt>
      <trkpt lat="41.790033" lon="3.047419">
        <ele>18.0</ele>
        <time>2019-01-14T02:52:22Z</time>
      </trkpt>
      <trkpt lat="41.790849" lon="3.048792">
        <ele>8.0</ele>
        <time>2019-01-14T02:52:43Z</time>
      </trkpt>
      <trkpt lat="41.791681" lon="3.048663">
        <ele>9.0</ele>
        <time>2019-01-14T02:52:57Z</time>
      </trkpt>
      <trkpt lat="41.792025" lon="3.050101">
        <ele>7.0</ele>
        <time>2019-01-14T02:53:15Z</time>
      </trkpt>
      <trkpt lat="41.792017" lon="3.051732">
        <ele>7.0</ele>
        <time>2019-01-14T02:53:34Z</time>
      </trkpt>
      <trkpt lat="41.791361" lon="3.051710">
        <ele>5.0</ele>
        <time>2019-01-14T02:53:45Z</time>
      </trkpt>
      <trkpt lat="41.790545" lon="3.054371">
        <ele>10.0</ele>
        <time>2019-01-14T02:54:19Z</time>
      </trkpt>
      <trkpt lat="41.791457" lon="3.056957">
        <ele>19.0</ele>
        <time>2019-01-14T02:54:53Z</time>
      </trkpt>
      <trkpt lat="41.792121" lon="3.058244">
        <ele>18.0</ele>
        <time>2019-01-14T02:55:12Z</time>
      </trkpt>
      <trkpt lat="41.793201" lon="3.058963">
        <ele>22.0</ele>
        <time>2019-01-14T02:55:31Z</time>
      </trkpt>
      <trkpt lat="41.794056" lon="3.059167">
        <ele>25.0</ele>
        <time>2019-01-14T02:55:45Z</time>
      </trkpt>
      <trkpt lat="41.794500" lon="3.059856">
        <ele>21.0</ele>
        <time>2019-01-14T02:55:56Z</time>
      </trkpt>
      <trkpt lat="41.795596" lon="3.060615">
        <ele>21.0</ele>
        <time>2019-01-14T02:56:16Z</time>
      </trkpt>
      <trkpt lat="41.796232" lon="3.059982">
        <ele>23.0</ele>
        <time>2019-01-14T02:56:28Z</time>
      </trkpt>
      <trkpt lat="41.796896" lon="3.058813">
        <ele>20.0</ele>
        <time>2019-01-14T02:56:46Z</time>
      </trkpt>
      <trkpt lat="41.796792" lon="3.058137">
        <ele>25.0</ele>
        <time>2019-01-14T02:56:54Z</time>
      </trkpt>
      <trkpt lat="41.797848" lon="3.058308">
        <ele>26.0</ele>
        <time>2019-01-14T02:57:11Z</time>
      </trkpt>
      <trkpt lat="41.799063" lon="3.059682">
        <ele>38.0</ele>
        <time>2019-01-14T02:57:37Z</time>
      </trkpt>
      <trkpt lat="41.799247" lon="3.060519">
        <ele>36.0</ele>
        <time>2019-01-14T02:57:47Z</time>
      </trkpt>
      <trkpt lat="41.799887" lon="3.061205">
        <ele>23.0</ele>
        <time>2019-01-14T02:58:00Z</time>
      </trkpt>
      <trkpt lat="41.800479" lon="3.061441">
        <ele>21.0</ele>
        <time>2019-01-14T02:58:10Z</time>
      </trkpt>
      <trkpt lat="41.801503" lon="3.060261">
        <ele>23.0</ele>
        <time>2019-01-14T02:58:32Z</time>
      </trkpt>
      <trkpt lat="41.803022" lon="3.059950">
        <ele>6.0</ele>
        <time>2019-01-14T02:58:56Z</time>
      </trkpt>
      <trkpt lat="41.803318" lon="3.059027">
        <ele>6.0</ele>
        <time>2019-01-14T02:59:08Z</time>
      </trkpt>
      <trkpt lat="41.803406" lon="3.058169">
        <ele>7.0</ele>
        <time>2019-01-14T02:59:19Z</time>
      </trkpt>
      <trkpt lat="41.803942" lon="3.057107">
        <ele>8.0</ele>
        <time>2019-01-14T02:59:34Z</time>
      </trkpt>
      <trkpt lat="41.803942" lon="3.054113">
        <ele>9.0</ele>
        <time>2019-01-14T03:00:10Z</time>
      </trkpt>
      <trkpt lat="41.804295" lon="3.054079">
        <ele>7.0</ele>
        <time>2019-01-14T03:00:15Z</time>
      </trkpt>
      <trkpt lat="41.805958" lon="3.055894">
        <ele>3.0</ele>
        <time>2019-01-14T03:00:50Z</time>
      </trkpt>
      <trkpt lat="41.807789" lon="3.057504">
        <ele>7.0</ele>
        <time>2019-01-14T03:01:25Z</time>
      </trkpt>
      <trkpt lat="41.809580" lon="3.059231">
        <ele>7.0</ele>
        <time>2019-01-14T03:02:00Z</time>
      </trkpt>
      <trkpt lat="41.811340" lon="3.060958">
        <ele>6.0</ele>
        <time>2019-01-14T03:02:35Z</time>
      </trkpt>
      <trkpt lat="41.813067" lon="3.062761">
        <ele>7.0</ele>
        <time>2019-01-14T03:03:10Z</time>
      </trkpt>
      <trkpt lat="41.814842" lon="3.064499">
        <ele>11.0</ele>
        <time>2019-01-14T03:03:45Z</time>
      </trkpt>
      <trkpt lat="41.816633" lon="3.066151">
        <ele>9.0</ele>
        <time>2019-01-14T03:04:20Z</time>
      </trkpt>
      <trkpt lat="41.818584" lon="3.067482">
        <ele>10.0</ele>
        <time>2019-01-14T03:04:55Z</time>
      </trkpt>
      <trkpt lat="41.820407" lon="3.069048">
        <ele>10.0</ele>
        <time>2019-01-14T03:05:30Z</time>
      </trkpt>
      <trkpt lat="41.822214" lon="3.070679">
        <ele>18.0</ele>
        <time>2019-01-14T03:06:05Z</time>
      </trkpt>
      <trkpt lat="41.823397" lon="3.071902">
        <ele>21.0</ele>
        <time>2019-01-14T03:06:28Z</time>
      </trkpt>
      <trkpt lat="41.824197" lon="3.074412">
        <ele>29.0</ele>
        <time>2019-01-14T03:07:01Z</time>
      </trkpt>
      <trkpt lat="41.824916" lon="3.077137">
        <ele>36.0</ele>
        <time>2019-01-14T03:07:36Z</time>
      </trkpt>
      <trkpt lat="41.825668" lon="3.079884">
        <ele>28.0</ele>
        <time>2019-01-14T03:08:10Z</time>
      </trkpt>
      <trkpt lat="41.826100" lon="3.080699">
        <ele>26.0</ele>
        <time>2019-01-14T03:08:22Z</time>
      </trkpt>
      <trkpt lat="41.827187" lon="3.082030">
        <ele>27.0</ele>
        <time>2019-01-14T03:08:46Z</time>
      </trkpt>
      <trkpt lat="41.828002" lon="3.083360">
        <ele>30.0</ele>
        <time>2019-01-14T03:09:06Z</time>
      </trkpt>
      <trkpt lat="41.830209" lon="3.083854">
        <ele>33.0</ele>
        <time>2019-01-14T03:09:42Z</time>
      </trkpt>
      <trkpt lat="41.832287" lon="3.084776">
        <ele>35.0</ele>
        <time>2019-01-14T03:10:17Z</time>
      </trkpt>
      <trkpt lat="41.833247" lon="3.085613">
        <ele>38.0</ele>
        <time>2019-01-14T03:10:36Z</time>
      </trkpt>
      <trkpt lat="41.834174" lon="3.085806">
        <ele>36.0</ele>
        <time>2019-01-14T03:10:51Z</time>
      </trkpt>
      <trkpt lat="41.835869" lon="3.085678">
        <ele>33.0</ele>
        <time>2019-01-14T03:11:18Z</time>
      </trkpt>
      <trkpt lat="41.837052" lon="3.086407">
        <ele>35.0</ele>
        <time>2019-01-14T03:11:39Z</time>
      </trkpt>
      <trkpt lat="41.838379" lon="3.088703">
        <ele>38.0</ele>
        <time>2019-01-14T03:12:13Z</time>
      </trkpt>
      <trkpt lat="41.839833" lon="3.090763">
        <ele>26.0</ele>
        <time>2019-01-14T03:12:47Z</time>
      </trkpt>
      <trkpt lat="41.841991" lon="3.091021">
        <ele>13.0</ele>
        <time>2019-01-14T03:13:22Z</time>
      </trkpt>
      <trkpt lat="41.842807" lon="3.091536">
        <ele>9.0</ele>
        <time>2019-01-14T03:13:36Z</time>
      </trkpt>
      <trkpt lat="41.844133" lon="3.093703">
        <ele>5.0</ele>
        <time>2019-01-14T03:14:10Z</time>
      </trkpt>
      <trkpt lat="41.845508" lon="3.095913">
        <ele>7.0</ele>
        <time>2019-01-14T03:14:44Z</time>
      </trkpt>
      <trkpt lat="41.846323" lon="3.098574">
        <ele>7.0</ele>
        <time>2019-01-14T03:15:18Z</time>
      </trkpt>
      <trkpt lat="41.847203" lon="3.101170">
        <ele>6.0</ele>
        <time>2019-01-14T03:15:52Z</time>
      </trkpt>
      <trkpt lat="41.848018" lon="3.103852">
        <ele>5.0</ele>
        <time>2019-01-14T03:16:27Z</time>
      </trkpt>
      <trkpt lat="41.848865" lon="3.106513">
        <ele>3.0</ele>
        <time>2019-01-14T03:17:02Z</time>
      </trkpt>
      <trkpt lat="41.849456" lon="3.108530">
        <ele>7.0</ele>
        <time>2019-01-14T03:17:27Z</time>
      </trkpt>
      <trkpt lat="41.849281" lon="3.111362">
        <ele>11.0</ele>
        <time>2019-01-14T03:18:01Z</time>
      </trkpt>
      <trkpt lat="41.849185" lon="3.113251">
        <ele>8.0</ele>
        <time>2019-01-14T03:18:24Z</time>
      </trkpt>
      <trkpt lat="41.849496" lon="3.113680">
        <ele>8.0</ele>
        <time>2019-01-14T03:18:31Z</time>
      </trkpt>
      <trkpt lat="41.850423" lon="3.113852">
        <ele>7.0</ele>
        <time>2019-01-14T03:18:46Z</time>
      </trkpt>
      <trkpt lat="41.852110" lon="3.115729">
        <ele>4.0</ele>
        <time>2019-01-14T03:19:21Z</time>
      </trkpt>
      <trkpt lat="41.852324" lon="3.115959">
        <ele>4.0</ele>
        <time>2019-01-14T03:19:25Z</time>
      </trkpt>
      <trkpt lat="41.852411" lon="3.116134">
        <ele>5.0</ele>
        <time>2019-01-14T03:19:28Z</time>
      </trkpt>
      <trkpt lat="41.852524" lon="3.116152">
        <ele>5.0</ele>
        <time>2019-01-14T03:19:30Z</time>
      </trkpt>
      <trkpt lat="41.852568" lon="3.116368">
        <ele>5.0</ele>
        <time>2019-01-14T03:19:32Z</time>
      </trkpt>
      <trkpt lat="41.852681" lon="3.116444">
        <ele>5.0</ele>
        <time>2019-01-14T03:19:35Z</time>
      </trkpt>
      <trkpt lat="41.852820" lon="3.116391">
        <ele>5.0</ele>
        <time>2019-01-14T03:19:37Z</time>
      </trkpt>
      <trkpt lat="41.852896" lon="3.116369">
        <ele>6.0</ele>
        <time>2019-01-14T03:19:38Z</time>
      </trkpt>
      <trkpt lat="41.852926" lon="3.116383">
        <ele>6.0</ele>
        <time>2019-01-14T03:19:39Z</time>
      </trkpt>
      <trkpt lat="41.853045" lon="3.116439">
        <ele>6.0</ele>
        <time>2019-01-14T03:19:41Z</time>
      </trkpt>
      <trkpt lat="41.853096" lon="3.116533">
        <ele>6.0</ele>
        <time>2019-01-14T03:19:42Z</time>
      </trkpt>
      <trkpt lat="41.853108" lon="3.116679">
        <ele>6.0</ele>
        <time>2019-01-14T03:19:44Z</time>
      </trkpt>
      <trkpt lat="41.853112" lon="3.116836">
        <ele>6.0</ele>
        <time>2019-01-14T03:19:46Z</time>
      </trkpt>
      <trkpt lat="41.853154" lon="3.116941">
        <ele>6.0</ele>
        <time>2019-01-14T03:19:47Z</time>
      </trkpt>
      <trkpt lat="41.853225" lon="3.117009">
        <ele>6.0</ele>
        <time>2019-01-14T03:19:48Z</time>
      </trkpt>
      <trkpt lat="41.853279" lon="3.117098">
        <ele>6.0</ele>
        <time>2019-01-14T03:19:50Z</time>
      </trkpt>
      <trkpt lat="41.853338" lon="3.117187">
        <ele>5.0</ele>
        <time>2019-01-14T03:19:51Z</time>
      </trkpt>
      <trkpt lat="41.853392" lon="3.117276">
        <ele>5.0</ele>
        <time>2019-01-14T03:19:53Z</time>
      </trkpt>
      <trkpt lat="41.853466" lon="3.117339">
        <ele>5.0</ele>
        <time>2019-01-14T03:19:54Z</time>
      </trkpt>
      <trkpt lat="41.853462" lon="3.117334">
        <ele>5.0</ele>
        <time>2019-01-14T03:19:54Z</time>
      </trkpt>
      <trkpt lat="41.853521" lon="3.117423">
        <ele>6.0</ele>
        <time>2019-01-14T03:19:55Z</time>
      </trkpt>
      <trkpt lat="41.853579" lon="3.117522">
        <ele>6.0</ele>
        <time>2019-01-14T03:19:57Z</time>
      </trkpt>
      <trkpt lat="41.853650" lon="3.117595">
        <ele>6.0</ele>
        <time>2019-01-14T03:19:58Z</time>
      </trkpt>
      <trkpt lat="41.853708" lon="3.117684">
        <ele>6.0</ele>
        <time>2019-01-14T03:20:00Z</time>
      </trkpt>
      <trkpt lat="41.853766" lon="3.117773">
        <ele>6.0</ele>
        <time>2019-01-14T03:20:01Z</time>
      </trkpt>
      <trkpt lat="41.853833" lon="3.117852">
        <ele>6.0</ele>
        <time>2019-01-14T03:20:03Z</time>
      </trkpt>
      <trkpt lat="41.853907" lon="3.117925">
        <ele>6.0</ele>
        <time>2019-01-14T03:20:04Z</time>
      </trkpt>
      <trkpt lat="41.853973" lon="3.118003">
        <ele>6.0</ele>
        <time>2019-01-14T03:20:06Z</time>
      </trkpt>
      <trkpt lat="41.854043" lon="3.118077">
        <ele>6.0</ele>
        <time>2019-01-14T03:20:07Z</time>
      </trkpt>
      <trkpt lat="41.854125" lon="3.118129">
        <ele>6.0</ele>
        <time>2019-01-14T03:20:08Z</time>
      </trkpt>
      <trkpt lat="41.854191" lon="3.118202">
        <ele>6.0</ele>
        <time>2019-01-14T03:20:10Z</time>
      </trkpt>
      <trkpt lat="41.854262" lon="3.118276">
        <ele>6.0</ele>
        <time>2019-01-14T03:20:11Z</time>
      </trkpt>
      <trkpt lat="41.854308" lon="3.118375">
        <ele>6.0</ele>
        <time>2019-01-14T03:20:13Z</time>
      </trkpt>
      <trkpt lat="41.854363" lon="3.118469">
        <ele>6.0</ele>
        <time>2019-01-14T03:20:14Z</time>
      </trkpt>
      <trkpt lat="41.854429" lon="3.118543">
        <ele>6.0</ele>
        <time>2019-01-14T03:20:15Z</time>
      </trkpt>
      <trkpt lat="41.854484" lon="3.118632">
        <ele>6.0</ele>
        <time>2019-01-14T03:20:17Z</time>
      </trkpt>
      <trkpt lat="41.854507" lon="3.118762">
        <ele>6.0</ele>
        <time>2019-01-14T03:20:18Z</time>
      </trkpt>
      <trkpt lat="41.854554" lon="3.118862">
        <ele>6.0</ele>
        <time>2019-01-14T03:20:20Z</time>
      </trkpt>
      <trkpt lat="41.854609" lon="3.118909">
        <ele>6.0</ele>
        <time>2019-01-14T03:20:21Z</time>
      </trkpt>
      <trkpt lat="41.854659" lon="3.118872">
        <ele>6.0</ele>
        <time>2019-01-14T03:20:22Z</time>
      </trkpt>
      <trkpt lat="41.854741" lon="3.118925">
        <ele>6.0</ele>
        <time>2019-01-14T03:20:23Z</time>
      </trkpt>
      <trkpt lat="41.854796" lon="3.119047">
        <ele>6.0</ele>
        <time>2019-01-14T03:20:25Z</time>
      </trkpt>
      <trkpt lat="41.854975" lon="3.119303">
        <ele>6.0</ele>
        <time>2019-01-14T03:20:29Z</time>
      </trkpt>
      <trkpt lat="41.855142" lon="3.119575">
        <ele>7.0</ele>
        <time>2019-01-14T03:20:33Z</time>
      </trkpt>
      <trkpt lat="41.855344" lon="3.119799">
        <ele>7.0</ele>
        <time>2019-01-14T03:20:38Z</time>
      </trkpt>
      <trkpt lat="41.855546" lon="3.120023">
        <ele>7.0</ele>
        <time>2019-01-14T03:20:42Z</time>
      </trkpt>
      <trkpt lat="41.855785" lon="3.120198">
        <ele>6.0</ele>
        <time>2019-01-14T03:20:46Z</time>
      </trkpt>
      <trkpt lat="41.856059" lon="3.120326">
        <ele>7.0</ele>
        <time>2019-01-14T03:20:51Z</time>
      </trkpt>
      <trkpt lat="41.856368" lon="3.120406">
        <ele>6.0</ele>
        <time>2019-01-14T03:20:56Z</time>
      </trkpt>
      <trkpt lat="41.856499" lon="3.120726">
        <ele>6.0</ele>
        <time>2019-01-14T03:21:00Z</time>
      </trkpt>
      <trkpt lat="41.856714" lon="3.120934">
        <ele>6.0</ele>
        <time>2019-01-14T03:21:04Z</time>
      </trkpt>
      <trkpt lat="41.856988" lon="3.120806">
        <ele>7.0</ele>
        <time>2019-01-14T03:21:09Z</time>
      </trkpt>
      <trkpt lat="41.857154" lon="3.120534">
        <ele>8.0</ele>
        <time>2019-01-14T03:21:13Z</time>
      </trkpt>
      <trkpt lat="41.857452" lon="3.120438">
        <ele>8.0</ele>
        <time>2019-01-14T03:21:18Z</time>
      </trkpt>
      <trkpt lat="41.857445" lon="3.120426">
        <ele>8.0</ele>
        <time>2019-01-14T03:21:18Z</time>
      </trkpt>
      <trkpt lat="41.857590" lon="3.120420">
        <ele>8.0</ele>
        <time>2019-01-14T03:21:21Z</time>
      </trkpt>
      <trkpt lat="41.857755" lon="3.120435">
        <ele>8.0</ele>
        <time>2019-01-14T03:21:23Z</time>
      </trkpt>
      <trkpt lat="41.857920" lon="3.120442">
        <ele>9.0</ele>
        <time>2019-01-14T03:21:26Z</time>
      </trkpt>
      <trkpt lat="41.858085" lon="3.120449">
        <ele>9.0</ele>
        <time>2019-01-14T03:21:29Z</time>
      </trkpt>
      <trkpt lat="41.858261" lon="3.120449">
        <ele>9.0</ele>
        <time>2019-01-14T03:21:31Z</time>
      </trkpt>
      <trkpt lat="41.858432" lon="3.120457">
        <ele>8.0</ele>
        <time>2019-01-14T03:21:34Z</time>
      </trkpt>
      <trkpt lat="41.858608" lon="3.120449">
        <ele>8.0</ele>
        <time>2019-01-14T03:21:37Z</time>
      </trkpt>
      <trkpt lat="41.858767" lon="3.120464">
        <ele>8.0</ele>
        <time>2019-01-14T03:21:39Z</time>
      </trkpt>
      <trkpt lat="41.858927" lon="3.120479">
        <ele>8.0</ele>
        <time>2019-01-14T03:21:42Z</time>
      </trkpt>
      <trkpt lat="41.859054" lon="3.120607">
        <ele>8.0</ele>
        <time>2019-01-14T03:21:45Z</time>
      </trkpt>
      <trkpt lat="41.859123" lon="3.120738">
        <ele>7.0</ele>
        <time>2019-01-14T03:21:46Z</time>
      </trkpt>
      <trkpt lat="41.859220" lon="3.120818">
        <ele>7.0</ele>
        <time>2019-01-14T03:21:48Z</time>
      </trkpt>
      <trkpt lat="41.859396" lon="3.120818">
        <ele>8.0</ele>
        <time>2019-01-14T03:21:51Z</time>
      </trkpt>
      <trkpt lat="41.859443" lon="3.121016">
        <ele>7.0</ele>
        <time>2019-01-14T03:21:54Z</time>
      </trkpt>
      <trkpt lat="41.859340" lon="3.121155">
        <ele>6.0</ele>
        <time>2019-01-14T03:21:56Z</time>
      </trkpt>
      <trkpt lat="41.859134" lon="3.121235">
        <ele>6.0</ele>
        <time>2019-01-14T03:21:59Z</time>
      </trkpt>
      <trkpt lat="41.858970" lon="3.121385">
        <ele>5.0</ele>
        <time>2019-01-14T03:22:03Z</time>
      </trkpt>
      <trkpt lat="41.858893" lon="3.121639">
        <ele>5.0</ele>
        <time>2019-01-14T03:22:06Z</time>
      </trkpt>
      <trkpt lat="41.858816" lon="3.121893">
        <ele>5.0</ele>
        <time>2019-01-14T03:22:09Z</time>
      </trkpt>
      <trkpt lat="41.858807" lon="3.122251">
        <ele>5.0</ele>
        <time>2019-01-14T03:22:13Z</time>
      </trkpt>
      <trkpt lat="41.858876" lon="3.122517">
        <ele>5.0</ele>
        <time>2019-01-14T03:22:17Z</time>
      </trkpt>
      <trkpt lat="41.858936" lon="3.122794">
        <ele>5.0</ele>
        <time>2019-01-14T03:22:20Z</time>
      </trkpt>
      <trkpt lat="41.859005" lon="3.123059">
        <ele>6.0</ele>
        <time>2019-01-14T03:22:23Z</time>
      </trkpt>
      <trkpt lat="41.859108" lon="3.123279">
        <ele>6.0</ele>
        <time>2019-01-14T03:22:27Z</time>
      </trkpt>
      <trkpt lat="41.859220" lon="3.123486">
        <ele>6.0</ele>
        <time>2019-01-14T03:22:30Z</time>
      </trkpt>
      <trkpt lat="41.859340" lon="3.123682">
        <ele>6.0</ele>
        <time>2019-01-14T03:22:33Z</time>
      </trkpt>
      <trkpt lat="41.859452" lon="3.123890">
        <ele>6.0</ele>
        <time>2019-01-14T03:22:36Z</time>
      </trkpt>
      <trkpt lat="41.859598" lon="3.124075">
        <ele>6.0</ele>
        <time>2019-01-14T03:22:39Z</time>
      </trkpt>
      <trkpt lat="41.859701" lon="3.124306">
        <ele>6.0</ele>
        <time>2019-01-14T03:22:42Z</time>
      </trkpt>
      <trkpt lat="41.859787" lon="3.124548">
        <ele>6.0</ele>
        <time>2019-01-14T03:22:45Z</time>
      </trkpt>
      <trkpt lat="41.859899" lon="3.124756">
        <ele>7.0</ele>
        <time>2019-01-14T03:22:48Z</time>
      </trkpt>
      <trkpt lat="41.860019" lon="3.124952">
        <ele>7.0</ele>
        <time>2019-01-14T03:22:51Z</time>
      </trkpt>
      <trkpt lat="41.860140" lon="3.125160">
        <ele>7.0</ele>
        <time>2019-01-14T03:22:55Z</time>
      </trkpt>
      <trkpt lat="41.860260" lon="3.125368">
        <ele>7.0</ele>
        <time>2019-01-14T03:22:58Z</time>
      </trkpt>
      <trkpt lat="41.860372" lon="3.125587">
        <ele>7.0</ele>
        <time>2019-01-14T03:23:01Z</time>
      </trkpt>
      <trkpt lat="41.860492" lon="3.125795">
        <ele>7.0</ele>
        <time>2019-01-14T03:23:04Z</time>
      </trkpt>
      <trkpt lat="41.860604" lon="3.126014">
        <ele>7.0</ele>
        <time>2019-01-14T03:23:07Z</time>
      </trkpt>
      <trkpt lat="41.860707" lon="3.126233">
        <ele>7.0</ele>
        <time>2019-01-14T03:23:10Z</time>
      </trkpt>
      <trkpt lat="41.860810" lon="3.126453">
        <ele>8.0</ele>
        <time>2019-01-14T03:23:13Z</time>
      </trkpt>
      <trkpt lat="41.860939" lon="3.126637">
        <ele>8.0</ele>
        <time>2019-01-14T03:23:16Z</time>
      </trkpt>
      <trkpt lat="41.861068" lon="3.126834">
        <ele>8.0</ele>
        <time>2019-01-14T03:23:20Z</time>
      </trkpt>
      <trkpt lat="41.861163" lon="3.127064">
        <ele>8.0</ele>
        <time>2019-01-14T03:23:23Z</time>
      </trkpt>
      <trkpt lat="41.861266" lon="3.127295">
        <ele>9.0</ele>
        <time>2019-01-14T03:23:26Z</time>
      </trkpt>
      <trkpt lat="41.861386" lon="3.127492">
        <ele>9.0</ele>
        <time>2019-01-14T03:23:29Z</time>
      </trkpt>
      <trkpt lat="41.861506" lon="3.127688">
        <ele>9.0</ele>
        <time>2019-01-14T03:23:32Z</time>
      </trkpt>
      <trkpt lat="41.861644" lon="3.127861">
        <ele>9.0</ele>
        <time>2019-01-14T03:23:35Z</time>
      </trkpt>
      <trkpt lat="41.861764" lon="3.128057">
        <ele>9.0</ele>
        <time>2019-01-14T03:23:38Z</time>
      </trkpt>
      <trkpt lat="41.861859" lon="3.128288">
        <ele>9.0</ele>
        <time>2019-01-14T03:23:41Z</time>
      </trkpt>
      <trkpt lat="41.861971" lon="3.128507">
        <ele>9.0</ele>
        <time>2019-01-14T03:23:44Z</time>
      </trkpt>
      <trkpt lat="41.862168" lon="3.128600">
        <ele>9.0</ele>
        <time>2019-01-14T03:23:48Z</time>
      </trkpt>
      <trkpt lat="41.862145" lon="3.128614">
        <ele>9.0</ele>
        <time>2019-01-14T03:23:48Z</time>
      </trkpt>
      <trkpt lat="41.862211" lon="3.128710">
        <ele>9.0</ele>
        <time>2019-01-14T03:23:50Z</time>
      </trkpt>
      <trkpt lat="41.862278" lon="3.128811">
        <ele>10.0</ele>
        <time>2019-01-14T03:23:51Z</time>
      </trkpt>
      <trkpt lat="41.862349" lon="3.128901">
        <ele>10.0</ele>
        <time>2019-01-14T03:23:53Z</time>
      </trkpt>
      <trkpt lat="41.862420" lon="3.128996">
        <ele>10.0</ele>
        <time>2019-01-14T03:23:54Z</time>
      </trkpt>
      <trkpt lat="41.862491" lon="3.129097">
        <ele>10.0</ele>
        <time>2019-01-14T03:23:56Z</time>
      </trkpt>
      <trkpt lat="41.862562" lon="3.129187">
        <ele>10.0</ele>
        <time>2019-01-14T03:23:58Z</time>
      </trkpt>
      <trkpt lat="41.862655" lon="3.129246">
        <ele>10.0</ele>
        <time>2019-01-14T03:23:59Z</time>
      </trkpt>
      <trkpt lat="41.862744" lon="3.129312">
        <ele>10.0</ele>
        <time>2019-01-14T03:24:01Z</time>
      </trkpt>
      <trkpt lat="41.862820" lon="3.129401">
        <ele>11.0</ele>
        <time>2019-01-14T03:24:02Z</time>
      </trkpt>
      <trkpt lat="41.862895" lon="3.129485">
        <ele>11.0</ele>
        <time>2019-01-14T03:24:04Z</time>
      </trkpt>
      <trkpt lat="41.862948" lon="3.129598">
        <ele>11.0</ele>
        <time>2019-01-14T03:24:06Z</time>
      </trkpt>
      <trkpt lat="41.863050" lon="3.129646">
        <ele>11.0</ele>
        <time>2019-01-14T03:24:07Z</time>
      </trkpt>
      <trkpt lat="41.863188" lon="3.129646">
        <ele>11.0</ele>
        <time>2019-01-14T03:24:10Z</time>
      </trkpt>
      <trkpt lat="41.863326" lon="3.129646">
        <ele>12.0</ele>
        <time>2019-01-14T03:24:12Z</time>
      </trkpt>
      <trkpt lat="41.863317" lon="3.129634">
        <ele>12.0</ele>
        <time>2019-01-14T03:24:12Z</time>
      </trkpt>
      <trkpt lat="41.863419" lon="3.129586">
        <ele>12.0</ele>
        <time>2019-01-14T03:24:14Z</time>
      </trkpt>
      <trkpt lat="41.863548" lon="3.129574">
        <ele>12.0</ele>
        <time>2019-01-14T03:24:16Z</time>
      </trkpt>
      <trkpt lat="41.863659" lon="3.129539">
        <ele>12.0</ele>
        <time>2019-01-14T03:24:18Z</time>
      </trkpt>
      <trkpt lat="41.863739" lon="3.129461">
        <ele>12.0</ele>
        <time>2019-01-14T03:24:19Z</time>
      </trkpt>
      <trkpt lat="41.863819" lon="3.129384">
        <ele>12.0</ele>
        <time>2019-01-14T03:24:21Z</time>
      </trkpt>
      <trkpt lat="41.863890" lon="3.129288">
        <ele>12.0</ele>
        <time>2019-01-14T03:24:22Z</time>
      </trkpt>
      <trkpt lat="41.863961" lon="3.129199">
        <ele>12.0</ele>
        <time>2019-01-14T03:24:24Z</time>
      </trkpt>
      <trkpt lat="41.864036" lon="3.129115">
        <ele>13.0</ele>
        <time>2019-01-14T03:24:25Z</time>
      </trkpt>
      <trkpt lat="41.864116" lon="3.129038">
        <ele>13.0</ele>
        <time>2019-01-14T03:24:27Z</time>
      </trkpt>
      <trkpt lat="41.864192" lon="3.128954">
        <ele>13.0</ele>
        <time>2019-01-14T03:24:29Z</time>
      </trkpt>
      <trkpt lat="41.864263" lon="3.128859">
        <ele>13.0</ele>
        <time>2019-01-14T03:24:30Z</time>
      </trkpt>
      <trkpt lat="41.864325" lon="3.128757">
        <ele>13.0</ele>
        <time>2019-01-14T03:24:32Z</time>
      </trkpt>
      <trkpt lat="41.864401" lon="3.128668">
        <ele>13.0</ele>
        <time>2019-01-14T03:24:33Z</time>
      </trkpt>
      <trkpt lat="41.864503" lon="3.128620">
        <ele>13.0</ele>
        <time>2019-01-14T03:24:35Z</time>
      </trkpt>
      <trkpt lat="41.864587" lon="3.128543">
        <ele>13.0</ele>
        <time>2019-01-14T03:24:37Z</time>
      </trkpt>
      <trkpt lat="41.864680" lon="3.128477">
        <ele>13.0</ele>
        <time>2019-01-14T03:24:38Z</time>
      </trkpt>
      <trkpt lat="41.864760" lon="3.128400">
        <ele>14.0</ele>
        <time>2019-01-14T03:24:40Z</time>
      </trkpt>
      <trkpt lat="41.864756" lon="3.128403">
        <ele>14.0</ele>
        <time>2019-01-14T03:24:40Z</time>
      </trkpt>
      <trkpt lat="41.864895" lon="3.128300">
        <ele>14.0</ele>
        <time>2019-01-14T03:24:43Z</time>
      </trkpt>
      <trkpt lat="41.865041" lon="3.128207">
        <ele>15.0</ele>
        <time>2019-01-14T03:24:45Z</time>
      </trkpt>
      <trkpt lat="41.865166" lon="3.128086">
        <ele>15.0</ele>
        <time>2019-01-14T03:24:48Z</time>
      </trkpt>
      <trkpt lat="41.865284" lon="3.127955">
        <ele>15.0</ele>
        <time>2019-01-14T03:24:50Z</time>
      </trkpt>
      <trkpt lat="41.865381" lon="3.127778">
        <ele>16.0</ele>
        <time>2019-01-14T03:24:53Z</time>
      </trkpt>
      <trkpt lat="41.865527" lon="3.127684">
        <ele>17.0</ele>
        <time>2019-01-14T03:24:55Z</time>
      </trkpt>
      <trkpt lat="41.865708" lon="3.127740">
        <ele>17.0</ele>
        <time>2019-01-14T03:24:58Z</time>
      </trkpt>
      <trkpt lat="41.865847" lon="3.127638">
        <ele>17.0</ele>
        <time>2019-01-14T03:25:01Z</time>
      </trkpt>
      <trkpt lat="41.865979" lon="3.127526">
        <ele>17.0</ele>
        <time>2019-01-14T03:25:03Z</time>
      </trkpt>
      <trkpt lat="41.866125" lon="3.127432">
        <ele>17.0</ele>
        <time>2019-01-14T03:25:06Z</time>
      </trkpt>
      <trkpt lat="41.866278" lon="3.127348">
        <ele>17.0</ele>
        <time>2019-01-14T03:25:09Z</time>
      </trkpt>
      <trkpt lat="41.866424" lon="3.127246">
        <ele>17.0</ele>
        <time>2019-01-14T03:25:11Z</time>
      </trkpt>
      <trkpt lat="41.866549" lon="3.127115">
        <ele>18.0</ele>
        <time>2019-01-14T03:25:14Z</time>
      </trkpt>
      <trkpt lat="41.866667" lon="3.126984">
        <ele>18.0</ele>
        <time>2019-01-14T03:25:16Z</time>
      </trkpt>
      <trkpt lat="41.866785" lon="3.126854">
        <ele>18.0</ele>
        <time>2019-01-14T03:25:19Z</time>
      </trkpt>
      <trkpt lat="41.866896" lon="3.126714">
        <ele>18.0</ele>
        <time>2019-01-14T03:25:21Z</time>
      </trkpt>
      <trkpt lat="41.867014" lon="3.126583">
        <ele>18.0</ele>
        <time>2019-01-14T03:25:24Z</time>
      </trkpt>
      <trkpt lat="41.867132" lon="3.126453">
        <ele>18.0</ele>
        <time>2019-01-14T03:25:26Z</time>
      </trkpt>
      <trkpt lat="41.867119" lon="3.126453">
        <ele>18.0</ele>
        <time>2019-01-14T03:25:26Z</time>
      </trkpt>
      <trkpt lat="41.867209" lon="3.126285">
        <ele>18.0</ele>
        <time>2019-01-14T03:25:29Z</time>
      </trkpt>
      <trkpt lat="41.867334" lon="3.126163">
        <ele>18.0</ele>
        <time>2019-01-14T03:25:31Z</time>
      </trkpt>
      <trkpt lat="41.867487" lon="3.126079">
        <ele>18.0</ele>
        <time>2019-01-14T03:25:34Z</time>
      </trkpt>
      <trkpt lat="41.867660" lon="3.126023">
        <ele>18.0</ele>
        <time>2019-01-14T03:25:37Z</time>
      </trkpt>
      <trkpt lat="41.867841" lon="3.125977">
        <ele>19.0</ele>
        <time>2019-01-14T03:25:40Z</time>
      </trkpt>
      <trkpt lat="41.868008" lon="3.125911">
        <ele>19.0</ele>
        <time>2019-01-14T03:25:42Z</time>
      </trkpt>
      <trkpt lat="41.868168" lon="3.125837">
        <ele>20.0</ele>
        <time>2019-01-14T03:25:45Z</time>
      </trkpt>
      <trkpt lat="41.868348" lon="3.125790">
        <ele>20.0</ele>
        <time>2019-01-14T03:25:48Z</time>
      </trkpt>
      <trkpt lat="41.868522" lon="3.125725">
        <ele>20.0</ele>
        <time>2019-01-14T03:25:51Z</time>
      </trkpt>
      <trkpt lat="41.868668" lon="3.125631">
        <ele>21.0</ele>
        <time>2019-01-14T03:25:54Z</time>
      </trkpt>
      <trkpt lat="41.868835" lon="3.125566">
        <ele>21.0</ele>
        <time>2019-01-14T03:25:56Z</time>
      </trkpt>
      <trkpt lat="41.868995" lon="3.125491">
        <ele>21.0</ele>
        <time>2019-01-14T03:25:59Z</time>
      </trkpt>
      <trkpt lat="41.869134" lon="3.125389">
        <ele>22.0</ele>
        <time>2019-01-14T03:26:02Z</time>
      </trkpt>
      <trkpt lat="41.869280" lon="3.125296">
        <ele>22.0</ele>
        <time>2019-01-14T03:26:04Z</time>
      </trkpt>
      <trkpt lat="41.869398" lon="3.125165">
        <ele>23.0</ele>
        <time>2019-01-14T03:26:07Z</time>
      </trkpt>
      <trkpt lat="41.869516" lon="3.125025">
        <ele>23.0</ele>
        <time>2019-01-14T03:26:09Z</time>
      </trkpt>
      <trkpt lat="41.869648" lon="3.124913">
        <ele>24.0</ele>
        <time>2019-01-14T03:26:12Z</time>
      </trkpt>
      <trkpt lat="41.869780" lon="3.124782">
        <ele>25.0</ele>
        <time>2019-01-14T03:26:14Z</time>
      </trkpt>
      <trkpt lat="41.869926" lon="3.124689">
        <ele>25.0</ele>
        <time>2019-01-14T03:26:17Z</time>
      </trkpt>
      <trkpt lat="41.870030" lon="3.124530">
        <ele>26.0</ele>
        <time>2019-01-14T03:26:19Z</time>
      </trkpt>
      <trkpt lat="41.870089" lon="3.124470">
        <ele>26.0</ele>
        <time>2019-01-14T03:26:21Z</time>
      </trkpt>
      <trkpt lat="41.870155" lon="3.124409">
        <ele>26.0</ele>
        <time>2019-01-14T03:26:22Z</time>
      </trkpt>
      <trkpt lat="41.870273" lon="3.124269">
        <ele>26.0</ele>
        <time>2019-01-14T03:26:24Z</time>
      </trkpt>
      <trkpt lat="41.870398" lon="3.124139">
        <ele>27.0</ele>
        <time>2019-01-14T03:26:27Z</time>
      </trkpt>
      <trkpt lat="41.870530" lon="3.124027">
        <ele>27.0</ele>
        <time>2019-01-14T03:26:29Z</time>
      </trkpt>
      <trkpt lat="41.870648" lon="3.123896">
        <ele>27.0</ele>
        <time>2019-01-14T03:26:32Z</time>
      </trkpt>
      <trkpt lat="41.870759" lon="3.123756">
        <ele>28.0</ele>
        <time>2019-01-14T03:26:34Z</time>
      </trkpt>
      <trkpt lat="41.870857" lon="3.123597">
        <ele>29.0</ele>
        <time>2019-01-14T03:26:37Z</time>
      </trkpt>
      <trkpt lat="41.870975" lon="3.123448">
        <ele>29.0</ele>
        <time>2019-01-14T03:26:39Z</time>
      </trkpt>
      <trkpt lat="41.871093" lon="3.123317">
        <ele>30.0</ele>
        <time>2019-01-14T03:26:42Z</time>
      </trkpt>
      <trkpt lat="41.871211" lon="3.123177">
        <ele>30.0</ele>
        <time>2019-01-14T03:26:44Z</time>
      </trkpt>
      <trkpt lat="41.871329" lon="3.123038">
        <ele>31.0</ele>
        <time>2019-01-14T03:26:47Z</time>
      </trkpt>
      <trkpt lat="41.871434" lon="3.122888">
        <ele>31.0</ele>
        <time>2019-01-14T03:26:49Z</time>
      </trkpt>
      <trkpt lat="41.871552" lon="3.122758">
        <ele>31.0</ele>
        <time>2019-01-14T03:26:52Z</time>
      </trkpt>
      <trkpt lat="41.871670" lon="3.122627">
        <ele>32.0</ele>
        <time>2019-01-14T03:26:54Z</time>
      </trkpt>
      <trkpt lat="41.871753" lon="3.122450">
        <ele>32.0</ele>
        <time>2019-01-14T03:26:57Z</time>
      </trkpt>
      <trkpt lat="41.871857" lon="3.122291">
        <ele>33.0</ele>
        <time>2019-01-14T03:26:59Z</time>
      </trkpt>
      <trkpt lat="41.871982" lon="3.122151">
        <ele>34.0</ele>
        <time>2019-01-14T03:27:02Z</time>
      </trkpt>
      <trkpt lat="41.872101" lon="3.122002">
        <ele>34.0</ele>
        <time>2019-01-14T03:27:04Z</time>
      </trkpt>
      <trkpt lat="41.872226" lon="3.121881">
        <ele>34.0</ele>
        <time>2019-01-14T03:27:07Z</time>
      </trkpt>
      <trkpt lat="41.872344" lon="3.121750">
        <ele>34.0</ele>
        <time>2019-01-14T03:27:09Z</time>
      </trkpt>
      <trkpt lat="41.872469" lon="3.121629">
        <ele>35.0</ele>
        <time>2019-01-14T03:27:12Z</time>
      </trkpt>
      <trkpt lat="41.872580" lon="3.121479">
        <ele>35.0</ele>
        <time>2019-01-14T03:27:14Z</time>
      </trkpt>
      <trkpt lat="41.872698" lon="3.121330">
        <ele>35.0</ele>
        <time>2019-01-14T03:27:17Z</time>
      </trkpt>
      <trkpt lat="41.872788" lon="3.121153">
        <ele>36.0</ele>
        <time>2019-01-14T03:27:19Z</time>
      </trkpt>
      <trkpt lat="41.872907" lon="3.121022">
        <ele>37.0</ele>
        <time>2019-01-14T03:27:22Z</time>
      </trkpt>
      <trkpt lat="41.873025" lon="3.120891">
        <ele>37.0</ele>
        <time>2019-01-14T03:27:24Z</time>
      </trkpt>
      <trkpt lat="41.873157" lon="3.120780">
        <ele>38.0</ele>
        <time>2019-01-14T03:27:27Z</time>
      </trkpt>
      <trkpt lat="41.873164" lon="3.120770">
        <ele>38.0</ele>
        <time>2019-01-14T03:27:27Z</time>
      </trkpt>
      <trkpt lat="41.873261" lon="3.120612">
        <ele>39.0</ele>
        <time>2019-01-14T03:27:29Z</time>
      </trkpt>
      <trkpt lat="41.873309" lon="3.120388">
        <ele>39.0</ele>
        <time>2019-01-14T03:27:32Z</time>
      </trkpt>
      <trkpt lat="41.873386" lon="3.120201">
        <ele>40.0</ele>
        <time>2019-01-14T03:27:35Z</time>
      </trkpt>
      <trkpt lat="41.873511" lon="3.120080">
        <ele>41.0</ele>
        <time>2019-01-14T03:27:37Z</time>
      </trkpt>
      <trkpt lat="41.873698" lon="3.120042">
        <ele>42.0</ele>
        <time>2019-01-14T03:27:40Z</time>
      </trkpt>
      <trkpt lat="41.873893" lon="3.120014">
        <ele>43.0</ele>
        <time>2019-01-14T03:27:43Z</time>
      </trkpt>
      <trkpt lat="41.874095" lon="3.120033">
        <ele>44.0</ele>
        <time>2019-01-14T03:27:47Z</time>
      </trkpt>
      <trkpt lat="41.874296" lon="3.120061">
        <ele>45.0</ele>
        <time>2019-01-14T03:27:50Z</time>
      </trkpt>
      <trkpt lat="41.874491" lon="3.120033">
        <ele>46.0</ele>
        <time>2019-01-14T03:27:53Z</time>
      </trkpt>
      <trkpt lat="41.874678" lon="3.119996">
        <ele>47.0</ele>
        <time>2019-01-14T03:27:56Z</time>
      </trkpt>
      <trkpt lat="41.874887" lon="3.120005">
        <ele>47.0</ele>
        <time>2019-01-14T03:27:59Z</time>
      </trkpt>
      <trkpt lat="41.875102" lon="3.120005">
        <ele>48.0</ele>
        <time>2019-01-14T03:28:03Z</time>
      </trkpt>
      <trkpt lat="41.875317" lon="3.119996">
        <ele>49.0</ele>
        <time>2019-01-14T03:28:06Z</time>
      </trkpt>
      <trkpt lat="41.875519" lon="3.120014">
        <ele>49.0</ele>
        <time>2019-01-14T03:28:10Z</time>
      </trkpt>
      <trkpt lat="41.875713" lon="3.120052">
        <ele>50.0</ele>
        <time>2019-01-14T03:28:13Z</time>
      </trkpt>
      <trkpt lat="41.875901" lon="3.120089">
        <ele>51.0</ele>
        <time>2019-01-14T03:28:16Z</time>
      </trkpt>
      <trkpt lat="41.876089" lon="3.120126">
        <ele>51.0</ele>
        <time>2019-01-14T03:28:19Z</time>
      </trkpt>
      <trkpt lat="41.876228" lon="3.120238">
        <ele>52.0</ele>
        <time>2019-01-14T03:28:21Z</time>
      </trkpt>
      <trkpt lat="41.876373" lon="3.120332">
        <ele>52.0</ele>
        <time>2019-01-14T03:28:24Z</time>
      </trkpt>
      <trkpt lat="41.876368" lon="3.120346">
        <ele>52.0</ele>
        <time>2019-01-14T03:28:24Z</time>
      </trkpt>
      <trkpt lat="41.876433" lon="3.120358">
        <ele>53.0</ele>
        <time>2019-01-14T03:28:25Z</time>
      </trkpt>
      <trkpt lat="41.876479" lon="3.120392">
        <ele>53.0</ele>
        <time>2019-01-14T03:28:26Z</time>
      </trkpt>
      <trkpt lat="41.876535" lon="3.120414">
        <ele>53.0</ele>
        <time>2019-01-14T03:28:27Z</time>
      </trkpt>
      <trkpt lat="41.876593" lon="3.120436">
        <ele>53.0</ele>
        <time>2019-01-14T03:28:28Z</time>
      </trkpt>
      <trkpt lat="41.876634" lon="3.120476">
        <ele>53.0</ele>
        <time>2019-01-14T03:28:29Z</time>
      </trkpt>
      <trkpt lat="41.876694" lon="3.120491">
        <ele>53.0</ele>
        <time>2019-01-14T03:28:30Z</time>
      </trkpt>
      <trkpt lat="41.876757" lon="3.120510">
        <ele>53.0</ele>
        <time>2019-01-14T03:28:31Z</time>
      </trkpt>
      <trkpt lat="41.876810" lon="3.120535">
        <ele>53.0</ele>
        <time>2019-01-14T03:28:32Z</time>
      </trkpt>
      <trkpt lat="41.876856" lon="3.120569">
        <ele>53.0</ele>
        <time>2019-01-14T03:28:32Z</time>
      </trkpt>
      <trkpt lat="41.876905" lon="3.120600">
        <ele>53.0</ele>
        <time>2019-01-14T03:28:33Z</time>
      </trkpt>
      <trkpt lat="41.876960" lon="3.120622">
        <ele>53.0</ele>
        <time>2019-01-14T03:28:34Z</time>
      </trkpt>
      <trkpt lat="41.877013" lon="3.120650">
        <ele>53.0</ele>
        <time>2019-01-14T03:28:35Z</time>
      </trkpt>
      <trkpt lat="41.877060" lon="3.120684">
        <ele>53.0</ele>
        <time>2019-01-14T03:28:36Z</time>
      </trkpt>
      <trkpt lat="41.877108" lon="3.120721">
        <ele>53.0</ele>
        <time>2019-01-14T03:28:37Z</time>
      </trkpt>
      <trkpt lat="41.877150" lon="3.120761">
        <ele>53.0</ele>
        <time>2019-01-14T03:28:38Z</time>
      </trkpt>
      <trkpt lat="41.877194" lon="3.120799">
        <ele>53.0</ele>
        <time>2019-01-14T03:28:39Z</time>
      </trkpt>
      <trkpt lat="41.877191" lon="3.120786">
        <ele>53.0</ele>
        <time>2019-01-14T03:28:39Z</time>
      </trkpt>
      <trkpt lat="41.877316" lon="3.120798">
        <ele>54.0</ele>
        <time>2019-01-14T03:28:41Z</time>
      </trkpt>
      <trkpt lat="41.877301" lon="3.120640">
        <ele>55.0</ele>
        <time>2019-01-14T03:28:43Z</time>
      </trkpt>
      <trkpt lat="41.877277" lon="3.120469">
        <ele>56.0</ele>
        <time>2019-01-14T03:28:45Z</time>
      </trkpt>
      <trkpt lat="41.877282" lon="3.120274">
        <ele>57.0</ele>
        <time>2019-01-14T03:28:47Z</time>
      </trkpt>
      <trkpt lat="41.877287" lon="3.120079">
        <ele>58.0</ele>
        <time>2019-01-14T03:28:49Z</time>
      </trkpt>
      <trkpt lat="41.877226" lon="3.119953">
        <ele>58.0</ele>
        <time>2019-01-14T03:28:51Z</time>
      </trkpt>
      <trkpt lat="41.877174" lon="3.119814">
        <ele>59.0</ele>
        <time>2019-01-14T03:28:53Z</time>
      </trkpt>
      <trkpt lat="41.877136" lon="3.119669">
        <ele>60.0</ele>
        <time>2019-01-14T03:28:55Z</time>
      </trkpt>
      <trkpt lat="41.877085" lon="3.119537">
        <ele>60.0</ele>
        <time>2019-01-14T03:28:57Z</time>
      </trkpt>
      <trkpt lat="41.877038" lon="3.119398">
        <ele>60.0</ele>
        <time>2019-01-14T03:28:58Z</time>
      </trkpt>
      <trkpt lat="41.877005" lon="3.119247">
        <ele>61.0</ele>
        <time>2019-01-14T03:29:00Z</time>
      </trkpt>
      <trkpt lat="41.876986" lon="3.119077">
        <ele>61.0</ele>
        <time>2019-01-14T03:29:02Z</time>
      </trkpt>
      <trkpt lat="41.876982" lon="3.118875">
        <ele>61.0</ele>
        <time>2019-01-14T03:29:05Z</time>
      </trkpt>
      <trkpt lat="41.876968" lon="3.118686">
        <ele>61.0</ele>
        <time>2019-01-14T03:29:07Z</time>
      </trkpt>
      <trkpt lat="41.876954" lon="3.118497">
        <ele>62.0</ele>
        <time>2019-01-14T03:29:09Z</time>
      </trkpt>
      <trkpt lat="41.876944" lon="3.118302">
        <ele>62.0</ele>
        <time>2019-01-14T03:29:12Z</time>
      </trkpt>
      <trkpt lat="41.876944" lon="3.118101">
        <ele>62.0</ele>
        <time>2019-01-14T03:29:14Z</time>
      </trkpt>
      <trkpt lat="41.876958" lon="3.117905">
        <ele>61.0</ele>
        <time>2019-01-14T03:29:16Z</time>
      </trkpt>
      <trkpt lat="41.876963" lon="3.117710">
        <ele>61.0</ele>
        <time>2019-01-14T03:29:19Z</time>
      </trkpt>
      <trkpt lat="41.876982" lon="3.117540">
        <ele>61.0</ele>
        <time>2019-01-14T03:29:21Z</time>
      </trkpt>
      <trkpt lat="41.876982" lon="3.117344">
        <ele>62.0</ele>
        <time>2019-01-14T03:29:23Z</time>
      </trkpt>
      <trkpt lat="41.876996" lon="3.117162">
        <ele>62.0</ele>
        <time>2019-01-14T03:29:25Z</time>
      </trkpt>
      <trkpt lat="41.877019" lon="3.116992">
        <ele>64.0</ele>
        <time>2019-01-14T03:29:27Z</time>
      </trkpt>
      <trkpt lat="41.877018" lon="3.116720">
        <ele>65.0</ele>
        <time>2019-01-14T03:29:31Z</time>
      </trkpt>
      <trkpt lat="41.876960" lon="3.116495">
        <ele>65.0</ele>
        <time>2019-01-14T03:29:33Z</time>
      </trkpt>
      <trkpt lat="41.876923" lon="3.116240">
        <ele>65.0</ele>
        <time>2019-01-14T03:29:36Z</time>
      </trkpt>
      <trkpt lat="41.876880" lon="3.115995">
        <ele>64.0</ele>
        <time>2019-01-14T03:29:39Z</time>
      </trkpt>
      <trkpt lat="41.876741" lon="3.115877">
        <ele>62.0</ele>
        <time>2019-01-14T03:29:42Z</time>
      </trkpt>
      <trkpt lat="41.876777" lon="3.115622">
        <ele>63.0</ele>
        <time>2019-01-14T03:29:45Z</time>
      </trkpt>
      <trkpt lat="41.876982" lon="3.115583">
        <ele>65.0</ele>
        <time>2019-01-14T03:29:49Z</time>
      </trkpt>
      <trkpt lat="41.877179" lon="3.115534">
        <ele>67.0</ele>
        <time>2019-01-14T03:29:52Z</time>
      </trkpt>
      <trkpt lat="41.877347" lon="3.115446">
        <ele>69.0</ele>
        <time>2019-01-14T03:29:55Z</time>
      </trkpt>
      <trkpt lat="41.877434" lon="3.115260">
        <ele>69.0</ele>
        <time>2019-01-14T03:29:57Z</time>
      </trkpt>
      <trkpt lat="41.877500" lon="3.115034">
        <ele>69.0</ele>
        <time>2019-01-14T03:30:00Z</time>
      </trkpt>
      <trkpt lat="41.877609" lon="3.114868">
        <ele>69.0</ele>
        <time>2019-01-14T03:30:03Z</time>
      </trkpt>
      <trkpt lat="41.877712" lon="3.114691">
        <ele>69.0</ele>
        <time>2019-01-14T03:30:05Z</time>
      </trkpt>
      <trkpt lat="41.877821" lon="3.114525">
        <ele>69.0</ele>
        <time>2019-01-14T03:30:08Z</time>
      </trkpt>
      <trkpt lat="41.877850" lon="3.114260">
        <ele>69.0</ele>
        <time>2019-01-14T03:30:11Z</time>
      </trkpt>
      <trkpt lat="41.877872" lon="3.113986">
        <ele>69.0</ele>
        <time>2019-01-14T03:30:15Z</time>
      </trkpt>
      <trkpt lat="41.877931" lon="3.113760">
        <ele>69.0</ele>
        <time>2019-01-14T03:30:17Z</time>
      </trkpt>
      <trkpt lat="41.878011" lon="3.113554">
        <ele>69.0</ele>
        <time>2019-01-14T03:30:20Z</time>
      </trkpt>
      <trkpt lat="41.878106" lon="3.113378">
        <ele>69.0</ele>
        <time>2019-01-14T03:30:23Z</time>
      </trkpt>
      <trkpt lat="41.878244" lon="3.113260">
        <ele>69.0</ele>
        <time>2019-01-14T03:30:25Z</time>
      </trkpt>
      <trkpt lat="41.878376" lon="3.113123">
        <ele>69.0</ele>
        <time>2019-01-14T03:30:28Z</time>
      </trkpt>
      <trkpt lat="41.878478" lon="3.112957">
        <ele>69.0</ele>
        <time>2019-01-14T03:30:31Z</time>
      </trkpt>
      <trkpt lat="41.878551" lon="3.112751">
        <ele>69.0</ele>
        <time>2019-01-14T03:30:33Z</time>
      </trkpt>
      <trkpt lat="41.878638" lon="3.112565">
        <ele>69.0</ele>
        <time>2019-01-14T03:30:36Z</time>
      </trkpt>
      <trkpt lat="41.878770" lon="3.112437">
        <ele>68.0</ele>
        <time>2019-01-14T03:30:39Z</time>
      </trkpt>
      <trkpt lat="41.878974" lon="3.112408">
        <ele>68.0</ele>
        <time>2019-01-14T03:30:42Z</time>
      </trkpt>
      <trkpt lat="41.879186" lon="3.112427">
        <ele>68.0</ele>
        <time>2019-01-14T03:30:45Z</time>
      </trkpt>
      <trkpt lat="41.879346" lon="3.112515">
        <ele>68.0</ele>
        <time>2019-01-14T03:30:48Z</time>
      </trkpt>
      <trkpt lat="41.879536" lon="3.112467">
        <ele>68.0</ele>
        <time>2019-01-14T03:30:51Z</time>
      </trkpt>
      <trkpt lat="41.879580" lon="3.112221">
        <ele>69.0</ele>
        <time>2019-01-14T03:30:54Z</time>
      </trkpt>
      <trkpt lat="41.879573" lon="3.111927">
        <ele>71.0</ele>
        <time>2019-01-14T03:30:58Z</time>
      </trkpt>
      <trkpt lat="41.879587" lon="3.111643">
        <ele>72.0</ele>
        <time>2019-01-14T03:31:01Z</time>
      </trkpt>
      <trkpt lat="41.879595" lon="3.111466">
        <ele>74.0</ele>
        <time>2019-01-14T03:31:03Z</time>
      </trkpt>
      <trkpt lat="41.879605" lon="3.111284">
        <ele>75.0</ele>
        <time>2019-01-14T03:31:05Z</time>
      </trkpt>
      <trkpt lat="41.879581" lon="3.111109">
        <ele>76.0</ele>
        <time>2019-01-14T03:31:07Z</time>
      </trkpt>
      <trkpt lat="41.879535" lon="3.110978">
        <ele>77.0</ele>
        <time>2019-01-14T03:31:09Z</time>
      </trkpt>
      <trkpt lat="41.879460" lon="3.110878">
        <ele>79.0</ele>
        <time>2019-01-14T03:31:11Z</time>
      </trkpt>
      <trkpt lat="41.879414" lon="3.110734">
        <ele>80.0</ele>
        <time>2019-01-14T03:31:13Z</time>
      </trkpt>
      <trkpt lat="41.879400" lon="3.110559">
        <ele>82.0</ele>
        <time>2019-01-14T03:31:15Z</time>
      </trkpt>
      <trkpt lat="41.879423" lon="3.110390">
        <ele>84.0</ele>
        <time>2019-01-14T03:31:17Z</time>
      </trkpt>
      <trkpt lat="41.879484" lon="3.110265">
        <ele>85.0</ele>
        <time>2019-01-14T03:31:19Z</time>
      </trkpt>
      <trkpt lat="41.879516" lon="3.110115">
        <ele>87.0</ele>
        <time>2019-01-14T03:31:21Z</time>
      </trkpt>
      <trkpt lat="41.879581" lon="3.110003">
        <ele>88.0</ele>
        <time>2019-01-14T03:31:22Z</time>
      </trkpt>
      <trkpt lat="41.879651" lon="3.109903">
        <ele>89.0</ele>
        <time>2019-01-14T03:31:24Z</time>
      </trkpt>
      <trkpt lat="41.879693" lon="3.109765">
        <ele>90.0</ele>
        <time>2019-01-14T03:31:26Z</time>
      </trkpt>
      <trkpt lat="41.879744" lon="3.109640">
        <ele>90.0</ele>
        <time>2019-01-14T03:31:27Z</time>
      </trkpt>
      <trkpt lat="41.879870" lon="3.109615">
        <ele>91.0</ele>
        <time>2019-01-14T03:31:29Z</time>
      </trkpt>
      <trkpt lat="41.880005" lon="3.109628">
        <ele>92.0</ele>
        <time>2019-01-14T03:31:32Z</time>
      </trkpt>
      <trkpt lat="41.880135" lon="3.109609">
        <ele>92.0</ele>
        <time>2019-01-14T03:31:34Z</time>
      </trkpt>
      <trkpt lat="41.880252" lon="3.109571">
        <ele>93.0</ele>
        <time>2019-01-14T03:31:36Z</time>
      </trkpt>
      <trkpt lat="41.880349" lon="3.109503">
        <ele>94.0</ele>
        <time>2019-01-14T03:31:37Z</time>
      </trkpt>
      <trkpt lat="41.880475" lon="3.109478">
        <ele>94.0</ele>
        <time>2019-01-14T03:31:39Z</time>
      </trkpt>
      <trkpt lat="41.880582" lon="3.109540">
        <ele>94.0</ele>
        <time>2019-01-14T03:31:41Z</time>
      </trkpt>
      <trkpt lat="41.880694" lon="3.109584">
        <ele>95.0</ele>
        <time>2019-01-14T03:31:43Z</time>
      </trkpt>
      <trkpt lat="41.880824" lon="3.109609">
        <ele>95.0</ele>
        <time>2019-01-14T03:31:45Z</time>
      </trkpt>
      <trkpt lat="41.880959" lon="3.109621">
        <ele>95.0</ele>
        <time>2019-01-14T03:31:47Z</time>
      </trkpt>
      <trkpt lat="41.881080" lon="3.109590">
        <ele>95.0</ele>
        <time>2019-01-14T03:31:49Z</time>
      </trkpt>
      <trkpt lat="41.881224" lon="3.109584">
        <ele>96.0</ele>
        <time>2019-01-14T03:31:52Z</time>
      </trkpt>
      <trkpt lat="41.881322" lon="3.109515">
        <ele>96.0</ele>
        <time>2019-01-14T03:31:53Z</time>
      </trkpt>
      <trkpt lat="41.881406" lon="3.109434">
        <ele>95.0</ele>
        <time>2019-01-14T03:31:55Z</time>
      </trkpt>
    </trkseg>
  </trk>
</gpx>
